[[{"header":{"parameterUnit":"m.s-1","parameterCategory":1,"la1":30.6,"la2":28.766,"lo1":-90.7593,"lo2":-88.6598,"dy":0.0162,"dx":0.0183,"nx":116,"ny":114,"refTime":"2023-11-10T18:00:00:Z","depth":0,"parameterNumber":2,"parameterNumberName":"U-component_of_WINDS"},"data":[0.0,0.0,0.0,0.0,0.0,0.0,0.0,0.0,0.0,0.0,0.0,0.0,0.0,0.0,0.0,0.0,0.0,0.0,0.0,0.0,0.0,0.0,0.0,0.0,0.0,0.0,0.0,0.0,0.0,0.0,0.0,0.0,0.0,0.0,0.0,0.0,0.0,0.0,0.0,0.0,0.0,0.0,0.0,0.0,0.0,0.0,0.0,0.0,0.0,0.0,0.0,0.0,0.0,0.0,0.0,0.0,0.0,0.0,0.0,0.0,0.0,0.0,0.0,0.0,0.0,0.0,0.0,0.0,0.0,0.0,0.0,0.0,0.0,0.0,0.0,0.0,0.0,0.0,0.0,0.0,0.0,0.0,0.0,0.0,0.0,0.0,0.0,0.0,0.0,0.0,0.0,0.0,0.0,0.0,0.0,0.0,0.0,0.0,0.0,0.0,0.0,0.0,0.0,0.0,0.0,0.0,0.0,0.0,0.0,0.0,0.0,0.0,0.0,0.0,0.0,0.0,0.0,0.0,0.0,0.0,0.0,0.0,0.0,0.0,0.0,0.0,0.0,0.0,0.0,0.0,0.0,0.0,0.0,0.0,0.0,0.0,0.0,0.0,0.0,0.0,0.0,0.0,0.0,0.0,0.0,0.0,0.0,0.0,0.0,0.0,0.0,0.0,0.0,0.0,0.0,0.0,0.0,0.0,0.0,0.0,0.0,0.0,0.0,0.0,0.0,0.0,0.0,0.0,0.0,0.0,0.0,0.0,0.0,0.0,0.0,0.0,0.0,0.0,0.0,0.0,0.0,0.0,0.0,0.0,0.0,0.0,0.0,0.0,0.0,0.0,0.0,0.0,0.0,0.0,0.0,0.0,0.0,0.0,0.0,0.0,0.0,0.0,0.0,0.0,0.0,0.0,0.0,0.0,0.0,0.0,0.0,0.0,0.0,0.0,0.0,0.0,0.0,0.0,0.0,0.0,0.0,0.0,0.0,0.0,0.0,0.0,0.0,0.0,0.0,0.0,0.0,0.0,0.0,0.0,0.0,0.0,0.0,0.0,0.0,0.0,0.0,0.0,0.0,0.0,0.0,0.0,0.0,0.0,0.0,0.0,0.0,0.0,0.0,0.0,0.0,0.0,0.0,0.0,0.0,0.0,0.0,0.0,0.0,0.0,0.0,0.0,0.0,0.0,0.0,0.0,0.0,0.0,0.0,0.0,0.0,0.0,0.0,0.0,0.0,0.0,0.0,0.0,0.0,0.0,0.0,0.0,0.0,0.0,0.0,0.0,0.0,0.0,0.0,0.0,0.0,0.0,0.0,0.0,0.0,0.0,0.0,0.0,0.0,0.0,0.0,0.0,0.0,0.0,0.0,0.0,0.0,0.0,0.0,0.0,0.0,0.0,0.0,0.0,0.0,0.0,0.0,0.0,0.0,0.0,0.0,0.0,0.0,0.0,0.0,0.0,0.0,0.0,0.0,0.0,0.0,0.0,0.0,0.0,0.0,0.0,0.0,0.0,0.0,0.0,0.0,0.0,0.0,0.0,0.0,0.0,0.0,0.0,0.0,0.0,0.0,0.0,0.0,0.0,0.0,0.0,0.0,0.0,0.0,0.0,0.0,0.0,0.0,0.0,0.0,0.0,0.0,0.0,0.0,0.0,0.0,0.0,0.0,0.0,0.0,0.0,0.0,0.0,0.0,0.0,0.0,0.0,0.0,0.0,0.0,0.0,0.0,0.0,0.0,0.0,0.0,0.0,0.0,0.0,0.0,0.0,0.0,0.0,0.0,0.0,0.0,0.0,0.0,0.0,0.0,0.0,0.0,0.0,0.0,0.0,0.0,0.0,0.0,0.0,0.0,0.0,0.0,0.0,0.0,0.0,0.0,0.0,0.0,0.0,0.0,0.0,0.0,0.0,0.0,0.0,0.0,0.0,0.0,0.0,0.0,0.0,0.0,0.0,0.0,0.0,0.0,0.0,0.0,0.0,0.0,0.0,0.0,0.0,0.0,0.0,0.0,0.0,0.0,0.0,0.0,0.0,0.0,0.0,0.0,0.0,0.0,0.0,0.0,0.0,0.0,0.0,0.0,0.0,0.0,0.0,0.0,0.0,0.0,0.0,0.0,0.0,0.0,0.0,0.0,0.0,0.0,0.0,0.0,0.0,0.0,0.0,0.0,0.0,0.0,0.0,0.0,0.0,0.0,0.0,0.0,0.0,0.0,0.0,0.0,0.0,0.0,0.0,0.0,0.0,0.0,0.0,0.0,0.0,0.0,0.0,0.0,0.0,0.0,0.0,0.0,0.0,0.0,0.0,0.0,0.0,0.0,0.0,0.0,0.0,0.0,0.0,0.0,0.0,0.0,0.0,0.0,0.0,0.0,0.0,0.0,0.0,0.0,0.0,0.0,0.0,0.0,0.0,0.0,0.0,0.0,0.0,0.0,0.0,0.0,0.0,0.0,0.0,0.0,0.0,0.0,0.0,0.0,0.0,0.0,0.0,0.0,0.0,0.0,0.0,0.0,0.0,0.0,0.0,0.0,0.0,0.0,0.0,0.0,0.0,0.0,0.0,0.0,0.0,0.0,0.0,0.0,0.0,0.0,0.0,0.0,0.0,0.0,0.0,0.0,0.0,0.0,0.0,0.0,0.0,0.0,0.0,0.0,0.0,0.0,0.0,0.0,0.0,0.0,0.0,0.0,0.0,0.0,0.0,0.0,0.0,0.0,0.0,0.0,0.0,0.0,0.0,0.0,0.0,0.0,0.0,0.0,0.0,0.0,0.0,0.0,0.0,0.0,0.0,0.0,0.0,0.0,0.0,0.0,0.0,0.0,0.0,0.0,0.0,0.0,0.0,0.0,0.0,0.0,0.0,0.0,0.0,0.0,0.0,0.0,0.0,0.0,0.0,0.0,0.0,0.0,0.0,0.0,0.0,0.0,0.0,0.0,0.0,0.0,0.0,0.0,0.0,0.0,0.0,0.0,0.0,0.0,0.0,0.0,0.0,0.0,0.0,0.0,0.0,0.0,0.0,0.0,0.0,0.0,0.0,0.0,0.0,0.0,0.0,0.0,0.0,0.0,0.0,0.0,0.0,0.0,0.0,0.0,0.0,0.0,0.0,0.0,0.0,0.0,0.0,0.0,0.0,0.0,0.0,0.0,0.0,0.0,0.0,0.0,0.0,0.0,0.0,0.0,0.0,0.0,0.0,0.0,0.0,0.0,0.0,0.0,0.0,0.0,0.0,0.0,0.0,0.0,0.0,0.0,0.0,0.0,0.0,0.0,0.0,0.0,0.0,0.0,0.0,0.0,0.0,0.0,0.0,0.0,0.0,0.0,0.0,0.0,0.0,0.0,0.0,0.0,0.0,0.0,0.0,0.0,0.0,0.0,0.0,0.0,0.0,0.0,0.0,0.0,0.0,0.0,0.0,0.0,0.0,0.0,0.0,0.0,0.0,0.0,0.0,0.0,0.0,0.0,0.0,0.0,0.0,0.0,0.0,0.0,0.0,0.0,0.0,0.0,0.0,0.0,0.0,0.0,0.0,0.0,0.0,0.0,0.0,0.0,0.0,0.0,0.0,0.0,0.0,0.0,0.0,0.0,0.0,0.0,0.0,0.0,0.0,0.0,0.0,0.0,0.0,0.0,0.0,0.0,0.0,0.0,0.0,0.0,0.0,0.0,0.0,0.0,0.0,0.0,0.0,0.0,0.0,0.0,0.0,0.0,0.0,0.0,0.0,0.0,0.0,0.0,0.0,0.0,0.0,0.0,0.0,0.0,0.0,0.0,0.0,0.0,0.0,0.0,0.0,0.0,0.0,0.0,0.0,0.0,0.0,0.0,0.0,0.0,0.0,0.0,0.0,0.0,0.0,0.0,0.0,0.0,0.0,0.0,0.0,0.0,0.0,0.0,0.0,0.0,0.0,0.0,0.0,0.0,0.0,0.0,0.0,0.0,0.0,0.0,0.0,0.0,0.0,0.0,0.0,0.0,0.0,0.0,0.0,0.0,0.0,0.0,0.0,0.0,0.0,0.0,0.0,0.0,0.0,0.0,0.0,0.0,0.0,0.0,0.0,0.0,0.0,0.0,0.0,0.0,0.0,0.0,0.0,0.0,0.0,0.0,0.0,0.0,0.0,0.0,0.0,0.0,0.0,0.0,0.0,0.0,0.0,0.0,0.0,0.0,0.0,0.0,0.0,0.0,0.0,0.0,0.0,0.0,0.0,0.0,0.0,0.0,0.0,0.0,0.0,0.0,0.0,0.0,0.0,0.0,0.0,0.0,0.0,0.0,0.0,0.0,0.0,0.0,0.0,0.0,0.0,0.0,0.0,0.0,0.0,0.0,0.0,0.0,0.0,0.0,0.0,0.0,0.0,0.0,0.0,0.0,0.0,0.0,0.0,0.0,0.0,0.0,0.0,0.0,0.0,0.0,0.0,0.0,0.0,0.0,0.0,0.0,0.0,0.0,0.0,0.0,0.0,0.0,0.0,0.0,0.0,0.0,0.0,0.0,0.0,0.0,0.0,0.0,0.0,0.0,0.0,0.0,0.0,0.0,0.0,0.0,0.0,0.0,0.0,0.0,0.0,0.0,0.0,0.0,0.0,0.0,0.0,0.0,0.0,0.0,0.0,0.0,0.0,0.0,0.0,0.0,0.0,0.0,0.0,0.0,0.0,0.0,0.0,0.0,0.0,0.0,0.0,0.0,0.0,0.0,0.0,0.0,0.0,0.0,0.0,0.0,0.0,0.0,0.0,0.0,0.0,0.0,0.0,0.0,0.0,0.0,0.0,0.0,0.0,0.0,0.0,0.0,0.0,0.0,0.0,0.0,0.0,0.0,0.0,0.0,0.0,0.0,0.0,0.0,0.0,0.0,0.0,0.0,0.0,0.0,0.0,0.0,0.0,0.0,0.0,0.0,0.0,0.0,0.0,0.0,0.0,0.0,0.0,0.0,0.0,0.0,0.0,0.0,0.0,0.0,0.0,0.0,0.0,0.0,0.0,0.0,0.0,0.0,0.0,0.0,0.0,0.0,0.0,0.0,0.0,0.0,0.0,0.0,0.0,0.0,0.0,0.0,0.0,0.0,0.0,0.0,0.0,0.0,0.0,0.0,0.0,0.0,0.0,0.0,0.0,0.0,0.0,0.0,0.0,0.0,0.0,0.0,0.0,0.0,0.0,0.0,0.0,0.0,0.0,0.0,0.0,0.0,0.0,0.0,0.0,0.0,0.0,0.0,0.0,0.0,0.0,0.0,0.0,0.0,0.0,0.0,0.0,0.0,0.0,0.0,0.0,0.0,0.0,0.0,0.0,0.0,0.0,0.0,0.0,0.0,0.0,0.0,0.0,0.0,0.0,0.0,0.0,0.0,0.0,0.0,0.0,0.0,0.0,0.0,0.0,0.0,0.0,0.0,0.0,0.0,0.0,0.0,0.0,0.0,0.0,0.0,0.0,0.0,0.0,0.0,0.0,0.0,0.0,0.0,0.0,0.0,0.0,0.0,0.0,0.0,0.0,0.0,0.0,0.0,0.0,0.0,0.0,0.0,0.0,0.0,0.0,0.0,0.0,0.0,0.0,0.0,0.0,0.0,0.0,0.0,0.0,0.0,0.0,0.0,0.0,0.0,0.0,0.0,0.0,0.0,0.0,0.0,0.0,0.0,0.0,0.0,0.0,0.0,0.0,0.0,0.0,0.0,0.0,0.0,0.0,0.0,0.0,0.0,0.0,0.0,0.0,0.0,0.0,0.0,0.0,0.0,0.0,0.0,0.0,0.0,0.0,0.0,0.0,0.0,0.0,0.0,0.0,0.0,0.0,0.0,0.0,0.0,0.0,0.0,0.0,0.0,0.0,0.0,0.0,0.0,0.0,0.0,0.0,0.0,0.0,0.0,0.0,0.0,0.0,0.0,0.0,0.0,0.0,0.0,0.0,0.0,0.0,0.0,0.0,0.0,0.0,0.0,0.0,0.0,0.0,0.0,0.0,0.0,0.0,0.0,0.0,0.0,0.0,0.0,0.0,0.0,0.0,0.0,0.0,0.0,0.0,0.0,0.0,0.0,0.0,0.0,0.0,0.0,0.0,0.0,0.0,0.0,0.0,0.0,0.0,1.859,1.8631,0.0,0.0,0.0,0.0,0.0,0.0,0.0,0.0,0.0,0.0,0.0,0.0,0.0,0.0,0.0,0.0,0.0,0.0,0.0,0.0,0.0,0.0,0.0,0.0,0.0,0.0,0.0,0.0,0.0,0.0,0.0,0.0,0.0,0.0,0.0,0.0,0.0,2.6159,2.6159,2.6239,2.6386,2.6239,2.6239,2.6386,0.0,0.0,0.0,0.0,0.0,0.0,0.0,0.0,0.0,0.0,0.0,0.0,0.0,0.0,0.0,0.0,0.0,0.0,0.0,0.0,0.0,0.0,0.0,0.0,0.0,0.0,0.0,0.0,0.0,0.0,0.0,0.0,0.0,0.0,0.0,0.0,0.0,0.0,0.0,0.0,0.0,0.0,0.0,0.0,0.0,0.0,0.0,0.0,0.0,0.0,0.0,0.0,0.0,0.0,0.0,0.0,0.0,0.0,0.0,0.0,0.0,0.0,0.0,0.0,0.0,0.0,0.0,0.0,0.0,0.0,1.885,1.885,0.0,0.0,0.0,0.0,0.0,0.0,0.0,0.0,0.0,0.0,0.0,0.0,0.0,0.0,0.0,0.0,0.0,0.0,0.0,0.0,0.0,0.0,0.0,2.4569,2.4836,2.513,2.5157,2.5277,0.0,0.0,0.0,0.0,0.0,0.0,2.6039,2.6266,2.6386,2.6386,2.6386,2.6386,2.6386,2.6386,2.6386,2.6386,2.6386,0.0,0.0,0.0,0.0,0.0,0.0,0.0,0.0,0.0,0.0,0.0,0.0,0.0,0.0,0.0,0.0,0.0,0.0,0.0,0.0,0.0,0.0,0.0,0.0,0.0,0.0,0.0,0.0,0.0,0.0,0.0,0.0,0.0,0.0,0.0,0.0,0.0,0.0,0.0,0.0,0.0,0.0,0.0,0.0,0.0,0.0,0.0,0.0,0.0,0.0,0.0,0.0,0.0,0.0,0.0,0.0,0.0,0.0,0.0,0.0,0.0,0.0,0.0,1.8769,1.8801,1.8866,1.9013,1.9094,1.9126,1.9126,1.9102,1.9102,1.9427,0.0,0.0,0.0,0.0,0.0,0.0,0.0,0.0,0.0,0.0,0.0,0.0,0.0,0.0,0.0,0.0,0.0,0.0,0.0,2.4676,2.4943,2.4997,2.5144,2.5424,2.5451,2.5585,2.5879,0.0,0.0,0.0,0.0,2.6333,2.6333,2.6373,2.6386,2.6386,2.6386,2.6386,2.6386,2.6386,2.6386,2.6386,2.6386,2.6386,2.6386,0.0,0.0,0.0,0.0,0.0,0.0,0.0,0.0,0.0,0.0,0.0,0.0,0.0,0.0,0.0,0.0,0.0,0.0,0.0,0.0,0.0,0.0,0.0,0.0,0.0,0.0,0.0,0.0,0.0,0.0,0.0,0.0,0.0,0.0,0.0,0.0,0.0,0.0,0.0,0.0,0.0,1.7323,1.7348,0.0,0.0,0.0,0.0,0.0,0.0,0.0,0.0,0.0,0.0,0.0,0.0,0.0,1.8631,1.8655,1.868,1.8777,1.8948,1.8948,1.911,1.941,1.9435,1.9532,1.9687,1.9687,0.0,1.9459,1.967,0.0,0.0,0.0,0.0,0.0,0.0,0.0,0.0,0.0,0.0,0.0,0.0,0.0,0.0,0.0,0.0,0.0,0.0,0.0,0.0,0.0,2.5224,2.5438,2.5732,2.5758,2.5892,2.6186,2.6199,0.0,0.0,2.6386,2.6386,2.6386,2.6386,2.6386,2.6386,2.6386,2.6386,2.6386,2.6386,2.6386,2.6386,2.6386,2.6386,2.6386,2.5422,0.0,0.0,0.0,0.0,0.0,0.0,0.0,0.0,0.0,0.0,0.0,0.0,0.0,0.0,0.0,0.0,0.0,0.0,0.0,0.0,0.0,0.0,0.0,0.0,0.0,0.0,0.0,0.0,0.0,0.0,0.0,0.0,0.0,0.0,0.0,0.0,0.0,0.0,0.0,1.7372,1.7526,1.7526,1.7599,1.7681,0.0,0.0,0.0,0.0,0.0,0.0,0.0,0.0,0.0,1.8606,1.868,1.8769,1.8866,1.8866,1.9004,1.9281,1.9281,1.9419,1.967,1.967,1.9711,1.9792,1.9898,1.9898,1.9833,1.9914,1.9946,1.9963,0.0,0.0,0.0,0.0,2.032,2.032,0.0,0.0,0.0,0.0,0.0,0.0,0.0,0.0,0.0,0.0,0.0,0.0,2.5291,2.5491,2.5745,2.6039,2.6066,2.6159,2.6373,2.6386,2.6386,2.6386,2.6386,2.6386,2.6386,2.6386,2.6386,2.6386,2.6386,2.6386,2.6386,2.6386,2.6386,2.6386,2.6386,2.6386,2.6386,2.4945,2.4455,2.4136,0.0,0.0,0.0,0.0,0.0,0.0,0.0,0.0,0.0,0.0,0.0,0.0,0.0,0.0,0.0,0.0,0.0,0.0,0.0,0.0,0.0,0.0,0.0,0.0,0.0,0.0,0.0,0.0,0.0,0.0,0.0,0.0,0.0,0.0,0.0,0.0,0.0,1.7599,1.7713,1.7713,1.7746,1.7851,0.0,0.0,0.0,0.0,0.0,0.0,1.872,1.8769,1.8793,1.8793,1.8874,1.8988,1.9118,1.9167,1.9321,1.9581,1.9581,1.9678,1.9857,1.9857,1.9882,1.993,2.0076,2.0133,2.0133,2.0133,2.0133,1.9935,2.0271,2.032,2.0111,2.032,2.032,2.032,0.0,0.0,0.0,0.0,0.0,0.0,0.0,0.0,0.0,0.0,0.0,2.5598,2.5879,2.5932,2.6052,2.6346,2.6373,2.6373,2.6386,2.6386,2.6386,2.6386,2.6386,2.6386,2.6386,2.6386,2.6386,2.6386,2.6386,2.6386,2.6386,2.6386,2.6386,2.6386,2.6386,2.6386,2.6386,2.6386,2.6228,2.5911,2.251,0.0,0.0,0.0,0.0,0.0,0.0,0.0,0.0,0.0,0.0,0.0,0.0,0.0,0.0,0.0,0.0,0.0,0.0,0.0,0.0,0.0,0.0,0.0,0.0,0.0,0.0,0.0,0.0,0.0,0.0,0.0,0.0,0.0,0.0,0.0,0.0,0.0,0.0,1.79,1.8046,0.0,0.0,0.0,0.0,1.8696,1.8712,1.8712,1.8728,1.8883,1.8972,1.8972,1.9297,1.9475,1.9484,1.9662,1.976,1.9776,1.9776,1.9873,2.0052,2.0052,2.0141,2.0296,2.0304,2.0304,2.0304,2.0304,1.9895,1.9477,2.0111,1.9903,1.9702,2.0111,2.032,2.032,0.0,0.0,0.0,0.0,0.0,0.0,0.0,0.0,2.5144,2.5331,2.5611,2.5838,2.5945,2.6119,2.6279,2.6373,2.6386,2.6386,2.6386,2.6386,2.6386,2.6386,2.6386,2.6386,2.6386,2.6386,2.6386,2.6386,2.6386,2.6386,2.6386,2.5263,2.5263,2.6386,2.5263,2.5422,2.6386,2.6386,2.6386,2.607,2.2671,2.1222,0.0,0.0,0.0,0.0,0.0,0.0,0.0,0.0,0.0,0.0,0.0,0.0,0.0,0.0,0.0,0.0,0.0,0.0,0.0,0.0,0.0,0.0,0.0,0.0,0.0,0.0,0.0,0.0,0.0,0.0,0.0,0.0,0.0,0.0,0.0,0.0,0.0,1.8265,1.842,0.0,1.8623,1.8631,1.8704,1.8874,1.8891,1.8939,1.9061,1.9232,1.9321,1.9321,1.9565,1.9695,1.9695,1.9752,1.9849,1.9971,1.9971,2.006,2.0231,2.0231,2.0263,2.032,2.032,2.032,2.032,2.032,1.9903,1.9493,1.9268,1.9276,1.9493,1.9702,1.9903,2.0336,0.0,0.0,0.0,0.0,0.0,0.0,0.0,2.5992,2.5451,2.5638,2.5919,2.6106,2.6106,2.6279,2.6386,2.6386,2.6386,2.6386,2.6386,2.6386,2.6386,2.6386,2.6386,2.6386,2.6386,2.6386,2.6386,2.6386,2.6386,2.644,2.6533,2.5404,2.5122,2.5706,2.4566,2.4392,2.4889,2.4889,2.543,2.6228,2.3312,2.1706,2.0899,0.0,0.0,0.0,0.0,0.0,0.0,0.0,0.0,0.0,0.0,0.0,0.0,0.0,0.0,0.0,0.0,0.0,0.0,0.0,0.0,0.0,0.0,0.0,0.0,0.0,0.0,0.0,0.0,0.0,0.0,0.0,0.0,0.0,0.0,1.8355,1.8541,1.8541,1.8655,1.8753,1.8809,1.8809,1.8907,1.9142,1.9159,1.924,1.9427,1.9549,1.9605,1.9605,1.9784,1.9882,1.9882,1.9938,2.0028,2.015,2.015,2.0206,2.032,2.032,2.032,2.032,2.032,2.032,2.032,2.0176,1.9781,1.9361,1.909,1.9097,1.9369,1.9571,1.982,2.0304,0.0,0.0,0.0,0.0,0.0,0.0,2.5541,2.5585,2.5959,2.5972,2.6213,2.6386,2.6386,2.6386,2.6386,2.6386,2.6386,2.6386,2.6386,2.6386,2.6386,2.6386,2.6386,2.6386,2.6386,2.64,2.64,2.64,2.6413,2.656,2.6666,2.6666,2.5826,2.4423,2.4423,2.3419,2.1755,2.1755,2.347,2.6096,2.432,2.2705,2.092,0.0,0.0,0.0,0.0,0.0,0.0,0.0,0.0,0.0,0.0,0.0,0.0,0.0,0.0,0.0,0.0,0.0,0.0,0.0,0.0,0.0,0.0,0.0,0.0,0.0,0.0,0.0,0.0,0.0,0.0,0.0,0.0,0.0,1.8485,1.8615,1.8736,1.8736,1.8736,1.8809,1.898,1.8996,1.9142,1.9492,1.9524,1.9597,1.9776,1.9792,1.98,1.98,1.9963,2.006,2.0076,2.0239,2.032,2.032,2.032,2.032,2.032,2.032,2.032,2.032,2.0328,2.0328,2.0136,1.9883,1.9538,1.8887,1.9361,1.9181,1.8902,1.953,1.9859,2.0221,0.0,0.0,0.0,0.0,0.0,0.0,2.6099,2.5852,2.6039,2.6239,2.6333,2.6386,2.6386,2.6386,2.6386,2.6386,2.6386,2.6386,2.6386,2.6386,2.6386,2.6386,2.6386,2.6386,2.6386,2.66,2.6707,2.6707,2.6921,2.6405,2.5149,2.3821,2.303,2.2422,2.1264,2.1097,2.1755,2.1755,2.2345,2.2894,2.1242,2.0256,1.959,0.0,0.0,0.0,0.0,0.0,0.0,0.0,0.0,0.0,0.0,0.0,0.0,0.0,0.0,0.0,0.0,0.0,0.0,0.0,0.0,0.0,0.0,0.0,0.0,0.0,0.0,0.0,0.0,0.0,0.0,0.0,1.8793,1.885,1.8671,1.8801,1.8915,1.8915,1.9029,1.9183,1.9345,1.9362,1.9467,1.9695,1.9711,1.9735,1.9784,1.9914,1.9987,1.9987,2.0158,2.0247,2.0247,1.9887,1.9702,1.9702,1.9702,1.9485,1.9059,1.9903,1.9903,1.9067,1.961,1.9664,1.9265,1.922,1.9287,1.9073,1.8808,1.8822,1.9073,1.9287,1.9823,2.0835,0.0,0.0,0.0,0.0,0.0,0.0,2.6357,2.6066,2.6199,2.6373,2.6386,2.6386,2.6386,2.6386,2.6386,2.6386,2.6386,2.6386,2.6386,2.6386,2.6386,2.6386,2.6386,2.6453,2.6573,2.6734,2.6881,2.7001,2.6346,2.5652,2.4591,2.2911,2.1621,2.1037,2.0026,1.9685,1.9856,1.9856,1.9856,1.9685,1.8678,1.8749,1.91,1.8095,1.7256,1.6584,1.6584,1.6584,1.6584,1.6584,0.0,0.0,0.0,0.0,0.0,0.0,0.0,0.0,0.0,0.0,0.0,0.0,0.0,0.0,0.0,0.0,0.0,0.0,0.0,0.0,0.0,0.0,0.0,0.0,1.898,1.9086,1.9061,1.9077,1.9126,1.9199,1.9297,1.9435,1.9613,1.963,1.9703,1.989,1.9906,1.9938,2.0011,2.0117,2.0174,2.0174,2.0271,2.0111,1.9903,1.9903,1.9694,1.9067,1.9694,1.9485,1.9067,1.9982,2.0014,1.9392,1.9773,1.963,1.9433,1.9178,1.9245,1.9237,0.0,0.0,0.0,0.0,2.0062,2.0802,0.0,0.0,0.0,0.0,0.0,0.0,2.631,2.6226,2.6386,2.6386,2.6386,2.6386,2.6386,2.6386,2.6386,2.6386,2.6386,2.6386,2.6386,2.6386,2.6386,2.607,2.6096,2.6228,2.6157,2.6235,2.6392,2.6652,2.5169,2.4294,2.435,2.2649,2.1059,1.9525,1.9525,1.8663,1.7112,1.7112,1.7112,1.7112,1.7112,1.7776,1.8996,1.8996,1.7987,1.6641,1.6641,1.6641,1.6641,1.6641,0.0,0.0,0.0,0.0,0.0,0.0,0.0,0.0,0.0,0.0,0.0,0.0,0.0,0.0,0.0,0.0,0.0,0.0,0.0,0.0,0.0,0.0,0.0,0.0,1.9183,1.9345,1.9516,1.941,1.9378,1.9524,1.954,1.9613,1.98,1.9825,1.9898,2.0085,2.0093,2.0158,2.0312,2.032,0.0,0.0,0.0,1.9903,1.9493,1.9903,1.9485,1.8432,1.9501,1.9725,1.9315,2.0125,2.0417,2.0213,1.9952,1.9815,1.9608,1.9342,1.9191,1.9176,1.8813,1.8632,1.8776,1.9573,2.0073,2.0733,0.0,0.0,0.0,0.0,0.0,0.0,2.6581,2.636,2.6386,2.6386,2.6386,2.6386,2.6386,2.6386,2.6386,2.6386,2.6386,2.6386,2.6386,2.6386,2.574,2.4295,2.4505,2.398,2.256,2.2943,2.3168,2.3225,2.3076,2.2171,2.0845,2.05,1.9315,1.763,1.763,1.7455,1.7112,1.7112,1.7112,1.7112,1.7112,1.7238,1.7521,1.7521,1.7355,1.7006,1.7006,1.7006,1.7006,1.7006,1.7006,1.7006,1.7006,1.7031,0.0,0.0,0.0,0.0,0.0,0.0,0.0,0.0,0.0,0.0,0.0,0.0,0.0,0.0,0.0,0.0,0.0,0.0,0.0,1.9386,1.9443,1.9524,1.9711,1.9703,1.9695,1.9735,1.9735,1.9808,1.9995,2.0011,2.0085,2.0255,2.0271,2.0288,2.032,2.032,2.0111,1.9702,1.9702,1.9276,1.885,1.8439,1.823,1.802,1.8361,0.0,1.7579,1.8808,1.8881,1.803,1.8618,1.8473,1.8051,1.8191,1.826,1.8246,1.9536,1.9997,2.0239,2.0717,2.1172,2.1156,0.0,0.0,0.0,0.0,0.0,0.0,2.6517,2.6386,2.6386,2.6386,2.6386,2.6386,2.6386,2.6386,2.6386,2.6386,2.6386,2.607,2.5104,2.5911,2.5646,2.3997,2.413,2.3329,2.1922,2.2159,2.2331,2.2449,2.1708,2.0732,1.9873,1.9012,1.7972,1.7112,1.7112,1.7112,1.7112,1.7112,1.7112,1.7112,1.7112,1.7112,1.7112,1.7112,1.7112,1.7112,1.7112,1.7112,1.7112,1.7112,1.7112,1.7128,1.7218,1.725,1.7283,0.0,0.0,0.0,0.0,0.0,0.0,0.0,0.0,0.0,0.0,0.0,0.0,0.0,0.0,1.9118,1.9118,0.0,1.941,1.95,1.9589,1.9711,1.9906,1.9922,1.9922,1.993,1.993,1.9995,2.0174,2.019,2.0231,2.0312,2.0111,1.9903,1.9903,1.9694,1.9268,1.9067,1.9067,1.8858,1.8222,1.8222,1.8056,1.7502,1.8222,1.8301,1.7739,1.8754,1.9044,1.8401,1.8572,1.8417,1.8211,1.8281,1.8302,1.8323,1.9707,1.9692,1.9397,2.0073,2.0568,2.0638,0.0,0.0,0.0,0.0,0.0,0.0,2.6386,2.6386,2.6386,2.6386,2.6386,2.6386,2.6386,2.6386,2.6228,2.5911,2.6228,2.5581,2.3484,2.4945,2.5059,2.3202,2.3096,2.251,2.1248,2.1129,2.1241,2.1587,2.0047,1.9361,1.9351,1.7805,1.7112,1.7112,1.7112,1.7112,1.7112,1.7112,1.7112,1.7112,1.7112,1.7112,1.7112,1.7112,1.7112,1.7112,1.7112,1.7112,1.712,1.7153,1.7161,1.7193,1.738,1.7437,1.7469,1.764,1.7697,0.0,0.0,0.0,0.0,0.0,0.0,0.0,0.0,1.8883,1.8996,1.9029,1.9183,1.9305,1.9305,1.9451,1.9573,1.9613,1.9743,1.9906,2.0093,2.0109,2.0101,2.0117,2.0117,2.0174,2.0304,2.0111,2.0111,2.0111,1.9694,1.9276,1.9276,1.885,1.8641,1.8432,1.8432,1.8237,1.7643,1.8056,1.7932,1.7236,1.8124,1.8416,1.8114,1.8922,1.9206,1.9009,1.87,1.8544,1.8586,1.8586,1.86,1.8642,1.9417,1.8942,1.8177,1.9286,1.9804,2.0132,0.0,0.0,0.0,0.0,0.0,0.0,0.0,0.0,2.6386,2.6386,2.6386,2.6386,2.6386,2.6386,2.574,2.4295,2.5581,2.4933,2.1706,2.3164,2.2786,1.959,1.9629,1.9006,1.7354,1.7513,1.7605,1.7805,1.7455,1.7455,1.7455,1.7288,1.7112,1.7112,1.7112,1.7112,1.7112,1.7112,1.7112,1.7112,1.7112,1.7112,1.7112,1.7112,1.7112,1.7112,1.7112,1.7112,1.7136,1.7299,1.7356,1.7388,1.7559,1.7616,1.7648,1.7835,1.7884,1.7924,1.8103,1.8265,1.8444,1.8647,1.8696,1.8744,0.0,1.8972,1.9029,1.9191,1.9362,1.9484,1.9484,1.9638,1.9808,1.9963,2.0011,2.0093,2.0263,1.9879,1.967,2.0288,2.0296,2.0296,2.032,1.9903,1.9493,1.9493,1.9067,1.8641,1.8641,1.8641,1.8432,1.7811,1.7811,1.7664,1.7168,1.738,1.7456,1.7399,1.7534,1.7827,1.7629,1.7998,1.8053,1.8053,1.8067,1.8156,1.8057,1.8057,1.8145,1.8267,1.8514,1.8287,1.85,1.9614,2.008,2.008,0.0,0.0,0.0,0.0,0.0,0.0,0.0,0.0,2.6386,2.6386,2.6386,2.6386,2.6386,2.5422,2.4136,2.251,2.3804,2.3804,2.1383,2.2843,2.2855,2.0599,1.9716,1.8578,1.6998,1.7071,1.7112,1.7112,1.7112,1.7112,1.7112,1.7112,1.7112,1.7112,1.7112,1.7112,1.7112,1.7112,1.7112,1.7112,1.7112,1.7112,1.712,1.7226,1.7274,1.7274,1.7274,1.7274,0.0,1.7478,1.7534,1.7567,1.7746,1.7802,1.7835,1.8014,1.8144,1.8265,1.8444,1.855,1.8655,1.8834,1.8874,1.8923,1.9102,1.9142,1.9191,1.937,1.9467,1.954,1.9654,1.9825,1.9979,2.0044,2.0141,2.0031,1.9895,1.9694,1.9485,1.9268,1.9268,1.9485,1.9694,1.9276,1.9067,1.9067,1.8439,1.823,1.823,1.7811,1.7601,1.7398,1.7482,1.7339,1.7195,1.7283,1.7399,1.7555,1.7616,1.7684,1.7772,1.7826,1.786,1.786,1.7948,1.8036,1.8091,1.8179,1.8267,1.8321,1.8409,1.8443,1.843,1.9256,1.9723,1.9804,0.0,0.0,0.0,0.0,0.0,0.0,0.0,0.0,0.0,0.0,2.6386,2.6386,2.6386,2.4786,2.3164,2.1383,2.235,2.2189,1.9927,2.1383,2.1763,2.0406,1.91,1.811,1.7104,1.7112,1.7112,1.7112,1.7112,1.7112,1.7112,1.7112,1.7112,1.7112,1.7112,1.7112,1.7112,1.7112,1.7112,1.7112,1.7112,1.7136,1.7201,1.7339,1.7421,1.7461,1.7461,1.7461,1.7486,1.7656,1.7713,1.7746,1.7932,1.7989,1.8022,1.82,1.8379,1.8566,1.8744,1.8793,1.8842,1.9013,1.9061,1.9094,1.9232,1.9297,1.9362,1.9484,1.9597,1.9703,1.9841,2.0011,2.0133,2.0133,2.0239,2.0111,1.9493,1.9284,1.9067,1.8641,1.8432,1.8439,1.9067,1.8649,1.8432,1.8432,1.7811,1.7601,1.7601,1.7229,1.7039,1.7039,1.7182,1.7277,1.7317,1.7426,1.7561,1.7704,1.7704,1.7758,1.786,1.7901,1.7935,1.7935,1.8091,1.8179,1.8213,1.8335,1.8409,1.8443,1.8552,1.8599,1.8586,1.8934,1.9184,1.9282,0.0,0.0,0.0,0.0,0.0,0.0,0.0,0.0,0.0,0.0,0.0,2.6386,2.6386,2.4786,2.3164,2.1383,2.1222,1.9765,1.6369,1.7819,1.8156,1.69,1.6746,1.6747,1.7104,1.7112,1.7112,1.7112,1.7112,1.7112,1.7112,1.7112,1.7112,1.7112,1.7112,1.7112,1.7112,1.7112,1.7112,1.7112,1.7112,1.7218,1.738,1.7388,1.7486,1.7632,1.7632,1.7632,1.7664,1.7851,1.7908,1.794,1.8111,1.8168,1.82,1.8387,1.8574,1.8753,1.8923,1.8972,1.9021,1.9207,1.9248,1.9256,1.9256,1.9386,1.9508,1.9508,1.98,2.0052,2.006,2.0198,2.0312,2.0312,2.0312,2.0111,1.9493,1.9067,1.8641,1.8641,1.7601,1.7188,1.7811,1.7811,1.7811,1.7811,1.7398,1.6978,1.6978,1.7114,1.7182,1.7182,1.7331,1.7487,1.7629,1.7629,1.7717,1.786,1.786,1.786,1.786,1.8023,1.8091,1.8091,1.8247,1.8389,1.8511,1.8531,1.862,1.8742,1.8762,1.8762,1.8762,1.8749,1.8749,1.898,0.0,0.0,0.0,0.0,0.0,0.0,0.0,0.0,0.0,0.0,0.0,0.0,0.0,0.0,0.0,0.0,1.943,1.8952,1.7819,1.83,1.843,1.8217,1.7188,1.669,1.6933,1.7055,1.7112,1.7112,1.7112,1.7112,1.7112,1.7112,1.7112,1.7112,1.7112,1.7112,1.7112,1.7112,1.7112,1.712,1.7242,1.7331,1.7413,1.7648,1.7778,1.7843,0.0,1.7924,1.7851,1.803,1.8087,1.8095,1.8152,1.8257,1.842,1.872,1.885,1.8931,1.9118,1.9167,1.9183,1.9248,1.9256,1.9289,1.9402,1.9475,1.9581,1.9833,1.9979,2.0101,2.0214,2.0279,2.0111,1.9903,1.9694,1.9485,1.8439,1.823,1.802,1.7601,1.7188,1.6978,1.7188,1.7188,1.7188,1.7188,1.7188,1.7019,1.7114,1.7168,1.7243,1.7338,1.7494,1.7595,1.765,1.7738,1.7812,1.786,1.786,1.786,1.786,1.8023,1.8091,1.8111,1.8809,1.8948,1.8531,1.9094,1.9184,1.8762,1.8762,1.8762,1.8762,1.8762,1.8762,1.8762,0.0,0.0,0.0,0.0,0.0,0.0,0.0,0.0,0.0,0.0,0.0,0.0,0.0,0.0,0.0,0.0,0.0,1.7656,1.7656,1.7656,1.7781,1.8049,1.7188,1.669,1.6586,1.688,1.6936,1.6585,1.6936,1.6936,1.6928,1.6936,1.7112,1.7112,1.7112,1.7112,1.7112,1.7112,1.7112,1.7128,1.7315,1.7421,1.751,1.7802,1.7957,0.0,1.7949,1.7917,1.803,1.8135,1.8176,1.8184,1.8257,1.8444,1.8688,1.8915,1.9029,1.911,1.9224,1.9256,1.9256,1.9256,1.9305,1.9378,1.9484,1.9613,1.9776,2.002,1.9911,1.9983,2.0095,1.9903,1.9485,1.9276,1.9276,1.8858,1.802,1.7811,1.7601,1.6978,1.6978,1.6978,1.6978,1.6978,1.6978,1.6978,1.7026,1.7093,1.7188,1.7297,1.7399,1.75,1.765,1.7717,1.7717,1.7812,1.786,1.786,1.786,1.7901,1.7948,1.8111,1.8199,1.8267,1.8969,1.9073,1.862,1.9184,1.9219,1.8762,1.8762,1.8762,1.8762,1.8762,1.8762,1.8762,0.0,0.0,0.0,0.0,0.0,0.0,0.0,0.0,0.0,0.0,0.0,0.0,0.0,0.0,0.0,0.0,0.0,0.0,1.6048,1.6048,1.6194,1.6535,1.6568,1.6567,1.637,1.6745,1.6585,1.5704,1.6585,1.6753,1.6401,1.6761,1.7112,1.7112,1.7112,1.7112,1.7112,1.7112,1.7112,1.7128,1.7323,1.7494,1.7483,1.7676,1.803,1.7989,1.7624,1.7803,1.8176,1.8176,1.8176,1.8208,1.8403,1.8696,1.8972,1.8988,1.9118,1.9256,1.9256,1.9256,1.9256,1.9256,1.9386,1.9516,1.9524,1.9808,2.0068,2.0076,1.9799,1.9493,1.9493,1.9067,1.8641,1.8641,1.8641,1.8432,1.7811,1.7811,1.7601,1.6978,1.6978,1.6978,1.6978,1.6978,1.6985,1.6992,1.7114,1.7202,1.7216,1.7494,1.765,1.7663,1.7792,1.786,1.786,1.786,1.786,1.786,1.786,1.7948,1.8091,1.8247,1.8409,1.8531,1.8694,1.8762,1.8762,1.8762,1.8762,1.8762,1.8762,1.8762,1.8762,1.8762,1.8762,1.8762,0.0,0.0,0.0,0.0,0.0,0.0,0.0,0.0,0.0,0.0,0.0,0.0,0.0,0.0,0.0,0.0,0.0,0.0,1.6048,1.6048,1.6089,1.6178,1.6092,1.6105,1.6019,1.6102,1.5881,1.5704,1.5881,1.6057,1.5881,1.6057,1.6057,1.6057,1.6057,1.6057,1.6057,1.6057,1.6057,1.608,1.6377,1.6522,1.6583,1.688,1.7017,1.7055,1.725,1.7437,1.7616,1.7616,1.7803,1.8233,1.8558,1.872,1.8842,1.911,1.9224,1.9256,1.9256,1.9256,1.9256,1.9256,1.9386,1.9549,1.9687,1.9898,2.0101,1.9607,1.967,1.9284,1.8858,1.8641,1.8432,1.802,1.802,1.7811,1.7188,1.7188,1.7188,1.6978,1.6978,1.6978,1.6978,1.6978,1.7026,1.7127,1.7168,1.729,1.7521,1.7609,1.7704,1.7812,1.7846,1.786,1.786,1.786,1.786,1.786,1.7989,1.8057,1.8091,1.8355,1.8498,1.8531,1.915,1.9219,1.8762,1.9226,1.9219,1.8762,1.8762,1.8762,1.8762,1.8762,1.8762,1.8762,0.0,0.0,0.0,0.0,0.0,0.0,0.0,0.0,0.0,0.0,0.0,0.0,0.0,0.0,0.0,0.0,0.0,0.0,0.0,1.6048,1.6081,1.6154,1.6181,1.6018,1.5653,1.5851,1.563,1.5006,1.5528,1.5528,1.5352,1.5528,1.5704,1.5704,1.5704,1.5704,1.5704,1.5704,1.5704,0.0,0.0,1.6189,1.6226,1.6554,1.6681,1.6681,1.6681,1.6868,1.7055,1.725,1.7858,1.8347,1.8631,1.8777,1.8891,1.9175,1.9256,1.9256,1.9256,1.9256,1.9272,1.9354,1.95,1.9687,1.9865,1.9846,1.9791,1.9469,1.9075,1.8649,1.8222,1.802,1.7811,1.7398,1.7398,1.7398,1.6978,1.6978,1.6978,1.6978,1.6978,1.6978,1.6978,1.7039,1.7134,1.7283,1.729,1.7399,1.7629,1.7704,1.7772,1.786,1.6969,1.585,1.473,1.4747,1.4747,1.4747,1.4859,1.541,1.659,1.6819,1.7633,1.864,1.9184,1.9219,1.8762,1.9219,1.9219,1.8762,1.8762,1.8762,1.8762,1.8762,1.8762,1.8762,0.0,0.0,0.0,0.0,0.0,0.0,0.0,0.0,0.0,0.0,0.0,0.0,0.0,0.0,0.0,0.0,0.0,0.0,0.0,0.0,1.6113,1.6259,1.6292,1.5939,1.5384,1.5782,1.5533,1.4272,1.5168,1.5352,1.4999,1.5352,1.5528,1.5528,1.5528,1.5528,1.5528,1.5528,1.5528,1.5558,1.5882,1.6007,1.6044,0.0,1.6494,1.6494,1.6126,1.6306,1.6868,1.7242,1.7922,1.8485,1.8671,1.8842,1.9021,1.9207,1.9256,1.9256,1.9256,1.9256,1.9297,1.9467,1.9654,1.9841,2.002,1.9783,1.9493,1.9284,1.8439,1.7811,1.7811,1.7398,1.6978,1.6978,1.6978,1.6978,1.6978,1.6978,1.6978,1.6978,1.6978,1.6978,1.6978,1.7107,1.7256,1.7405,1.7439,1.7514,1.767,1.7792,1.786,1.7424,1.5179,1.2738,1.073,1.073,1.073,1.073,1.0837,1.2055,1.4196,1.4552,1.608,1.8298,1.8755,1.8762,1.8762,1.8762,1.8762,1.8762,1.8762,1.8762,1.8762,1.8762,1.8762,1.8762,0.0,0.0,0.0,0.0,0.0,0.0,0.0,0.0,0.0,0.0,2.6386,0.0,0.0,0.0,0.0,0.0,0.0,0.0,0.0,0.0,0.0,1.6089,1.5902,1.5669,1.5563,1.5489,1.5292,1.4632,1.4935,1.4822,1.4476,1.4476,1.4476,1.4476,1.4476,1.4476,1.4476,1.4476,1.4476,1.4503,1.4798,1.4922,1.4956,1.5252,1.5368,0.0,1.5751,1.6501,1.725,1.7437,1.7922,1.8485,1.8671,1.8842,1.9021,1.9207,1.9256,1.9256,1.9256,1.9256,1.9297,1.9467,1.9654,1.9629,1.9395,1.9368,1.9284,1.823,1.802,1.7601,1.7188,1.6978,1.6978,1.6978,1.6978,1.6978,1.6978,1.6978,1.6978,1.6978,1.6978,1.6978,1.6978,1.7107,1.7256,1.7405,1.7541,1.767,1.7812,1.7846,1.6969,1.4958,1.2511,1.118,1.073,1.073,1.073,1.073,1.0898,1.1203,1.1689,1.394,1.5221,1.5709,1.7826,1.8762,1.8762,1.8762,1.8762,1.8762,1.8762,1.8762,1.8762,1.8762,1.8762,1.8762,0.0,0.0,0.0,0.0,0.0,0.0,0.0,0.0,0.0,2.6544,2.6386,2.607,0.0,0.0,0.0,0.0,0.0,0.0,0.0,0.0,0.0,1.6048,1.5964,1.5719,1.5638,1.5293,1.49,1.4643,0.0,1.4352,1.4183,1.4265,1.4299,1.4299,1.4299,1.4299,1.4299,1.4299,1.4299,1.4326,1.4624,1.474,1.4774,1.5072,1.5181,0.0,1.5368,1.5938,1.6688,1.6868,1.7608,1.8224,1.8504,1.8842,1.9021,1.9207,1.9256,1.9256,1.9256,1.9256,1.9321,1.9589,1.9727,1.9653,1.9513,1.9214,1.8858,1.802,1.7601,1.7398,1.6978,1.6978,1.6978,1.6978,1.6978,1.6978,1.6978,1.6978,1.6978,1.6978,1.6978,1.6978,1.6978,1.6105,1.5392,1.5458,1.4545,1.4674,1.585,1.4736,1.295,1.073,0.9393,0.8284,0.6943,0.6943,0.6943,0.6943,0.7025,0.7767,0.9168,1.0441,1.2617,1.501,1.6186,1.7581,1.8762,1.8762,1.8762,1.8762,1.8762,1.8762,1.8762,1.8762,1.8762,1.8762,0.0,0.0,0.0,0.0,0.0,0.0,0.0,2.9928,2.8232,2.6544,2.6386,2.6386,2.6386,2.5104,2.3484,0.0,0.0,0.0,0.0,0.0,0.0,0.0,0.0,0.0,1.575,0.0,0.0,1.465,1.447,0.0,0.0,0.0,0.0,0.0,1.4299,1.4299,1.4299,1.4299,1.4299,0.0,0.0,1.4713,1.4774,0.0,0.0,0.0,0.0,1.5563,1.5938,1.6306,1.7087,1.7951,1.8336,1.8681,1.9069,1.9216,1.9256,1.9256,1.9256,1.9256,1.9345,1.9703,1.9792,1.9677,1.9407,1.885,1.8432,1.7811,1.7188,1.6978,1.6978,1.6978,1.6978,1.6978,1.6978,1.6978,1.6978,1.6978,1.6978,1.6978,1.6978,1.6768,1.6341,1.4874,1.3723,1.3068,1.1074,1.0957,1.3404,1.1172,0.9174,0.7169,0.6719,0.5601,0.3589,0.3589,0.3589,0.3589,0.3621,0.4558,0.6658,0.7172,1.0019,1.4311,1.4772,1.6407,1.8762,1.8762,1.8762,1.8762,1.8762,1.8762,1.8762,1.8762,1.8762,1.8762,0.0,0.0,0.0,0.0,0.0,0.0,0.0,2.9928,2.8232,2.6544,2.6386,2.6386,2.6386,2.6228,2.4773,0.0,0.0,0.0,0.0,0.0,0.0,0.0,0.0,0.0,0.0,0.0,0.0,1.4821,1.499,0.0,0.0,0.0,0.0,0.0,0.0,1.4299,1.4299,1.4299,0.0,0.0,0.0,0.0,0.0,0.0,0.0,0.0,0.0,1.5563,1.5938,1.5938,1.6904,1.7951,1.7566,1.8177,1.924,1.9256,1.9256,1.9256,1.9256,1.9256,1.9345,1.9703,1.9792,1.9677,1.8775,1.8641,1.8222,1.7188,1.6978,1.6978,1.6978,1.6978,1.6978,1.6978,1.6978,1.6978,1.6978,1.6978,1.6978,1.6978,1.6978,1.6131,1.4212,1.3798,1.3068,1.0895,0.8862,0.8501,1.0957,0.8727,0.7393,0.7166,0.5157,0.3815,0.3589,0.3589,0.3589,0.3589,0.3621,0.3649,0.4141,0.6484,0.9092,1.1729,1.4072,1.6407,1.8762,1.8762,1.8762,1.8762,1.8762,1.8762,1.8762,1.8762,1.8762,1.8762,0.0,0.0,0.0,0.0,0.0,0.0,0.0,3.0685,2.9464,2.6702,2.6386,2.6386,2.6386,2.6386,2.5422,0.0,0.0,0.0,0.0,0.0,0.0,0.0,0.0,0.0,0.0,0.0,1.5648,1.515,1.4813,0.0,0.0,0.0,0.0,0.0,0.0,1.4299,1.4299,1.4299,0.0,0.0,0.0,0.0,0.0,0.0,0.0,0.0,0.0,0.0,1.5556,1.6119,1.6707,1.7173,1.7558,1.7989,1.8465,1.8655,1.9058,1.9256,1.9256,1.9256,1.9345,1.9703,1.9589,1.9269,1.8775,1.8432,1.7811,1.7188,1.6978,1.6978,1.6978,1.6978,1.6978,1.6978,1.6978,1.6978,1.6978,1.6978,1.6978,1.6978,1.5704,1.4639,1.3785,1.1214,0.8756,0.6424,0.5579,0.5377,0.6269,0.5601,0.4933,0.4933,0.4039,0.3589,0.3589,0.3589,0.3589,0.3589,0.3604,0.3625,0.3652,0.4832,0.6489,0.9102,1.1707,1.4311,1.6645,1.8065,1.8762,1.8762,1.8762,1.8762,1.8762,1.8762,1.8762,1.8762,0.0,0.0,0.0,0.0,0.0,0.0,3.1759,3.13,3.0068,2.6847,2.6386,2.6386,2.6386,2.6386,2.5911,2.4614,0.0,0.0,0.0,0.0,0.0,0.0,0.0,0.0,0.0,0.0,1.5546,1.5381,1.4832,1.4579,0.0,0.0,1.4201,1.4082,0.0,0.0,0.0,0.0,0.0,0.0,0.0,0.0,0.0,0.0,0.0,0.0,0.0,0.0,0.0,0.0,0.0,1.6529,1.735,1.7561,1.7803,1.8244,1.8853,1.9058,1.9256,1.9256,1.9345,1.9703,1.9386,1.8868,1.8567,1.8222,1.7601,1.7188,1.6978,1.6978,1.6978,1.6978,1.6978,1.6978,1.6978,1.6978,1.6978,1.6978,1.6978,1.6978,1.5493,1.4002,1.2731,0.8637,0.5283,0.3811,0.3589,0.3589,0.3589,0.3589,0.3589,0.3589,0.3589,0.3589,0.3589,0.3589,0.3589,0.3589,0.3589,0.3607,0.3636,0.3656,0.5058,0.7637,1.0262,1.2631,1.5188,1.7801,1.8762,1.8762,1.8762,1.8762,1.8762,1.8762,1.8762,1.8762,0.0,0.0,0.0,0.0,0.0,0.0,0.0,3.13,3.0068,2.6847,2.6386,2.6386,2.6386,2.6386,2.6386,2.6386,0.0,0.0,0.0,0.0,0.0,0.0,0.0,0.0,0.0,0.0,1.5875,1.5381,1.5381,1.4969,1.4294,1.4458,1.427,1.4082,0.0,0.0,0.0,0.0,0.0,0.0,0.0,0.0,1.4774,0.0,0.0,0.0,0.0,0.0,0.0,0.0,0.0,0.0,0.0,1.7292,1.7644,1.8205,1.8457,1.8655,1.9256,1.9256,1.9345,1.9703,1.9386,1.8868,1.8567,1.8222,1.7601,1.7188,1.6978,1.6978,1.6978,1.6978,1.6978,1.6978,1.6978,1.6978,1.6978,1.6978,1.6978,1.6978,1.6978,1.5283,1.0619,0.6271,0.3527,0.3587,0.3589,0.3589,0.3589,0.3589,0.3589,0.3589,0.3589,0.3589,0.3589,0.3589,0.3589,0.3589,0.3589,0.3607,0.3636,0.3636,0.5015,0.7573,1.0176,1.2756,1.5308,1.7768,1.8762,1.8762,1.8762,1.8762,1.8762,1.8762,1.8762,1.8762,0.0,0.0,0.0,0.0,0.0,0.0,0.0,3.13,3.0068,2.6847,2.6386,2.6386,2.6386,2.6386,2.6386,2.6386,0.0,0.0,0.0,0.0,0.0,0.0,0.0,0.0,0.0,0.0,1.5883,1.5875,1.5546,1.5247,1.4969,1.463,1.4451,1.4442,1.4249,1.4204,0.0,0.0,0.0,0.0,0.0,1.474,1.4774,0.0,0.0,0.0,0.0,0.0,0.0,0.0,0.0,0.0,0.0,0.0,0.0,1.8008,1.8259,1.8061,1.8655,1.8465,1.8313,1.8536,1.8075,1.7807,1.7804,1.7524,1.7188,1.6978,1.6978,1.6978,1.6978,1.6978,1.6978,1.6978,1.6978,1.6978,1.6978,1.5704,1.4639,1.4639,1.1887,0.8943,0.6012,0.4347,0.3516,0.3555,0.358,0.3589,0.3589,0.3589,0.3589,0.3589,0.3589,0.3589,0.3589,0.3589,0.3589,0.3589,0.3589,0.3594,0.3604,0.3625,0.4095,0.5015,0.7573,1.0157,1.2525,1.5105,1.7261,1.8762,1.8762,1.8762,1.8762,1.8762,1.8762,1.8762,0.0,0.0,0.0,0.0,0.0,0.0,0.0,3.13,3.0068,2.6847,2.6386,2.6386,2.6386,2.6386,2.6386,2.6386,0.0,0.0,0.0,0.0,0.0,0.0,0.0,0.0,0.0,1.6048,1.6048,1.6048,1.5711,1.5546,1.5389,1.5059,1.4718,1.4536,1.4347,1.4331,0.0,0.0,0.0,0.0,1.4624,1.474,1.4774,0.0,0.0,0.0,0.0,0.0,0.0,0.0,0.0,0.0,0.0,0.0,0.0,0.0,1.8061,1.7466,1.8259,1.8259,1.7901,1.7866,1.7581,1.7312,1.7526,1.7238,1.691,1.6971,1.6978,1.6978,1.6978,1.6978,1.6978,1.6978,1.6978,1.6768,1.5914,1.4429,1.3364,1.252,0.9133,0.6192,0.4959,0.3906,0.3502,0.354,0.3562,0.358,0.3589,0.3589,0.3589,0.3589,0.3589,0.3589,0.3589,0.3589,0.3589,0.3589,0.3589,0.3589,0.3589,0.3611,0.3618,0.3844,0.6372,0.8241,0.0,1.3359,1.5987,1.7518,1.8429,1.8708,1.8762,1.8762,1.8762,1.8762,0.0,0.0,0.0,0.0,0.0,0.0,0.0,0.0,0.0,0.0,2.6386,2.6386,2.6386,2.6386,2.6386,0.0,0.0,0.0,0.0,0.0,0.0,0.0,0.0,0.0,0.0,1.6048,1.6048,1.6048,1.6048,1.5875,1.5389,1.5552,1.5217,1.4536,1.4686,1.45,0.0,0.0,0.0,0.0,1.4611,1.4726,0.0,0.0,0.0,0.0,0.0,0.0,0.0,0.0,0.0,0.0,0.0,0.0,0.0,0.0,0.0,0.0,0.0,1.8457,1.829,1.7851,1.7494,1.7184,1.7483,1.7155,0.0,1.6951,1.6978,1.6978,1.6978,1.6978,1.6978,1.6768,1.6768,1.5914,1.358,1.3153,1.2309,0.9984,0.7865,0.6613,0.6453,0.4747,0.348,0.3534,0.354,0.3558,0.3587,0.3589,0.3589,0.3589,0.3589,0.3589,0.3589,0.3589,0.3589,0.3589,0.3589,0.3589,0.3589,0.3589,0.3589,0.3814,0.6099,0.7251,0.7706,1.2309,1.4483,1.5044,1.7135,1.8145,1.8503,1.8523,1.8523,1.8523,0.0,0.0,0.0,0.0,0.0,0.0,0.0,0.0,0.0,0.0,2.6386,2.6386,2.6386,2.6386,2.6386,0.0,0.0,0.0,0.0,0.0,0.0,0.0,0.0,0.0,0.0,1.6048,1.6048,1.6048,1.6048,1.5883,1.5883,1.5593,1.5439,1.5554,1.4907,1.4395,0.0,0.0,0.0,0.0,1.4496,1.4631,0.0,0.0,0.0,0.0,1.5181,1.5181,0.0,0.0,0.0,0.0,0.0,0.0,0.0,0.0,1.8061,1.7466,1.7268,0.0,1.6686,1.6522,1.6419,1.6556,0.0,1.6666,1.6795,1.6951,1.6978,1.6978,1.6978,1.6978,1.6341,1.4639,1.4429,1.358,1.1253,0.9557,0.7653,0.5324,0.4474,0.4265,0.4273,0.3872,0.3463,0.3476,0.352,0.3549,0.3555,0.3576,0.3589,0.3589,0.3589,0.3589,0.3589,0.3589,0.3589,0.3589,0.3589,0.3589,0.3589,0.3589,0.3589,0.3589,0.4267,0.5639,0.748,0.8624,1.0261,1.2181,1.2718,1.415,1.5814,1.5918,1.6884,1.782,0.0,0.0,0.0,0.0,0.0,0.0,0.0,0.0,0.0,0.0,0.0,0.0,0.0,0.0,0.0,0.0,0.0,0.0,0.0,0.0,0.0,0.0,0.0,0.0,1.6048,1.6048,1.6048,1.6048,1.6048,1.6048,1.6048,1.5719,1.5735,1.5895,1.5369,0.0,0.0,0.0,0.0,1.4659,1.4455,0.0,0.0,0.0,0.0,0.0,1.5375,1.5556,0.0,1.6119,1.6501,1.6733,0.0,0.0,0.0,0.0,1.8197,1.7863,1.7466,1.6871,1.6474,1.6083,1.6144,1.6259,1.6476,1.6585,1.6707,1.6937,1.6978,1.6978,1.6978,1.6131,1.506,1.3791,1.2731,1.1253,0.8921,0.6594,0.4685,0.3624,0.3412,0.3412,0.3412,0.3427,0.3442,0.3456,0.3486,0.3509,0.3524,0.354,0.3551,0.3551,0.3562,0.3576,0.3589,0.3589,0.3589,0.3589,0.3589,0.3589,0.3589,0.3589,0.3589,0.3589,0.3589,0.4272,0.5641,0.6765,0.8152,0.9583,1.0575,1.2019,1.3227,1.2868,1.3596,1.4062,0.0,0.0,0.0,0.0,0.0,0.0,0.0,0.0,0.0,0.0,0.0,0.0,0.0,0.0,0.0,0.0,0.0,0.0,0.0,0.0,0.0,0.0,0.0,1.7983,1.6369,1.6205,1.6048,1.6048,1.6048,1.6048,1.6048,1.6048,1.5902,1.5903,1.5904,0.0,0.0,0.0,1.5168,1.5006,1.4785,0.0,0.0,0.0,0.0,0.0,0.0,0.0,0.0,1.6494,1.7055,1.746,1.7632,0.0,0.0,0.0,0.0,0.0,1.7863,1.7268,1.6871,1.6275,1.6282,1.6357,1.6456,1.6524,1.6605,1.6917,1.6978,1.6978,1.6551,1.485,1.3364,1.2731,1.0614,0.8501,0.6594,0.4685,0.3412,0.3412,0.3412,0.3412,0.3412,0.3412,0.3423,0.3449,0.3454,0.3468,0.3495,0.3499,0.3502,0.3502,0.3527,0.3551,0.3576,0.3587,0.3589,0.3589,0.3589,0.3589,0.3589,0.3589,0.3589,0.3589,0.3589,0.3589,0.3814,0.5826,0.6745,0.7017,0.9124,1.0109,1.043,0.9804,0.984,0.9858,0.0,0.0,0.0,0.0,0.0,0.0,0.0,0.0,0.0,0.0,0.0,0.0,0.0,0.0,0.0,0.0,0.0,0.0,0.0,0.0,0.0,0.0,2.0241,1.8463,1.8137,1.6689,1.6048,1.6048,1.6048,1.6048,1.6048,1.6048,1.5902,1.5903,1.6245,1.6049,1.5528,0.0,1.5528,1.5528,1.502,0.0,0.0,0.0,0.0,0.0,0.0,0.0,0.0,1.6494,1.7055,1.746,1.7632,0.0,0.0,0.0,0.0,0.0,1.7863,1.7268,1.6864,1.6871,1.6871,1.675,1.6449,1.6524,1.6605,1.6917,1.6978,1.6341,1.4429,1.3791,1.2304,0.8498,0.5959,0.4261,0.4048,0.3624,0.3412,0.3412,0.3412,0.3412,0.3412,0.3412,0.3414,0.3419,0.3442,0.346,0.3464,0.3489,0.3502,0.3502,0.3506,0.3509,0.3516,0.3565,0.3589,0.3589,0.3589,0.3589,0.3589,0.3589,0.3589,0.3589,0.3589,0.3589,0.3589,0.4039,0.4264,0.4272,0.4536,0.5711,0.7125,0.7186,0.7702,0.8218,0.0,0.0,0.0,0.0,0.0,0.0,0.0,0.0,0.0,0.0,0.0,0.0,0.0,0.0,0.0,0.0,0.0,0.0,0.0,0.0,0.0,2.5263,2.2831,2.0888,2.0079,1.9277,1.8309,1.7337,1.7337,1.6854,1.6048,1.6243,1.6253,1.5903,1.6594,1.6577,1.6049,1.6049,1.6049,1.6049,0.0,0.0,0.0,0.0,0.0,0.0,0.0,0.0,0.0,0.0,1.7616,1.7819,1.7898,0.0,0.0,0.0,0.0,0.0,1.8663,1.8465,1.8061,1.7466,1.6871,1.6557,1.6456,1.6524,1.6605,1.6917,1.6978,1.6768,1.5704,1.4429,1.2093,0.7438,0.4898,0.3412,0.3412,0.3412,0.3412,0.3412,0.3412,0.3412,0.3412,0.3412,0.3412,0.3412,0.3425,0.3433,0.3433,0.3446,0.3453,0.3453,0.3469,0.3478,0.3478,0.352,0.354,0.3544,0.3558,0.3565,0.3565,0.3583,0.3589,0.3589,0.3589,0.3589,0.3589,0.3589,0.3365,0.3143,0.3171,0.3415,0.3885,0.3701,0.3737,0.3761,0.0,0.0,0.0,0.0,0.0,0.0,0.0,0.0,0.0,0.0,0.0,0.0,0.0,0.0,0.0,0.0,0.0,0.0,0.0,0.0,2.6386,2.6386,2.5104,2.3644,2.1867,2.1383,2.0575,1.9277,1.8789,1.7656,1.6056,1.6414,1.6406,1.6081,1.6776,1.6928,1.6577,1.6577,1.6577,1.6577,0.0,0.0,0.0,0.0,0.0,0.0,0.0,0.0,0.0,0.0,0.0,0.0,0.0,0.0,0.0,1.8728,1.898,1.9256,1.9256,1.9256,1.8861,1.8061,1.7275,1.6557,1.6456,1.6524,1.6605,1.6917,1.6978,1.6768,1.6341,1.4429,1.146,0.7438,0.5322,0.4048,0.3411,0.3412,0.3412,0.3412,0.3412,0.3412,0.3412,0.3412,0.3412,0.3412,0.3412,0.3412,0.3412,0.3412,0.3412,0.3412,0.3434,0.3446,0.3446,0.3469,0.3489,0.3502,0.3524,0.3534,0.3534,0.3565,0.358,0.358,0.3587,0.3589,0.3365,0.3365,0.3141,0.247,0.2487,0.2045,0.1597,0.0926,0.0468,0.0,0.0,0.0,0.0,0.0,0.0,0.0,0.0,0.0,0.0,0.0,0.0,0.0,0.0,0.0,0.0,0.0,0.0,0.0,0.0,0.0,2.6386,2.6386,2.6228,2.5422,2.3656,2.2028,2.1222,2.106,1.943,1.7656,1.6056,1.6414,1.6576,1.6592,1.695,1.7112,1.7112,1.7112,1.7112,1.6936,1.6577,0.0,0.0,0.0,0.0,0.0,0.0,0.0,0.0,0.0,0.0,0.0,0.0,0.0,1.8728,1.8728,1.898,1.9256,1.9256,1.8861,1.8457,1.8457,1.8061,1.7355,1.6659,1.6524,1.6605,1.6917,1.6978,1.6341,1.4212,1.1887,0.9557,0.7228,0.6592,0.5744,0.3624,0.3412,0.3412,0.3412,0.3412,0.3412,0.3412,0.3412,0.3412,0.3412,0.3412,0.3412,0.3412,0.3412,0.3412,0.3412,0.3414,0.3415,0.3415,0.3418,0.3446,0.3502,0.3506,0.3506,0.3506,0.3534,0.3549,0.3549,0.3576,0.3365,0.2692,0.2692,0.2467,0.1796,0.1798,0.1587,0.092,0.0232,0.0,0.0,0.0,0.0,0.0,0.0,0.0,0.0,0.0,0.0,0.0,0.0,0.0,0.0,0.0,0.0,0.0,0.0,0.0,0.0,0.0,2.6386,2.6386,2.6386,2.6386,2.607,2.5422,2.4773,2.3964,2.2843,1.9917,1.8365,1.7853,1.6961,1.6641,1.6763,1.6998,1.7112,1.7112,1.7112,1.7112,1.7112,1.6577,1.6782,0.0,0.0,0.0,0.0,0.0,0.0,0.0,0.0,1.8176,1.8176,1.8176,1.8347,1.8574,1.8688,1.8899,1.911,1.9224,1.8861,1.8457,1.8457,1.7938,1.7278,1.7087,1.6932,1.7023,1.6917,1.6978,1.6768,1.5914,1.3791,1.2098,1.1249,0.9768,0.8077,0.5744,0.5534,0.4898,0.3624,0.3412,0.3412,0.3412,0.3412,0.3412,0.3412,0.3412,0.3412,0.3412,0.3412,0.3412,0.3412,0.3412,0.3412,0.3412,0.3412,0.3423,0.3446,0.3465,0.3475,0.3475,0.3506,0.33,0.286,0.2886,0.2674,0.2227,0.2239,0.1796,0.1122,0.0898,0.0453,0.023,0.0,0.0,0.0,0.0,0.0,0.0,0.0,0.0,0.0,0.0,0.0,0.0,0.0,0.0,0.0,0.0,0.0,0.0,0.0,0.0,0.0,2.6386,2.6386,2.6386,2.6386,2.6386,2.6386,2.6386,2.6386,2.5753,2.4614,2.105,1.9221,1.8947,1.7332,1.6682,1.686,1.7031,1.7112,1.7112,1.7112,1.7112,1.7112,1.6753,1.6967,0.0,0.0,0.0,0.0,0.0,0.0,0.0,0.0,1.8176,1.8176,1.8176,1.8306,1.8485,1.8671,1.885,1.9021,1.9207,1.8861,1.8457,1.8457,1.7946,1.7278,1.7234,1.7144,1.7071,1.6863,1.6944,1.6978,1.6978,1.5704,1.4429,1.3791,1.2309,1.0403,0.8286,0.7228,0.6169,0.4685,0.3837,0.3412,0.3412,0.3412,0.3412,0.3412,0.3412,0.3412,0.3412,0.3412,0.3412,0.3412,0.3412,0.3412,0.3412,0.3412,0.3412,0.3199,0.3218,0.3227,0.3228,0.3257,0.2834,0.2399,0.2419,0.1989,0.1552,0.1561,0.112,0.0673,0.0224,0.0,0.0,0.0,-0.0232,-0.0235,0.0,0.0,0.0,0.0,0.0,0.0,0.0,0.0,0.0,0.0,0.0,0.0,0.0,0.0,0.0,0.0,0.0,0.0,2.6386,2.6386,2.6386,2.6386,2.6386,2.6386,2.6386,2.6386,2.6386,2.6386,2.2831,2.0364,1.8957,1.7332,1.6682,1.686,1.7031,1.7112,1.7112,1.7112,1.7112,1.7112,1.7112,1.7323,1.764,0.0,0.0,0.0,0.0,0.0,0.0,0.0,1.8176,1.8176,1.8176,1.8298,1.8485,1.8671,1.8842,1.9021,1.9207,1.8861,1.8457,1.8457,1.8061,1.7518,1.7271,1.6939,1.6748,1.6754,1.6876,1.6978,1.6978,1.6978,1.6341,1.4002,1.3575,1.2942,1.0619,0.8289,0.6804,0.6804,0.4685,0.3412,0.3412,0.3412,0.3412,0.3412,0.3412,0.3412,0.3412,0.3412,0.3412,0.3412,0.3412,0.3412,0.3412,0.3412,0.3198,0.2558,0.2558,0.2558,0.2559,0.2582,0.2376,0.1729,0.1744,0.154,0.0887,0.0887,0.0446,0.0,0.0,0.0,0.0,0.0,-0.0463,-0.0932,0.0,0.0,0.0,0.0,0.0,0.0,0.0,0.0,0.0,0.0,0.0,0.0,0.0,0.0,0.0,0.0,0.0,0.0,2.6386,2.6386,2.6386,2.6386,2.6386,2.6386,2.6386,2.6386,2.6386,2.6386,2.3017,2.127,2.0827,1.8031,1.6868,1.7039,1.7088,1.7112,1.7112,1.7112,1.7112,1.7112,1.7112,1.7323,1.764,0.0,0.0,0.0,0.0,0.0,0.0,0.0,0.0,0.0,1.8176,1.8217,1.8322,1.8631,1.8761,1.8866,1.9175,1.8663,1.8061,1.8457,1.7555,1.6827,1.6956,1.6982,1.7064,1.687,1.6951,1.6978,1.6978,1.6978,1.6768,1.6131,1.5914,1.5277,1.2942,1.0614,0.8501,0.7016,0.4685,0.3412,0.3412,0.3412,0.3412,0.3412,0.3412,0.3412,0.3412,0.3412,0.3412,0.3412,0.3412,0.3198,0.2772,0.2772,0.2558,0.1919,0.1919,0.1919,0.1919,0.1924,0.1712,0.107,0.108,0.0869,0.0218,0.0221,0.0223,0.0,-0.0449,-0.0677,-0.0683,-0.1147,-0.2539,-0.4185,0.0,0.0,0.0,0.0,0.0,0.0,0.0,0.0,0.0,0.0,2.686,2.6386,0.0,0.0,0.0,0.0,0.0,0.0,0.0,2.6386,2.6386,2.6386,2.6386,2.644,2.656,2.656,2.6613,2.6734,2.4016,2.274,2.3078,1.9514,1.7975,1.8147,1.7455,1.7112,1.7112,1.7112,1.7112,1.7112,1.7112,1.7323,1.764,0.0,0.0,0.0,0.0,0.0,0.0,0.0,0.0,0.0,1.8176,1.8176,1.8233,1.8525,1.8423,1.8304,1.8858,1.8167,1.7393,1.7848,1.6942,1.6212,1.6578,1.6759,1.7009,1.6836,1.6937,1.6978,1.6978,1.6978,1.6978,1.6978,1.6978,1.6551,1.5066,1.2309,0.9772,0.8289,0.5322,0.3412,0.3412,0.3412,0.3412,0.3412,0.3412,0.3412,0.3412,0.3198,0.2985,0.2985,0.2772,0.2558,0.2345,0.2345,0.1919,0.1279,0.1279,0.1279,0.1066,0.1279,0.1066,0.064,0.0646,0.0433,0.0,-0.022,-0.0891,-0.1793,-0.2465,-0.3147,-0.4067,-0.4572,-0.575,-0.7398,0.0,0.0,0.0,0.0,0.0,0.0,0.0,0.0,0.0,0.0,2.7619,2.6544,0.0,0.0,0.0,0.0,0.0,0.0,0.0,0.0,2.6386,2.6386,2.6413,2.656,2.6854,2.6867,2.7001,2.7308,2.5225,2.4516,2.4987,2.1459,1.9866,1.9873,1.8147,1.7279,1.7112,1.7112,1.7112,1.7112,1.7112,1.7315,1.7616,1.7632,0.0,0.0,0.0,0.0,0.0,0.0,0.0,0.0,1.8176,1.8176,1.8208,1.8395,1.8065,1.7756,1.8114,1.7426,1.6679,1.6828,1.6474,1.6117,1.6259,1.6402,1.6544,1.67,1.6849,1.6958,1.6958,1.6971,1.6978,1.6978,1.6978,1.6978,1.6978,1.3158,1.0407,1.0196,0.6382,0.3624,0.3412,0.3412,0.3412,0.3412,0.3412,0.3199,0.3199,0.2772,0.2558,0.2558,0.1919,0.1705,0.1705,0.1705,0.1279,0.0853,0.0853,0.0426,-0.0213,0.0426,0.0426,-0.0426,-0.043,-0.0433,-0.0874,-0.1323,-0.2888,-0.4918,-0.559,-0.7153,-0.895,-0.9338,-0.9843,-1.0551,0.0,0.0,0.0,0.0,0.0,0.0,0.0,0.0,0.0,0.0,0.0,0.0,0.0,0.0,0.0,0.0,0.0,0.0,0.0,0.0,2.6386,2.6386,2.66,2.6867,2.7161,2.7175,2.7308,2.7602,2.5687,2.4878,2.4987,2.2972,2.1201,1.9873,1.9525,1.8497,1.7112,1.7112,1.7112,1.7112,1.7112,1.7242,1.7453,1.7591,1.7778,0.0,0.0,0.0,0.0,0.0,0.0,0.0,1.8176,1.8176,1.8208,1.8395,1.8065,1.7756,1.8114,1.7426,1.6679,1.6828,1.6474,1.609,1.6123,1.6246,1.6395,1.6537,1.6693,1.6802,1.6802,1.6897,1.6978,1.6978,1.6978,1.6978,1.6978,1.4639,1.2098,1.0407,0.7653,0.5322,0.3624,0.3412,0.3198,0.2772,0.2772,0.2558,0.2132,0.1919,0.1919,0.1919,0.1706,0.1492,0.1066,0.1066,0.0853,0.0213,0.0213,-0.0852,-0.2554,-0.0639,-0.1065,-0.3191,-0.3198,-0.4499,-0.6692,-0.697,-0.7249,-0.7965,-0.8468,-0.9167,-0.9627,-1.0473,-1.1908,-1.3756,0.0,0.0,0.0,0.0,0.0,0.0,0.0,0.0,0.0,0.0,0.0,0.0,0.0,0.0,0.0,0.0,0.0,0.0,0.0,0.0,2.6667,2.68,2.6947,2.7175,2.7468,2.7468,2.7615,2.7909,2.7058,2.6541,2.6541,2.4802,2.2966,2.1078,2.0221,1.8837,1.7112,1.7112,1.7112,1.7112,1.7112,1.7218,1.7396,1.7486,1.7689,1.7924,1.8022,0.0,0.0,0.0,0.0,0.0,0.0,0.0,1.8192,1.829,1.7938,1.7624,1.7505,1.6995,1.6465,1.6504,1.622,1.6083,1.6083,1.6144,1.6225,1.6293,1.6483,1.6639,1.6639,1.6768,1.6849,1.6775,1.6883,1.6951,1.6883,1.5024,1.2731,1.0407,0.8289,0.5744,0.3198,0.2974,0.2754,0.2118,0.211,0.2105,0.1684,0.1473,0.1263,0.1263,0.1057,0.0848,0.0424,0.0425,-0.0213,-0.1704,-0.1704,-0.2979,-0.5313,-0.4251,-0.4464,-0.5947,-0.616,-0.7042,-0.8607,-0.8898,-0.9848,-1.1027,-1.1577,-1.2723,-1.3642,-1.4274,-1.5282,-1.6505,0.0,0.0,0.0,0.0,0.0,0.0,0.0,0.0,0.0,0.0,0.0,0.0,0.0,0.0,0.0,0.0,0.0,0.0,0.0,0.0,0.0,2.7321,2.7348,2.7482,2.7762,2.7776,2.7896,2.8136,2.8136,2.8136,2.8136,2.6588,2.4861,2.2966,2.1251,1.9351,1.763,1.7288,1.7112,1.7112,1.7112,1.7201,1.7339,0.0,0.0,1.7835,1.7859,1.7981,1.8127,1.8127,0.0,0.0,0.0,0.0,1.8176,1.8176,1.7803,1.7281,1.7079,1.6569,1.6081,1.598,1.5947,1.6049,1.6076,1.6083,1.6083,1.6083,1.6293,1.6483,1.6483,1.6612,1.6666,1.6544,1.6734,1.6647,1.6106,1.4505,1.246,0.9725,0.7616,0.5505,0.2758,0.253,0.2099,0.1679,0.1459,0.1453,0.1453,0.1038,0.0831,0.0831,0.0209,-0.021,-0.063,-0.0635,-0.17,-0.4032,-0.4464,-0.595,-0.8279,-0.8914,-0.8911,-0.8487,-0.8911,-0.9583,-1.0084,-1.0603,-1.2008,-1.4097,-1.4658,-1.6059,-1.788,-1.8036,-1.8199,-1.8335,0.0,0.0,0.0,0.0,0.0,0.0,0.0,0.0,0.0,0.0,3.2065,0.0,0.0,0.0,0.0,0.0,0.0,0.0,2.7188,0.0,0.0,2.7629,2.7642,2.7776,2.8083,2.8083,2.8096,2.8136,2.8136,2.8136,2.8136,2.7968,2.6758,2.4861,2.3137,2.1251,1.9351,1.7805,1.7112,1.7112,1.7112,1.7128,0.0,0.0,0.0,0.0,1.7624,1.7794,1.7949,1.7949,1.8054,0.0,0.0,0.0,1.8176,1.8176,1.7803,1.7281,1.7079,1.6273,1.5649,1.5811,1.5866,1.592,1.6049,1.6083,1.6083,1.6083,1.6218,1.6341,1.6341,1.6456,1.6544,1.6524,1.6558,1.5956,1.4077,1.3048,1.1194,0.7063,0.5819,0.4365,0.2083,0.1872,0.1663,0.104,0.1039,0.0831,0.0208,0.0208,0.0208,0.0208,0.0,-0.0832,-0.2698,-0.2932,-0.3995,-0.6305,-0.8675,-1.0403,-1.146,-1.3791,-1.3785,-1.2084,-1.2084,-1.358,-1.5952,-1.6086,-1.644,-1.6811,-1.718,-1.7525,-1.788,-1.8036,-1.8199,-1.8335,0.0,0.0,0.0,0.0,0.0,0.0,0.0,0.0,0.0,0.0,0.0,3.0763,0.0,0.0,0.0,2.7041,2.7068,2.7188,2.7495,2.7669,2.7816,2.7949,2.7949,2.8003,2.8136,2.8136,2.8136,2.8136,2.8136,2.8136,2.8136,2.8136,2.7279,0.0,0.0,0.0,0.0,1.7972,1.7112,1.7112,1.7112,1.7112,0.0,0.0,0.0,0.0,0.0,0.0,1.7762,1.7762,1.7884,1.803,1.803,0.0,0.0,0.0,1.7803,1.7265,1.6582,1.5962,1.5527,1.5588,1.5669,1.575,1.5818,1.5832,1.5859,1.594,1.6008,1.6083,1.6164,1.6098,1.5962,1.5883,1.5602,1.4849,1.2512,1.2149,1.033,0.6002,0.5177,0.4142,0.1453,0.124,0.103,0.0412,0.041,0.0205,0.0,0.0,0.0,0.0,-0.1232,-0.2264,-0.3291,-0.4354,-0.6468,-0.9012,-1.2196,-1.394,-1.4218,-1.5914,-1.5914,-1.4633,-1.506,-1.5908,-1.6992,-1.7134,-1.7283,-1.7439,-1.7589,-1.7738,-1.786,-1.7935,-1.8111,-1.8335,0.0,0.0,0.0,0.0,0.0,0.0,0.0,0.0,0.0,0.0,0.0,0.0,0.0,0.0,0.0,0.0,2.7375,2.7495,2.7789,2.8016,2.8136,2.8136,2.8136,2.8136,2.8136,2.8136,2.8136,2.8136,2.8136,2.8136,2.8136,2.8136,2.7448,0.0,2.4178,2.2277,0.0,0.0,0.0,0.0,0.0,0.0,0.0,0.0,0.0,0.0,0.0,0.0,0.0,1.7575,1.7697,1.7851,1.7851,1.7965,0.0,0.0,0.0,1.7063,1.6126,1.5646,1.5364,1.5398,1.5499,1.5594,1.5628,1.5642,1.5669,1.5582,1.5602,1.5636,1.5552,1.5518,1.5402,1.5093,1.4446,1.3107,1.0978,1.021,0.8413,0.4524,0.3909,0.2882,0.0825,0.0615,0.0408,0.0,0.0,0.0,0.0,0.0,-0.0404,-0.1009,-0.2639,-0.4072,-0.5291,-0.7386,-0.9736,-1.2147,-1.466,-1.5989,-1.6341,-1.6768,-1.6768,-1.6341,-1.6768,-1.6978,-1.6992,-1.7093,-1.7229,-1.7378,-1.7534,-1.7684,-1.7812,-1.8074,-1.8253,-1.8486,0.0,0.0,0.0,0.0,0.0,0.0,0.0,0.0,0.0,0.0,0.0,0.0,0.0,3.0756,2.9129,2.7821,2.7682,2.7802,2.8096,2.8136,2.8136,2.8136,2.8136,0.0,2.8136,2.8136,2.8136,2.8136,2.8136,2.8136,2.8136,2.8136,2.8136,2.7968,2.6066,2.4178,2.2277,0.0,0.0,0.0,0.0,0.0,0.0,0.0,0.0,0.0,0.0,0.0,0.0,0.0,1.751,1.7656,1.7656,1.7778,1.7932,0.0,0.0,0.0,1.6126,1.5563,1.5228,1.5371,1.5418,1.5459,1.5608,1.5642,1.5448,1.5067,1.4874,1.4874,1.4298,1.4909,1.5087,1.4676,1.2879,1.0672,0.8657,0.6042,0.363,0.1213,0.0607,0.0202,0.0,0.0,0.0,0.0,0.0,0.0,0.0,0.0,-0.1211,-0.3624,-0.3827,-0.6241,-1.0868,-1.32,-1.4818,-1.5704,-1.5912,-1.6204,-1.6978,-1.6978,-1.6978,-1.6978,-1.6978,-1.6978,-1.6978,-1.6992,-1.7073,-1.7216,-1.7372,-1.7528,-1.767,-1.8473,-1.885,-1.9014,0.0,0.0,0.0,0.0,0.0,0.0,0.0,0.0,0.0,0.0,0.0,0.0,0.0,3.0129,2.8317,2.813,2.7989,2.803,2.8136,2.8136,2.8136,2.8136,2.8136,2.8136,2.8136,2.8136,2.8136,2.8136,2.8136,2.8136,2.8136,2.8136,2.8136,2.8136,2.6236,2.4349,2.2449,2.0732,0.0,0.0,0.0,0.0,0.0,0.0,0.0,0.0,0.0,0.0,0.0,0.0,0.0,0.0,0.0,1.7599,1.7579,1.7149,1.6554,1.6119,1.5556,1.5368,1.5194,1.5248,1.5262,1.5276,1.5337,1.5154,1.48,1.4706,1.4527,1.4168,1.3673,1.3768,1.4054,1.3941,1.1763,0.9392,0.7239,0.5034,0.2621,0.0606,0.0202,0.0,0.0,-0.0404,-0.0606,-0.0606,-0.0808,-0.1615,-0.3023,-0.3023,-0.4229,-0.6433,-0.8041,-1.0249,-1.3267,-1.4525,-1.5252,-1.5647,-1.6148,-1.6473,-1.6836,-1.6937,-1.6978,-1.6978,-1.7398,-1.7601,-1.7601,-1.7601,-1.7903,-1.8272,-1.8438,-1.8596,-1.8748,-1.9141,-1.9294,-1.967,0.0,0.0,0.0,0.0,0.0,0.0,0.0,0.0,0.0,0.0,0.0,0.0,0.0,0.0,3.0044,2.9118,2.8473,2.8136,2.8136,2.8136,2.8136,2.8136,2.8136,2.8136,2.8136,2.8043,2.8043,2.8136,2.8043,2.8043,2.8136,2.8136,2.8136,2.8136,2.6236,2.4349,0.0,0.0,0.0,1.7112,0.0,0.0,1.7112,0.0,0.0,0.0,0.0,0.0,0.0,0.0,0.0,0.0,0.0,0.0,1.723,1.6308,1.5881,1.5603,1.5286,1.5113,1.512,1.5167,1.4993,1.4993,1.4993,1.4617,1.4077,1.4172,1.381,1.3453,1.2966,1.2983,1.2841,1.2221,1.0076,0.7725,0.558,0.3394,0.1399,0.0,-0.04,-0.06,-0.06,-0.08,-0.1,-0.1,-0.2,-0.3197,-0.4589,-0.54,-0.6814,-0.924,-1.1654,-1.3667,-1.5074,-1.5479,-1.5551,-1.5701,-1.6252,-1.6605,-1.6754,-1.691,-1.7188,-1.7188,-1.7601,-1.7811,-1.7811,-1.802,-1.8288,-1.8827,-1.9058,-1.9208,-1.9327,-1.9762,-1.9921,-2.0248,0.0,0.0,0.0,0.0,0.0,0.0,0.0,0.0,0.0,0.0,0.0,0.0,0.0,0.0,0.0,3.112,2.9132,2.8136,2.8136,2.8136,2.8136,2.8136,2.8136,2.8136,2.8136,2.7856,2.7856,2.8136,2.7856,2.7856,2.8136,2.8136,2.8136,2.7968,2.6236,2.4349,2.2449,0.0,2.0385,1.7112,0.0,1.7112,1.7112,0.0,0.0,0.0,1.7112,1.7112,0.0,1.7112,0.0,0.0,0.0,0.0,0.0,0.0,0.0,1.5497,0.0,0.0,0.0,1.514,1.4798,1.4422,1.4422,1.4052,1.3493,1.2928,1.2928,1.2739,1.2361,1.2172,1.1672,0.9751,0.7628,0.5482,0.3527,0.0785,-0.0785,-0.0785,-0.1178,-0.1571,-0.1571,-0.1571,-0.1571,-0.1571,-0.3529,-0.47,-0.4896,-0.6904,-0.9348,-1.2038,-1.4663,-1.6083,-1.6083,-1.6083,-1.6157,-1.6307,-1.6449,-1.6598,-1.6748,-1.691,-1.7398,-1.7811,-1.7811,-1.7811,-1.7811,-1.8432,-1.8641,-1.8671,-1.9006,-1.914,-1.9185,-2.0162,-2.0513,-2.0757,0.0,0.0,0.0,0.0,0.0,0.0,0.0,0.0,0.0,0.0,0.0,0.0,0.0,0.0,0.0,3.0954,2.9132,2.8136,2.8136,2.8136,2.8136,2.8136,2.8136,2.8136,2.8136,2.8056,2.8056,2.8136,2.8056,2.8056,2.8136,2.8136,2.7448,2.6066,2.5556,2.3652,2.0732,2.0732,1.9351,1.7112,1.7112,1.7112,0.0,0.0,0.0,0.0,0.0,1.7112,1.7112,0.0,1.7112,1.7112,0.0,0.0,0.0,0.0,0.0,0.0,1.4794,0.0,0.0,0.0,0.0,0.0,1.4403,1.3676,1.3116,1.2928,1.255,1.2361,1.2172,1.2172,1.0853,0.7084,0.5977,0.4855,0.2936,0.0392,-0.1374,-0.1374,-0.1374,-0.1571,-0.1571,-0.1767,-0.2748,-0.4117,-0.5291,-0.7049,-1.0162,-1.2417,-1.4078,-1.4915,-1.5618,-1.6083,-1.6083,-1.6083,-1.6103,-1.6151,-1.6402,-1.6544,-1.6592,-1.7273,-1.7601,-1.7811,-1.8649,-1.9067,-1.9067,-1.9276,-1.9485,-1.9919,-2.0157,-2.0316,-2.0452,-2.0899,-2.2143,-2.3574,0.0,0.0,0.0,0.0,0.0,0.0,0.0,0.0,0.0,0.0,0.0,0.0,0.0,0.0,0.0,0.0,2.9132,2.819,2.8323,2.8217,2.8257,2.8511,2.8404,2.8337,2.8337,2.8217,2.8136,2.8136,2.8016,2.8016,2.8136,2.8136,2.7174,2.5542,2.4566,2.2686,1.9996,1.9048,1.8147,1.7112,1.7112,1.7112,1.7112,1.7112,1.7112,1.7112,0.0,0.0,1.7112,1.7112,1.6936,0.0,0.0,0.0,0.0,0.0,0.0,0.0,0.0,0.0,0.0,1.4835,0.0,0.0,1.3933,1.3222,1.2483,1.2539,1.2361,1.1978,1.1028,1.0834,0.9122,0.4753,0.3629,0.2883,0.1161,-0.0776,-0.1746,-0.1746,-0.194,-0.2134,-0.2134,-0.3297,-0.4457,-0.5614,-0.7542,-1.0064,-1.3397,-1.5094,-1.5791,-1.5852,-1.6001,-1.6083,-1.6083,-1.6083,-1.6083,-1.6083,-1.6381,-1.6728,-1.6946,-1.746,-1.802,-1.8649,-1.9284,-1.9702,-1.9903,-1.9903,-2.0111,-2.0336,-2.0523,-2.133,-2.2352,-2.2552,-2.4026,-2.6383,0.0,0.0,0.0,0.0,0.0,0.0,0.0,0.0,0.0,0.0,0.0,0.0,0.0,0.0,0.0,0.0,2.9565,2.869,2.8644,2.839,0.0,0.0,0.0,0.0,2.8657,2.8377,2.8243,2.8243,2.7976,2.7989,2.8243,2.8243,2.7341,2.5299,2.3498,0.0,1.9683,1.7915,1.7136,1.7136,1.712,1.7112,1.7112,1.7112,1.7112,1.7112,1.7112,1.7112,1.7112,1.7112,1.6753,0.0,0.0,0.0,0.0,0.0,1.4299,0.0,0.0,0.0,0.0,0.0,1.3613,0.0,1.3049,1.2151,1.1439,1.1731,1.1564,1.08,0.9093,0.833,0.6627,0.2844,0.1328,0.019,-0.1334,-0.2098,-0.2479,-0.2479,-0.2862,-0.3052,-0.3052,-0.4952,-0.628,-0.647,-1.0252,-1.3335,-1.5187,-1.5547,-1.5696,-1.5825,-1.5995,-1.6083,-1.6282,-1.6282,-1.6282,-1.6282,-1.6584,-1.6932,-1.7559,-1.7876,-1.8439,-1.9493,-1.9493,-1.9903,-2.032,-2.0529,-2.0529,-2.0336,-2.0499,-2.2134,-2.4211,-2.4419,-2.6347,-2.8693,0.0,0.0,0.0,0.0,0.0,0.0,0.0,0.0,0.0,0.0,0.0,0.0,0.0,0.0,0.0,0.0,0.0,3.0395,0.0,0.0,0.0,0.0,0.0,0.0,2.8951,2.8898,2.8858,2.8858,2.8804,2.8804,2.8858,2.8858,2.6947,2.3798,2.339,2.1274,1.8116,1.7583,1.7331,1.7323,1.7169,1.7112,1.7112,1.7112,1.7112,1.7112,1.7112,1.7112,1.7112,1.7112,1.6753,1.6225,0.0,0.0,0.0,1.4476,0.0,0.0,0.0,0.0,0.0,0.0,1.1283,0.0,1.0514,0.8877,0.7778,0.9279,0.7977,0.6675,0.612,0.575,0.4451,0.1485,0.0935,0.0189,-0.1905,-0.267,-0.2862,-0.2862,-0.3052,-0.3052,-0.3052,-0.4952,-0.685,-0.8364,-1.2339,-1.4818,-1.5228,-1.5493,-1.5649,-1.5683,-1.594,-1.6282,-1.6672,-1.6672,-1.6871,-1.7474,-1.7798,-1.7953,-1.8172,-1.8915,-1.9284,-1.9493,-1.9903,-2.0111,-2.0529,-2.2175,-2.1968,-2.032,-2.0361,-2.1934,-2.3994,-2.4202,-2.6953,-3.0811,0.0,0.0,0.0,0.0,0.0,0.0,0.0,0.0,0.0,0.0,0.0,0.0,0.0,0.0,0.0,0.0,0.0,0.0,0.0,0.0,0.0,0.0,0.0,0.0,0.0,2.9259,2.9192,2.9045,2.9045,2.9045,2.9045,2.9045,2.6971,2.3147,2.3208,2.1083,1.7389,1.7314,1.7388,1.7372,1.7185,1.7112,1.7112,1.7112,1.7112,1.7112,1.7112,1.6928,1.6753,1.6409,1.6049,1.5697,1.5175,1.4822,1.4469,0.0,1.2869,1.2692,0.0,0.0,0.0,0.9711,0.8823,0.0,0.0,0.6958,0.6238,0.7003,0.627,0.4979,0.3689,0.3136,0.2029,-0.037,-0.0932,-0.1501,-0.2443,-0.2844,-0.3052,-0.3052,-0.3052,-0.3432,-0.4573,-0.647,-0.8932,-1.215,-1.4604,-1.5931,-1.5931,-1.6237,-1.6408,-1.6408,-1.6714,-1.7077,-1.7268,-1.7268,-1.7466,-1.7672,-1.8,-1.836,-1.8572,-1.9122,-1.9702,-1.9903,-2.0111,-2.032,-2.0529,-2.2788,-2.2995,-2.1968,-2.3193,-2.517,-2.7241,-2.7359,-2.9735,-3.3065,0.0,0.0,0.0,0.0,0.0,0.0,0.0,0.0,0.0,0.0,0.0,0.0,0.0,0.0,0.0,0.0,0.0,0.0,0.0,0.0,0.0,0.0,0.0,2.9566,0.0,2.9566,2.9446,2.9205,2.9205,2.9205,2.9205,2.9205,2.6992,2.3199,2.32,2.1058,1.7388,1.7403,1.7258,1.7242,1.7025,1.6936,1.7112,1.7112,1.7112,1.7112,1.6936,1.6577,1.6225,1.5881,1.5168,1.4462,1.3938,1.3761,1.3407,1.1438,0.0,0.0,0.0,0.8226,0.7866,0.7331,0.6618,0.5915,0.0,0.0,0.0,0.4761,0.4402,0.3485,0.1285,0.0367,-0.0367,-0.2018,-0.278,-0.2979,-0.3317,-0.3371,-0.3414,-0.3791,-0.3803,-0.4567,-0.6639,-0.8731,-1.1579,-1.5744,-1.6494,-1.6681,-1.6681,-1.7001,-1.718,-1.718,-1.7501,-1.7672,-1.7863,-1.7863,-1.787,-1.8069,-1.8404,-1.8768,-1.9182,-1.9537,-1.9903,-2.032,-2.032,-2.052,-2.1145,-2.34,-2.4432,-2.5039,-2.6465,-2.8427,-3.0479,-3.0527,-3.2325,-3.4683,3.8566,3.8603,0.0,0.0,0.0,0.0,0.0,0.0,0.0,0.0,0.0,0.0,0.0,0.0,0.0,0.0,0.0,0.0,3.0039,0.0,0.0,0.0,0.0,0.0,2.986,2.986,2.9847,2.982,2.982,2.982,2.982,2.982,2.764,2.3828,2.342,2.1413,1.8119,1.7222,1.69,1.6868,1.6533,1.6753,1.7112,1.7112,1.7112,1.7112,1.6577,1.6225,1.5704,1.5704,1.4272,1.2491,1.2314,1.2142,1.1438,0.9477,1.0011,1.0905,0.9121,0.8226,0.7331,0.5189,0.4295,0.3761,0.3409,0.0,0.1078,0.2157,0.0,-0.09,-0.1621,0.0,0.0,-0.267,-0.289,-0.328,-0.3969,-0.4216,-0.4638,-0.5927,-0.6207,-0.7383,-0.9555,-1.1887,-1.4222,-1.6494,-1.6681,-1.6681,-1.6681,-1.7001,-1.718,-1.718,-1.7501,-1.7863,-1.8457,-1.8457,-1.8655,-1.9067,-1.942,-1.9589,-1.98,-2.0158,-2.032,-2.032,-2.032,-2.1345,-2.34,-2.5645,-2.7691,-2.933,-2.7487,-2.8325,-3.0226,-3.0467,-3.2199,-3.4402,0.0,0.0,0.0,0.0,0.0,0.0,0.0,0.0,0.0,0.0,0.0,0.0,0.0,0.0,0.0,0.0,0.0,3.182,0.0,0.0,0.0,0.0,0.0,0.0,0.0,0.0,2.9913,2.9913,2.9913,2.9913,2.9913,2.8809,2.6604,2.3494,2.2198,1.9939,1.7273,1.7133,1.6954,1.6759,1.6611,1.6671,1.6577,1.6409,1.6233,1.6233,1.6057,1.5704,1.5352,1.5352,1.3748,1.1965,1.304,1.1793,0.9655,0.8765,0.8409,0.7695,0.5733,0.5554,0.5373,0.3227,0.2868,0.2867,0.1434,0.0538,0.0,0.0,0.0,0.0,0.0,0.0,0.0,0.0,-0.343,-0.3812,-0.4314,-0.4748,-0.5359,-0.6095,-0.6879,-0.8776,-1.1764,-1.4319,-1.6112,-1.7055,-1.7429,-1.7616,-1.7616,-1.7954,-1.8151,-1.8151,-1.8482,-1.8663,-1.9058,-1.9058,-1.9058,-1.9264,-1.9622,-1.9792,-1.98,-2.0158,-2.0937,-2.2175,-2.2175,-2.34,-2.5645,-2.7895,-2.933,-3.0153,-3.0546,-3.1164,-3.1995,-3.2123,-3.2976,-3.4108,0.0,0.0,0.0,0.0,0.0,0.0,0.0,0.0,0.0,0.0,0.0,0.0,4.0331,3.8631,0.0,0.0,3.3043,3.1301,0.0,0.0,2.9913,0.0,0.0,0.0,0.0,0.0,2.9913,2.9913,2.9913,2.9913,2.9913,2.7895,2.5684,2.3483,2.1277,1.898,1.6627,1.6942,1.6749,1.6301,1.6255,1.5986,1.5873,1.5704,1.5704,1.5528,1.5528,1.5175,1.4822,1.4822,1.3217,1.1616,1.2509,1.0905,0.8409,0.7338,0.627,0.5017,0.3231,0.305,0.3049,0.1616,0.1615,0.1793,0.0359,0.0,-0.018,-0.1257,-0.1436,0.0,0.0,0.0,-0.2871,0.0,0.0,-0.4519,-0.4653,-0.5801,-0.6961,-0.7323,-0.9364,-1.1651,-1.4414,-1.6413,-1.7624,-1.7624,-1.7989,-1.8176,-1.8176,-1.8525,-1.8728,-1.8728,-1.9069,-1.9256,-1.9256,-1.9256,-1.9256,-1.9264,-2.0217,-2.079,-2.0807,-2.1586,-2.2986,-2.4422,-2.4422,-2.5861,-2.7895,-2.9545,-3.0558,-3.1176,-3.2799,-3.3414,-3.3414,-3.3414,-3.3614,-3.3921,0.0,3.9208,0.0,0.0,0.0,0.0,0.0,4.0437,4.0602,4.0987,0.0,0.0,0.0,0.0,0.0,0.0,0.0,2.9913,2.9913,0.0,2.9913,0.0,0.0,2.9913,0.0,0.0,2.9913,2.9913,2.9913,2.9913,2.9913,2.7895,2.5878,2.3871,2.1471,1.9156,1.7164,1.6446,1.5926,1.5406,1.5063,1.4829,1.4476,1.5352,1.5352,1.4992,1.4992,1.4646,1.4299,1.4299,1.3046,1.1083,0.9299,0.8765,0.7874,0.4126,0.3947,0.4659,0.2693,0.1616,0.0718,0.0718,0.0359,0.0,0.0,0.0,-0.018,-0.1257,-0.1436,-0.1795,-0.2694,0.0,0.0,0.0,0.0,0.0,0.0,-0.7655,-0.966,-1.1083,-1.4889,-1.7405,-1.7941,-1.8168,-1.8176,-1.8176,-1.8176,-1.8176,-1.8176,-1.8525,-1.8728,-1.8728,-1.9069,-1.9256,-1.9256,-1.9256,-1.9256,-1.9264,-2.1804,-2.2992,-2.3011,-2.5644,-2.667,-2.6875,-2.6875,-2.8099,-3.0153,-3.0153,-3.1378,-3.3213,-3.3414,-3.3414,-3.3414,-3.3414,-3.3614,-3.3881,0.0,0.0,0.0,0.0,0.0,4.04,4.0804,4.0859,4.0559,3.9313,3.9331,3.846,0.0,3.4781,3.338,0.0,0.0,2.9913,2.9913,2.9913,0.0,0.0,0.0,2.9913,0.0,0.0,0.0,2.9913,2.9913,2.9913,2.9913,2.6616,2.4602,2.3871,2.001,1.7636,1.6461,1.6521,1.5956,1.507,1.5013,1.4646,1.4299,1.4653,1.4653,1.4469,1.4469,1.4476,1.4122,1.2869,1.1083,0.9477,0.8765,0.6803,0.4841,0.4841,0.3947,0.305,0.2334,0.2333,0.2332,0.1077,0.1256,0.1614,0.0359,0.0,-0.018,-0.1257,-0.1436,-0.1795,-0.2694,0.0,0.0,0.0,0.0,0.0,0.0,-0.9104,-1.2206,-1.4003,-1.539,-1.6636,-1.7796,-1.8111,-1.8176,-1.8176,-1.8176,-1.8225,-1.8355,-1.859,-1.8777,-1.8891,-1.9134,-1.9256,-1.9256,-1.9256,-2.0038,-2.1406,-2.2594,-2.3796,-2.5198,-2.6456,-2.7691,-2.9127,-2.9127,-3.0356,-3.2397,-3.2397,-3.2799,-3.3414,-3.3414,-3.3414,-3.3414,-3.3414,-3.348,-3.3601,3.9612,0.0,0.0,0.0,4.04,4.0767,4.1024,4.0536,3.9671,3.846,3.7757,3.688,3.5668,3.3731,3.269,0.0,3.0959,2.9913,2.9913,2.9913,0.0,2.9913,2.9734,0.0,0.0,0.0,0.0,2.9734,2.9182,2.8809,2.8436,2.4785,2.2954,2.2576,1.8905,1.6872,1.6196,1.6125,1.5557,1.4822,1.4822,1.4646,1.4299,1.4299,1.4299,1.4299,1.4299,1.4299,1.3945,1.1976,1.055,0.9299,0.8052,0.5912,0.3947,0.4483,0.3409,0.1975,0.1975,0.2153,0.1973,0.0718,0.1077,0.1614,0.0359,-0.018,-0.0539,-0.1257,-0.1616,-0.1975,-0.2694,0.0,0.0,0.0,0.0,0.0,0.0,-1.161,-1.4209,-1.5963,-1.6189,-1.6636,-1.7796,-1.8111,-1.8176,-1.8176,-1.8176,-1.8257,-1.8444,-1.8623,-1.8801,-1.8972,-1.9936,-2.0423,-2.0423,-2.1201,-2.2172,-2.3541,-2.4762,-2.5976,-2.739,-2.8681,-2.9939,-3.1378,-3.1378,-3.2183,-3.3414,-3.3414,-3.3414,-3.3414,-3.3414,-3.3614,-3.3614,-3.3414,-3.3414,-3.3454,4.0308,4.0492,4.0492,4.0492,4.0804,4.106,4.106,3.9501,3.8289,3.8118,3.6535,3.532,3.532,3.3571,3.2514,3.2514,3.0959,2.9913,2.9913,2.9913,0.0,0.0,2.9541,2.9182,2.9182,0.0,0.0,0.0,2.7702,2.6785,2.6229,2.276,2.0742,2.0363,1.8346,1.6872,1.6189,1.5643,1.5104,1.4299,1.4299,1.4299,1.4299,1.4299,1.4299,1.4122,1.4122,1.4122,1.3761,1.1799,1.1083,1.055,0.6803,0.5554,0.5199,0.3411,0.2156,0.1436,0.1436,0.0718,0.0,0.0,0.0,0.0,0.0,-0.0359,-0.0898,-0.1257,-0.1795,-0.2335,-0.2874,-0.2874,0.0,0.0,0.0,0.0,0.0,-1.4985,-1.5639,-1.7419,-1.7648,-1.7794,-1.8144,-1.8176,-1.8176,-1.8176,-1.8184,-1.8265,-1.8452,-1.8639,-1.8818,-1.9183,-2.1298,-2.2368,-2.2564,-2.4494,-2.5464,-2.5669,-2.8113,-2.9541,-2.9763,-3.2324,-3.3414,-3.3414,-3.3414,-3.3414,-3.3414,-3.3414,-3.3414,-3.3414,-3.3414,-3.3814,-3.4214,-3.3614,-3.3414,-3.3454,4.0437,4.0712,4.0914,4.0914,4.0987,4.106,4.106,3.9501,3.7757,3.6362,3.4607,3.2867,3.1479,3.0959,3.0616,3.0616,3.0272,0.0,0.0,0.0,0.0,2.9913,2.9734,2.9554,2.9182,2.9541,0.0,2.9182,2.7702,2.6966,2.6785,2.2566,2.0548,2.0363,1.7973,1.6495,1.5643,1.5643,1.5104,1.4299,1.4299,1.4299,1.4299,1.4299,1.3407,1.2154,1.2154,1.2154,1.1616,0.823,0.716,0.6803,0.4305,0.359,0.3411,0.2693,0.1975,0.1257,0.0898,0.0539,0.0,0.0,-0.018,-0.0539,-0.0539,-0.0898,-0.1436,-0.1975,-0.2156,-0.2335,-0.2874,-0.2874,-0.359,0.0,0.0,0.0,0.0,-1.5084,-1.5771,-1.7435,-1.7762,-1.7932,-1.8152,-1.8176,-1.8176,-1.8176,-1.8306,-1.846,-1.8647,-1.8826,-1.9767,-2.1502,-2.2144,-2.3141,-2.4688,-2.527,-2.6238,-2.7792,-2.8896,-3.034,-3.2337,-3.3133,-3.3614,-3.4014,-3.3614,-3.3614,-3.4014,-3.4014,-3.4014,-3.4014,-3.4413,-3.4612,-3.4812,-3.4214,-3.3814,-3.3427,4.0694,4.0914,4.106,4.106,4.0367,3.9841,3.9841,3.8272,3.6362,3.4432,3.269,3.1137,3.0093,2.9913,2.9913,2.9913,2.9913,2.9913,2.9913,0.0,0.0,2.9913,2.9554,2.9195,2.8835,2.8088,0.0,2.7534,2.532,2.4032,2.3666,2.0548,1.8896,1.8338,1.7048,1.5982,1.5554,1.5237,1.4689,1.4299,1.4299,1.3761,0.0,1.3046,1.1799,1.0011,0.9299,0.9477,0.9655,0.6624,0.5733,0.5378,0.3411,0.2694,0.2515,0.2335,0.1616,0.1077,0.0718,0.0359,0.0,0.0,-0.0359,-0.0718,-0.0718,-0.1257,-0.1795,-0.2156,-0.2335,-0.2694,-0.3412,-0.3947,-0.5549,0.0,0.0,0.0,0.0,-1.6016,-1.672,-1.8166,-1.835,-1.8719,-1.9454,-1.8735,-1.8363,-1.8735,-1.9099,-1.9285,-1.9288,-2.0421,-2.1384,-2.2359,-2.4115,-2.5658,-2.6817,-2.7792,-2.8943,-3.0306,-3.0856,-3.192,-3.3727,-3.394,-3.4214,-3.4612,-3.4214,-3.4214,-3.4612,-3.4612,-3.4612,-3.4612,-3.521,-3.521,-3.5011,-3.5011,-3.4413,-3.3814,4.0987,4.106,4.106,4.106,3.9501,3.8289,3.7946,3.6362,3.4607,3.2867,3.1137,2.9913,2.9913,2.9913,2.9913,2.9913,2.9913,2.9913,2.9913,2.9913,2.9734,2.9734,2.9015,2.8294,2.8101,2.5901,2.4978,0.0,2.184,2.0178,1.9622,1.7981,1.6688,1.5938,1.5751,1.5652,1.5462,1.4792,1.4414,1.4299,1.3945,1.2869,1.1438,1.1083,0.9833,0.8052,0.627,0.6806,0.7874,0.5912,0.5378,0.502,0.3411,0.2515,0.2156,0.1976,0.1436,0.0718,0.0539,0.0359,0.0,0.0,-0.0359,-0.0718,-0.0718,-0.1616,-0.2335,-0.2335,-0.2694,-0.3412,-0.4128,-0.573,-0.857,0.0,-1.4611,-1.5697,-1.7136,-1.7485,-1.8024,-1.9103,-1.9479,0.0,-2.0751,-1.9471,-1.9116,-2.0073,-2.044,-2.0629,-2.1019,-2.2941,-2.3718,-2.3326,-2.6817,-2.8943,-2.9135,-3.108,-3.2043,-3.2421,-3.3023,-3.3699,-3.4309,-3.4731,-3.5011,-3.5011,-3.5011,-3.5011,-3.5011,-3.5011,-3.521,-3.521,-3.5607,-3.5607,-3.521,-3.5805,-3.521,-3.4413,4.1042,4.106,4.106,4.106,3.9501,3.7757,3.6188,3.4432,3.3043,3.269,3.1137,2.9913,2.9913,2.9913,2.9913,2.9913,2.9913,2.9913,2.9913,2.9541,2.9362,2.9362,2.8835,2.7558,2.5525,2.5332,2.4591,2.3137,2.0917,1.9992,2.0178,1.7414,1.6126,1.5938,1.5563,1.5217,1.4943,1.4462,1.4326,1.4122,1.2509,1.1616,1.1261,0.9655,0.7874,0.6091,0.5733,0.5912,0.5912,0.3947,0.3411,0.3231,0.2515,0.2335,0.1976,0.1257,0.0898,0.0539,0.018,0.0,0.0,0.0,-0.0718,-0.1257,-0.1257,-0.1976,-0.2694,-0.2694,-0.3412,-0.4128,-0.4307,-0.7691,-1.1239,-1.3186,-1.5323,-1.7153,-1.8371,-1.874,-1.8931,-1.9297,-2.0226,-2.0548,-2.0037,-2.0399,-2.1206,-2.3035,-2.3259,-2.3841,-2.4822,-2.5441,-2.6557,-2.796,-2.8739,-3.028,-3.2394,-3.2786,-3.2988,-3.2988,-3.3601,-3.4281,-3.4696,-3.4928,-3.521,-3.5607,-3.521,-3.521,-3.5607,-3.5607,-3.6004,-3.6202,-3.6004,-3.6004,-3.64,-3.6414,-3.6004,-3.5408,4.106,4.106,4.0705,3.9841,3.81,3.6188,3.4257,3.2528,3.1301,3.1301,3.0437,2.9913,2.9913,2.9913,2.9913,2.9913,2.9734,2.9541,2.9541,2.9195,2.8835,2.8835,2.7365,2.6083,2.4796,2.2749,2.1277,2.0742,1.871,1.7787,1.7965,1.6494,1.5751,1.5556,1.5293,1.495,1.4726,1.4502,1.4367,1.4122,1.2154,1.0905,0.9655,0.7874,0.5912,0.4305,0.4305,0.4305,0.4126,0.3233,0.2694,0.2515,0.2335,0.1795,0.1257,0.0898,0.0539,0.0359,0.0,0.0,0.0,-0.0359,-0.0898,-0.1436,-0.1795,-0.2335,-0.2874,-0.2874,-0.3592,-0.5022,-0.7517,-1.089,-1.3729,-1.5147,-1.6745,-1.8049,-1.8769,-1.95,-2.006,-2.0809,-2.1568,-2.2238,-2.2974,-2.3525,-2.3751,-2.3868,-2.5306,-2.6114,-2.605,-2.7938,-2.911,-2.9313,-3.0661,-3.2002,-3.3163,-3.3177,-3.3351,-3.3554,-3.4177,-3.486,-3.5275,-3.5716,-3.6004,-3.6202,-3.6004,-3.6004,-3.6202,-3.6202,-3.64,-3.6597,-3.64,-3.64,-3.6597,-3.6597,-3.64,-3.6202,4.106,4.0723,4.001,3.8631,3.6362,3.4432,3.2867,3.1137,2.9913,2.9913,2.9913,2.9913,2.9913,2.9734,2.9734,2.9734,2.9375,2.9002,2.9002,2.8655,2.8294,2.8294,2.5901,2.443,2.4054,2.0178,1.8152,1.8338,1.6486,1.573,1.5889,1.5737,1.5542,1.5133,1.4984,1.4835,1.4679,1.3983,1.3859,1.3407,1.1083,0.9299,0.7695,0.5912,0.4126,0.2874,0.2874,0.2874,0.2874,0.2694,0.2335,0.2156,0.1975,0.1257,0.0718,0.0539,0.0359,0.0,0.0,0.0,-0.018,-0.0539,-0.1077,-0.1616,-0.2156,-0.2515,-0.3053,-0.359,-0.4841,-0.716,-1.1422,-1.3735,-1.5506,-1.6928,-1.7814,-1.8594,-1.9178,-2.0412,-2.1511,-2.2333,-2.3248,-2.4258,-2.5901,-2.6809,-2.6652,-2.5617,-2.7313,-2.8185,-2.7932,-3.0428,-3.1434,-3.0267,-3.2205,-3.3351,-3.3554,-3.3554,-3.3742,-3.4118,-3.4751,-3.5261,-3.5661,-3.6305,-3.6597,-3.6597,-3.6597,-3.6597,-3.6597,-3.6597,-3.6597,-3.6597,-3.6597,-3.6597,-3.6597,-3.6597,-3.6597,-3.6597,4.106,3.9671,3.846,3.8289,3.532,3.2867,3.269,3.1137,2.9913,2.9913,2.9913,2.9913,2.9913,2.9554,2.9182,2.9182,2.8835,2.8655,2.8655,2.8101,2.7739,2.7739,2.5525,2.3321,2.149,1.9259,1.7414,1.6119,1.5556,1.5487,1.5725,1.5494,1.5113,1.4984,1.4828,1.4679,1.4343,1.258,1.1627,1.1261,0.7695,0.6091,0.5733,0.3949,0.3053,0.2874,0.2335,0.2515,0.2694,0.1795,0.1795,0.1976,0.1077,0.0718,0.0539,0.018,0.0,0.0,0.0,-0.0359,-0.0718,-0.0718,-0.1436,-0.2156,-0.2156,-0.2515,-0.3588,-0.5549,-0.8575,-1.1599,-1.4265,-1.4801,-1.5506,-1.6928,-1.7814,-1.899,-2.0262,-2.2117,-2.301,-2.2719,-2.5343,-2.6628,-2.5161,-2.8051,-3.016,-2.9898,-3.0201,-3.1367,-3.3037,-3.3135,-3.3163,-3.3525,-3.3728,-3.4118,-3.4508,-3.4522,-3.4508,-3.471,-3.5339,-3.5646,-3.5661,-3.6305,-3.6597,-3.6597,-3.6597,-3.6597,-3.6597,-3.6597,-3.6597,-3.6597,-3.6597,-3.6597,-3.6597,-3.6597,-3.6597,-3.6597,3.9671,3.8802,3.7586,3.5304,3.3731,3.2337,3.1123,3.0066,2.9541,2.9541,2.9541,2.9541,2.9541,2.9015,2.8835,2.8835,2.8281,2.8101,2.8101,2.6446,2.5525,2.5525,2.2208,2.0187,1.9259,1.7414,1.6112,1.5556,1.5368,1.5341,1.5466,1.5252,1.4977,1.4828,1.4672,1.3842,1.2687,1.1844,1.0728,0.9477,0.6806,0.5733,0.5554,0.359,0.2694,0.2515,0.2335,0.2156,0.1975,0.1257,0.1257,0.1616,0.0898,0.0539,0.018,0.0,0.0,0.0,0.0,-0.0359,-0.0718,-0.1077,-0.1616,-0.2335,-0.2515,-0.359,-0.4841,-0.6082,-0.9815,-1.3192,-1.4794,-1.569,-1.6401,-1.6936,-1.8331,-1.9693,-2.0469,-2.3019,-2.481,-2.4751,-2.6809,-2.8076,-2.8231,-2.9681,-3.1153,-3.2211,-3.2549,-3.2803,-3.3242,-3.383,-3.4118,-3.3916,-3.4305,-3.4508,-3.471,-3.471,-3.471,-3.471,-3.5339,-3.5646,-3.5661,-3.6305,-3.6597,-3.6597,-3.6597,-3.6597,-3.6597,-3.6597,-3.6597,-3.6597,-3.6597,-3.6597,-3.6597,-3.6597,-3.6597,-3.6597,3.8458,3.769,3.6535,3.3219,3.216,3.1301,2.99,2.9362,2.9182,2.9002,2.8822,2.8822,2.9002,2.8655,2.8294,2.8294,2.7739,2.7558,2.7558,2.5343,2.4064,2.4064,2.0178,1.8152,1.8152,1.6112,1.5181,1.5181,1.514,1.5099,1.5052,1.4903,1.478,1.4665,1.4016,1.2861,1.1552,1.0223,0.8943,0.7517,0.5733,0.4841,0.4483,0.3231,0.2335,0.1975,0.1795,0.1616,0.1257,0.0718,0.0718,0.1077,0.0718,0.018,0.0,0.0,0.0,0.0,-0.018,-0.0539,-0.1077,-0.1436,-0.1976,-0.2693,-0.359,-0.4841,-0.6442,-0.8215,-1.1765,-1.4787,-1.5506,-1.6401,-1.7112,-1.7463,-1.8855,-2.0394,-2.1522,-2.4263,-2.6234,-2.693,-2.8436,-2.9694,-3.0588,-3.0945,-3.194,-3.3503,-3.3729,-3.3538,-3.3386,-3.4003,-3.4305,-3.4118,-3.4508,-3.471,-3.471,-3.471,-3.471,-3.471,-3.5251,-3.5544,-3.5661,-3.6305,-3.6597,-3.6597,-3.6597,-3.6597,-3.6597,-3.6597,-3.6597,-3.6597,-3.6597,-3.6597,-3.6597,-3.6597,-3.6597,-3.6597,3.8061,3.6461,3.4956,3.3043,3.1123,2.9734,2.9362,2.9182,2.9002,2.8655,2.8101,2.792,2.8474,2.8101,2.7739,2.7739,2.7208,2.7027,2.7027,2.5172,2.4064,2.4064,2.0178,1.8152,1.8152,1.6112,1.5181,1.5181,1.5038,1.4896,1.474,1.459,1.4516,1.433,1.2519,1.1547,1.1083,0.7338,0.5733,0.5554,0.3769,0.2694,0.2156,0.2156,0.1795,0.1436,0.0898,0.1077,0.1257,0.0359,0.0359,0.0539,0.018,0.0,0.0,0.0,0.0,-0.018,-0.0539,-0.1077,-0.1436,-0.1976,-0.2515,-0.3411,-0.5199,-0.6085,-0.7681,-1.2473,-1.5323,-1.7112,-1.7112,-1.7112,-1.7463,-1.8339,-1.9204,-2.0909,-2.382,-2.5842,-2.7284,-2.8193,-3.0423,-3.1685,-3.0767,-3.1863,-3.3041,-3.3685,-3.3729,-3.4022,-3.4666,-3.4118,-3.4118,-3.471,-3.471,-3.471,-3.471,-3.471,-3.471,-3.471,-3.5017,-3.5339,-3.5661,-3.6305,-3.6597,-3.6597,-3.6597,-3.6597,-3.6597,-3.6597,-3.6597,-3.6597,-3.6597,-3.6597,-3.6597,-3.6597,-3.6597,-3.6597,3.4265,3.3517,3.2718,3.0831,2.9945,2.9362,2.9182,2.8642,2.8101,2.792,2.7558,2.7208,2.739,2.739,2.7208,2.7208,2.7027,2.647,2.5172,2.3148,2.1481,2.0001,1.7592,1.6112,1.6112,1.5556,1.5133,1.5038,1.4991,1.4841,1.4584,1.4536,1.3732,1.239,1.1671,0.9862,0.6978,0.573,0.4301,0.2692,0.2154,0.1795,0.1616,0.1616,0.1436,0.0898,0.0718,0.0539,0.0359,0.018,0.018,0.018,0.0,0.0,0.0,0.0,0.0,-0.018,-0.0539,-0.1077,-0.1616,-0.2156,-0.3588,-0.502,-0.5554,-0.8401,-1.1594,-1.4794,-1.6393,-1.7112,-1.7112,-1.7639,-1.8164,-1.8514,-2.0705,-2.2998,-2.4019,-2.7045,-2.9432,-2.982,-3.1507,-3.2409,-3.204,-3.2586,-3.3041,-3.3685,-3.3729,-3.4022,-3.4666,-3.4508,-3.4508,-3.471,-3.471,-3.471,-3.471,-3.471,-3.471,-3.471,-3.5017,-3.5441,-3.5968,-3.6173,-3.6392,-3.6597,-3.6597,-3.6597,-3.6597,-3.6597,-3.6597,-3.6597,-3.6597,-3.6597,-3.6597,-3.6597,-3.6597,-3.6597,3.3061,3.2312,3.1527,2.9474,2.8929,2.8717,2.8463,2.7938,2.7435,2.7365,2.7208,2.7027,2.7027,2.7027,2.6664,2.5913,2.5913,2.499,2.3137,2.1111,1.9445,1.8152,1.6299,1.516,1.5106,1.5106,1.5031,1.4882,1.4828,1.4672,1.4434,1.4256,1.3121,1.1078,1.0189,0.787,0.4657,0.3943,0.269,0.1436,0.1436,0.1257,0.1077,0.1077,0.0898,0.0359,0.0359,0.018,0.0,0.0,0.0,0.0,0.0,0.0,0.0,0.0,0.0,-0.018,-0.0718,-0.1257,-0.1616,-0.2335,-0.4126,-0.6091,-0.8048,-1.1245,-1.4448,-1.6225,-1.6928,-1.7288,-1.7639,-1.8164,-1.8689,-1.9388,-2.1988,-2.4136,-2.5266,-2.8178,-3.0437,-3.1273,-3.2218,-3.2778,-3.2778,-3.2778,-3.2983,-3.351,-3.3656,-3.3963,-3.449,-3.4636,-3.471,-3.471,-3.471,-3.471,-3.471,-3.471,-3.471,-3.471,-3.5017,-3.5427,-3.5939,-3.6056,-3.629,-3.6597,-3.6597,-3.6597,-3.6597,-3.6597,-3.6597,-3.6597,-3.6597,-3.6597,-3.6597,-3.6597,-3.6597,-3.6597,3.3873,3.2478,3.0852,2.8818,2.8321,2.8075,2.7446,2.7305,2.7226,2.6942,2.6979,2.6979,2.6979,2.6797,2.6048,2.4011,2.4043,2.3137,2.1111,1.9065,1.7949,1.7949,1.6083,1.5092,1.4957,1.4957,1.4882,1.4726,1.457,1.4428,1.4122,1.3591,1.2331,1.0362,0.8048,0.5906,0.3939,0.2153,0.1257,0.1257,0.1257,0.1077,0.0718,0.0718,0.0359,0.0,0.0,0.0,0.0,0.0,0.0,0.0,0.0,0.0,0.0,0.0,0.0,-0.018,-0.1257,-0.1436,-0.1795,-0.2874,-0.4662,-0.7335,-1.1954,-1.4448,-1.6057,-1.6936,-1.7112,-1.7463,-1.8339,-1.8689,-1.9388,-2.1128,-2.2869,-2.5033,-2.7559,-2.9272,-3.0993,-3.2557,-3.2778,-3.2778,-3.2778,-3.2778,-3.2895,-3.3217,-3.3554,-3.3875,-3.4197,-3.4534,-3.471,-3.471,-3.471,-3.471,-3.471,-3.471,-3.471,-3.471,-3.4988,-3.5295,-3.5617,-3.5939,-3.6261,-3.6568,-3.6597,-3.6597,-3.6597,-3.6597,-3.6597,-3.6597,-3.6597,-3.6597,-3.6597,-3.6597,-3.6597,-3.6597,3.0055,2.9138,2.8671,2.8181,2.7669,2.731,2.702,2.6668,2.6516,2.6399,2.6411,2.6411,2.6411,2.5144,2.3515,2.1541,2.3122,2.2586,1.9074,1.8207,1.7211,1.5753,1.5087,1.4828,1.4794,1.4794,1.4537,1.4022,1.3885,1.3623,1.3236,1.1616,0.9829,0.787,0.5906,0.3762,0.1435,0.1077,0.0718,0.0359,0.0359,0.018,0.018,0.018,0.018,0.0,0.0,0.0,0.0,0.0,0.0,0.0,-0.0359,-0.0539,-0.0539,-0.0539,-0.0539,-0.0718,-0.1795,-0.1976,-0.2513,-0.4483,-0.787,-1.1422,-1.4794,-1.5866,-1.6401,-1.6936,-1.7639,-1.8164,-1.8514,-1.9737,-2.1118,-2.2654,-2.509,-2.7346,-2.8991,-3.1043,-3.2322,-3.2763,-3.2778,-3.2778,-3.2778,-3.2778,-3.2895,-3.3217,-3.3554,-3.3875,-3.4197,-3.4534,-3.471,-3.471,-3.471,-3.471,-3.471,-3.471,-3.471,-3.471,-3.4783,-3.4973,-3.528,-3.5602,-3.5924,-3.6246,-3.6495,-3.6597,-3.6597,-3.6597,-3.6597,-3.6597,-3.6597,-3.6597,-3.6597,-3.6597,-3.6597,-3.6597,2.9621,2.8257,2.7538,2.7183,2.6795,2.6599,2.6549,2.6212,2.6085,2.6206,2.5501,2.496,2.496,2.3343,2.1194,1.905,2.0333,1.9915,1.6811,1.6544,1.5949,1.4862,1.4598,1.4342,1.4276,1.4094,1.3842,1.3337,1.3268,1.2692,1.1616,1.0189,0.8222,0.5546,0.4297,0.251,0.0359,0.0359,0.018,0.0,0.0,0.0,0.0,0.0,0.0,0.0,0.0,0.0,0.0,0.0,-0.018,-0.0359,-0.0539,-0.0898,-0.1077,-0.1257,-0.1257,-0.1257,-0.1975,-0.2871,-0.4301,-0.7688,-1.0535,-1.3198,-1.5866,-1.6401,-1.6577,-1.7639,-1.8164,-1.903,-2.0414,-2.1455,-2.2837,-2.4531,-2.7056,-2.8991,-2.9699,-3.1464,-3.2778,-3.2778,-3.2778,-3.2778,-3.2778,-3.2778,-3.2837,-3.3012,-3.3466,-3.3802,-3.3993,-3.4446,-3.471,-3.471,-3.471,-3.471,-3.471,-3.471,-3.471,-3.471,-3.471,-3.4871,-3.5163,-3.5339,-3.5675,-3.6129,-3.6305,-3.6466,-3.6597,-3.6597,-3.6597,-3.6597,-3.6597,-3.6597,-3.6597,-3.6597,-3.6597,-3.6597,3.0107,2.846,2.7135,2.6273,2.6103,2.6007,2.5735,2.5586,2.5323,2.5536,2.3953,2.2704,2.2694,2.1096,1.9133,1.6994,1.7002,1.631,1.4551,1.4537,1.4524,1.4524,1.414,1.3706,1.3579,1.3226,1.2997,1.2875,1.252,1.1444,0.9829,0.8761,0.6618,0.3403,0.2688,0.1614,0.0,0.0,0.0,0.0,0.0,0.0,0.0,0.0,0.0,0.0,0.0,0.0,-0.018,-0.018,-0.0359,-0.0898,-0.0898,-0.1257,-0.1616,-0.2156,-0.1975,-0.1795,-0.2513,-0.4301,-0.7153,-1.1245,-1.2845,-1.3912,-1.6042,-1.6577,-1.7104,-1.8164,-1.8864,-2.0066,-2.2826,-2.3514,-2.4531,-2.6758,-2.8617,-2.9872,-3.0045,-3.1654,-3.2778,-3.2778,-3.2778,-3.2778,-3.2778,-3.2778,-3.2778,-3.2778,-3.3363,-3.3729,-3.3729,-3.4358,-3.471,-3.471,-3.471,-3.471,-3.471,-3.471,-3.471,-3.471,-3.471,-3.4841,-3.509,-3.5134,-3.5456,-3.5983,-3.607,-3.6275,-3.6539,-3.6583,-3.6597,-3.6597,-3.6597,-3.6597,-3.6597,-3.6597,-3.6795,-3.6992,2.8305,2.7304,2.6796,2.6273,2.5763,2.5446,2.5494,2.4098,2.3064,2.2567,2.0995,1.96,1.9241,1.7496,1.6271,1.5918,1.4524,1.3566,1.3443,1.3356,1.3294,1.3294,1.3183,1.3108,1.3084,1.2906,1.2722,1.2343,1.0728,0.9477,0.8765,0.537,0.3582,0.2867,0.1256,0.0359,0.0,0.0,0.0,0.0,0.0,0.0,0.0,0.0,0.0,0.0,0.0,-0.018,-0.0539,-0.0539,-0.0898,-0.1436,-0.1795,-0.1976,-0.2156,-0.2694,-0.2694,-0.3052,-0.4662,-0.8044,-1.1422,-1.3009,-1.4611,-1.6042,-1.6753,-1.763,-1.8164,-1.8514,-2.0588,-2.2654,-2.317,-2.4873,-2.6758,-2.8278,-2.9302,-3.0218,-3.1267,-3.2179,-3.2778,-3.2778,-3.2778,-3.2778,-3.2778,-3.2778,-3.2778,-3.2778,-3.3363,-3.3729,-3.3729,-3.4358,-3.471,-3.471,-3.471,-3.471,-3.471,-3.471,-3.471,-3.471,-3.471,-3.4724,-3.4783,-3.5046,-3.5207,-3.5339,-3.588,-3.6144,-3.6217,-3.6495,-3.6597,-3.6597,-3.6597,-3.6597,-3.6597,-3.6597,-3.775,-3.9299,2.7448,2.6613,2.6273,2.5763,2.5604,2.5433,2.5433,2.4224,2.2998,2.2115,1.9855,1.8121,1.7063,1.5323,1.4095,1.3918,1.3046,1.2396,1.2333,1.2824,1.2973,1.2973,1.2734,1.2343,1.2165,1.2165,1.1988,1.181,0.9838,0.8226,0.6978,0.4118,0.2331,0.1256,0.0359,0.0,0.0,0.0,0.0,0.0,0.0,0.0,0.0,-0.0359,-0.0359,-0.0359,-0.0718,-0.0898,-0.1077,-0.1077,-0.1436,-0.1795,-0.2156,-0.2326,-0.2496,-0.287,-0.3768,-0.5194,-0.7156,-1.0175,-1.3192,-1.4787,-1.6034,-1.6928,-1.7639,-1.8164,-1.8864,-1.9737,-2.1801,-2.3686,-2.4873,-2.6575,-2.8278,-2.9635,-3.051,-3.1095,-3.1798,-3.2368,-3.2778,-3.2778,-3.2778,-3.2778,-3.2778,-3.2778,-3.2778,-3.2778,-3.3202,-3.3539,-3.3729,-3.4183,-3.4519,-3.4695,-3.471,-3.471,-3.471,-3.471,-3.471,-3.471,-3.471,-3.471,-3.471,-3.4856,-3.5002,-3.5178,-3.547,-3.5792,-3.6129,-3.6275,-3.6451,-3.6597,-3.6597,-3.6597,-3.6597,-3.6597,-3.7946,-3.9673,2.6758,2.6103,2.5933,2.5433,2.5433,2.5263,2.4738,2.3697,2.2298,2.0539,1.8113,1.6026,1.4794,1.3394,1.2343,1.1988,1.1988,1.181,1.1455,1.2165,1.252,1.252,1.2165,1.181,1.1455,1.1094,1.0916,1.0916,0.8409,0.6442,0.5013,0.3046,0.1435,0.0,0.0,0.0,-0.018,-0.018,-0.018,-0.0359,-0.0359,-0.0359,-0.0359,-0.0718,-0.0898,-0.0898,-0.1257,-0.1434,-0.1611,-0.1611,-0.1965,-0.2317,-0.2317,-0.266,-0.3175,-0.3201,-0.5164,-0.7836,-0.9459,-1.1948,-1.4611,-1.6217,-1.6928,-1.7639,-1.8339,-1.903,-2.0066,-2.1465,-2.3342,-2.5215,-2.6927,-2.8278,-2.9635,-3.0651,-3.1469,-3.2052,-3.2126,-3.2803,-3.338,-3.3455,-3.347,-3.347,-3.347,-3.3293,-3.3293,-3.347,-3.3234,-3.3393,-3.4078,-3.422,-3.4544,-3.5413,-3.4882,-3.4882,-3.5428,-3.4882,-3.4882,-3.5428,-3.4882,-3.471,-3.471,-3.471,-3.4827,-3.5061,-3.5134,-3.5441,-3.5909,-3.6056,-3.6261,-3.6495,-3.6583,-3.6597,-3.6597,-3.6597,-3.8142,-4.0432,2.6273,2.6103,2.5933,2.5433,2.5433,2.4738,2.246,2.0722,1.8636,1.5828,1.3742,1.2337,1.1804,1.1632,1.1632,1.1632,1.1632,1.1455,1.1455,1.1632,1.1632,1.1632,1.1632,1.1455,1.1455,0.966,0.8765,0.8765,0.5191,0.3225,0.3046,0.1076,0.018,0.0,0.0,-0.018,-0.0718,-0.0718,-0.0898,-0.1257,-0.1257,-0.1257,-0.1257,-0.1257,-0.1436,-0.1436,-0.1436,-0.1606,-0.2124,-0.2124,-0.2285,-0.2789,-0.2789,-0.331,-0.4003,-0.4007,-0.7345,-1.093,-1.1218,-1.3729,-1.6393,-1.6936,-1.7814,-1.8339,-1.8514,-2.0761,-2.2998,-2.317,-2.5896,-2.8446,-2.8615,-2.9802,-3.0651,-3.0817,-3.1781,-3.2616,-3.3105,-3.4158,-3.502,-3.532,-3.5352,-3.5352,-3.5352,-3.4509,-3.4509,-3.5177,-3.3932,-3.3738,-3.497,-3.4404,-3.5254,-3.7391,-3.56,-3.56,-3.7407,-3.56,-3.56,-3.7407,-3.56,-3.471,-3.471,-3.471,-3.471,-3.4753,-3.5031,-3.5192,-3.528,-3.588,-3.6129,-3.6187,-3.648,-3.6597,-3.6597,-3.6597,-3.9089,-4.2533,2.5896,2.5604,2.5433,2.4749,2.4578,2.388,2.1424,2.0038,1.8121,1.5308,1.3918,1.2692,1.1632,1.0921,1.0565,1.0565,1.0026,0.9669,0.9669,1.0209,1.0921,1.1455,1.1455,1.0916,0.966,0.8943,0.8052,0.6799,0.3761,0.233,0.233,0.0179,-0.0898,-0.0898,-0.0898,-0.0898,-0.1077,-0.1077,-0.1257,-0.1436,-0.1436,-0.1436,-0.1436,-0.1795,-0.1789,-0.1956,-0.2134,-0.2296,-0.245,-0.245,-0.2618,-0.2956,-0.3478,-0.3806,-0.4471,-0.6524,-0.9716,-1.2823,-1.3921,-1.56,-1.7104,-1.7814,-1.8164,-1.8864,-1.9911,-2.1801,-2.3514,-2.4029,-2.6575,-2.8796,-2.8796,-2.9983,-3.0984,-3.1482,-3.2252,-3.2922,-3.3954,-3.464,-3.516,-3.5494,-3.5526,-3.5858,-3.6707,-3.6205,-3.6551,-3.7878,-3.6979,-3.672,-3.7782,-3.7826,-3.8317,-3.9391,-3.8677,-3.8677,-3.9391,-3.7407,-3.6869,-3.7575,-3.6869,-3.5786,-3.471,-3.471,-3.471,-3.471,-3.4827,-3.5727,-3.6834,-3.5985,-3.6504,-3.7832,-3.6637,-3.6422,-3.6597,-3.6597,-3.9283,-4.2724,2.5132,2.4672,2.4526,2.3756,2.3243,2.2052,1.9855,1.8645,1.6896,1.3905,1.2857,1.1982,1.0738,1.003,0.9496,0.9496,0.8956,0.8417,0.7877,0.8056,0.9126,1.0921,1.0377,0.9299,0.787,0.6796,0.5725,0.4295,0.2149,0.1075,0.0896,-0.0718,-0.1436,-0.1436,-0.1436,-0.1436,-0.1616,-0.1616,-0.1795,-0.1795,-0.1789,-0.1787,-0.1965,-0.2314,-0.2301,-0.2286,-0.2638,-0.2969,-0.3288,-0.3288,-0.3452,-0.3786,-0.4302,-0.4959,-0.6111,-0.9488,-1.2168,-1.4414,-1.6191,-1.7215,-1.8087,-1.8846,-1.9214,-1.9911,-2.1465,-2.317,-2.4702,-2.5738,-2.7772,-2.9467,-2.9802,-3.0636,-3.1482,-3.2458,-3.299,-3.3636,-3.4783,-3.5395,-3.606,-3.7036,-3.7086,-3.7569,-3.892,-3.8579,-3.8732,-4.0259,-3.9243,-3.8563,-3.9115,-4.0227,-4.0946,-4.1209,-4.1331,-4.1761,-4.23,-3.9755,-3.886,-3.9391,-3.886,-3.7775,-3.6514,-3.6514,-3.6514,-3.6514,-3.6514,-3.7364,-3.8683,-3.7507,-3.8025,-3.959,-3.8494,-3.7776,-3.7418,-3.7523,-3.9673,-4.2724,2.3465,2.3298,2.3044,2.2446,2.1098,1.9437,1.7389,1.5835,1.3729,1.0382,1.003,0.9674,0.8778,0.8599,0.8599,0.8599,0.8599,0.7877,0.6439,0.5008,0.5904,0.9852,0.7691,0.6436,0.6436,0.3043,0.1433,0.1433,-0.0538,-0.1436,-0.1436,-0.1436,-0.1436,-0.1436,-0.1436,-0.1795,-0.2156,-0.2154,-0.2515,-0.2871,-0.2841,-0.2829,-0.2825,-0.2795,-0.2784,-0.2782,-0.2782,-0.3454,-0.4103,-0.4103,-0.475,-0.5376,-0.5379,-0.6881,-0.9383,-1.3045,-1.4817,-1.5981,-1.7526,-1.8749,-1.9637,-1.9845,-2.0598,-2.1638,-2.2998,-2.5044,-2.7266,-2.8446,-2.9802,-3.115,-3.1963,-3.2128,-3.2458,-3.3281,-3.4278,-3.5048,-3.5757,-3.671,-3.7986,-4.0072,-4.0331,-4.0837,-4.2178,-4.1453,-4.1286,-4.2326,-4.0259,-3.8906,-3.8785,-4.1298,-4.2803,-4.2803,-4.3188,-4.4296,-4.6308,-4.2479,-4.1564,-4.3389,-4.1384,-4.0481,-4.0481,-4.0481,-4.0481,-4.0481,-4.0481,-4.0481,-4.0515,-4.0892,-4.1046,-4.1131,-4.1868,-4.0851,-3.9004,-3.9546,-4.1012,-4.2724,2.261,2.2477,2.2164,2.1389,2.003,1.8166,1.5309,1.3774,1.1906,0.9374,0.9035,0.8884,0.8591,0.8063,0.7531,0.7531,0.6091,0.4834,0.3936,0.2866,0.3045,0.501,0.5008,0.4293,0.2864,0.197,0.0717,-0.0538,-0.1436,-0.1975,-0.1975,-0.2335,-0.2515,-0.2515,-0.2515,-0.2515,-0.2693,-0.2672,-0.2665,-0.284,-0.281,-0.2797,-0.2796,-0.2787,-0.3115,-0.378,-0.378,-0.4265,-0.5069,-0.5069,-0.5224,-0.5712,-0.7216,-1.0377,-1.3535,-1.4698,-1.6311,-1.8171,-1.9558,-2.0109,-2.0495,-2.0895,-2.1801,-2.2998,-2.4029,-2.6248,-2.8446,-2.9439,-3.0788,-3.1963,-3.2952,-3.3116,-3.3444,-3.4294,-3.4621,-3.5522,-3.79,-3.85,-3.9447,-4.1398,-4.1677,-4.2178,-4.3507,-4.3176,-4.3507,-4.5005,-4.3837,-4.3017,-4.2801,-4.3405,-4.4166,-4.476,-4.4894,-4.5454,-4.6308,-4.3763,-4.2854,-4.3389,-4.2836,-4.1761,-4.0481,-4.0481,-4.0481,-4.0481,-4.0481,-4.1203,-4.2497,-4.1162,-4.1535,-4.2926,-4.1856,-4.134,-4.1247,-4.1347,-4.2881,-4.4832,2.1333,2.0859,2.0216,1.9304,1.7449,1.527,1.3462,1.1589,0.9899,0.8054,0.7887,0.7731,0.7427,0.6375,0.5679,0.57,0.3398,0.1792,0.1433,0.0359,0.0,0.0537,0.1074,0.1253,0.0538,0.0,-0.0897,-0.1975,-0.2335,-0.2515,-0.2515,-0.2694,-0.2868,-0.2856,-0.2856,-0.2849,-0.2837,-0.317,-0.3336,-0.3333,-0.3644,-0.3801,-0.3799,-0.3782,-0.4101,-0.4585,-0.4585,-0.524,-0.5879,-0.5879,-0.655,-0.7718,-0.9878,-1.2866,-1.5522,-1.6517,-1.7918,-1.9551,-2.0266,-2.0991,-2.1556,-2.23,-2.3276,-2.4201,-2.5227,-2.7422,-2.9607,-3.0607,-3.1783,-3.2952,-3.3788,-3.3952,-3.4278,-3.5109,-3.5271,-3.6174,-3.8886,-3.9158,-4.0107,-4.2729,-4.3176,-4.3672,-4.5005,-4.4862,-4.5025,-4.6023,-4.5372,-4.4838,-4.4434,-4.4464,-4.4629,-4.5156,-4.5508,-4.5801,-4.6055,-4.5121,-4.4491,-4.4491,-4.4491,-4.3941,-4.2836,-4.2836,-4.2836,-4.2836,-4.2836,-4.3389,-4.4473,-4.3211,-4.3536,-4.4689,-4.3741,-4.3176,-4.2882,-4.3199,-4.4213,-4.5572,2.013,1.8808,1.7718,1.6901,1.4069,1.1763,1.1538,0.9673,0.7788,0.6762,0.6762,0.6246,0.5385,0.4168,0.3315,0.3348,0.0889,-0.0716,-0.0894,-0.2148,-0.2866,-0.2866,-0.2866,-0.2327,-0.1073,-0.2332,-0.2874,-0.2874,-0.305,-0.3049,-0.287,-0.3046,-0.3029,-0.3001,-0.3001,-0.2984,-0.313,-0.382,-0.4164,-0.4333,-0.5143,-0.5461,-0.5455,-0.5398,-0.5379,-0.5544,-0.5544,-0.605,-0.6888,-0.7052,-0.872,-1.1053,-1.3032,-1.4691,-1.6188,-1.8155,-1.9469,-2.0171,-2.056,-2.145,-2.2521,-2.428,-2.4865,-2.5568,-2.6758,-2.8769,-3.0773,-3.2128,-3.2952,-3.3952,-3.4783,-3.4946,-3.5271,-3.608,-3.6241,-3.6968,-3.9159,-3.945,-4.0745,-4.4028,-4.4494,-4.5005,-4.6185,-4.6347,-4.6185,-4.5719,-4.5209,-4.4882,-4.437,-4.4434,-4.4355,-4.4394,-4.5156,-4.5605,-4.5683,-4.6055,-4.6269,-4.6308,-4.6308,-4.6308,-4.6308,-4.6308,-4.6308,-4.6308,-4.6308,-4.6308,-4.6308,-4.6308,-4.6308,-4.6348,-4.6719,-4.5789,-4.4267,-4.5004,-4.5317,-4.5445,1.9163,1.85,1.7519,1.5891,1.3908,1.176,0.978,0.8109,0.645,0.4453,0.4289,0.3786,0.2602,0.2084,0.1912,0.1917,0.035,-0.105,-0.2276,-0.2628,-0.2803,-0.2803,-0.2803,-0.2977,-0.3325,-0.3027,-0.2874,-0.2874,-0.3561,-0.3546,-0.2838,-0.3517,-0.3846,-0.3838,-0.3838,-0.4181,-0.4862,-0.4991,-0.5145,-0.514,-0.5253,-0.5398,-0.5395,-0.5382,-0.5882,-0.6382,-0.6382,-0.7056,-0.806,-0.9716,-1.2523,-1.5334,-1.5827,-1.7319,-1.9144,-1.9632,-2.0292,-2.1319,-2.2527,-2.3257,-2.4164,-2.6402,-2.7856,-2.9091,-2.9258,-3.1105,-3.3116,-3.3952,-3.4458,-3.4783,-3.5595,-3.5774,-3.6241,-3.733,-3.7649,-3.8609,-4.1322,-4.2008,-4.306,-4.5106,-4.5635,-4.6023,-4.6347,-4.6347,-4.6185,-4.5719,-4.5209,-4.4882,-4.437,-4.4139,-4.4023,-4.4394,-4.457,-4.5,-4.5664,-4.5762,-4.5976,-4.6308,-4.6308,-4.6308,-4.6308,-4.6308,-4.6308,-4.6308,-4.6308,-4.6308,-4.6308,-4.6308,-4.6308,-4.6308,-4.6406,-4.6268,-4.6222,-4.6395,-4.6896,-4.7694,1.85,1.6845,1.5185,1.4189,1.17,0.9378,0.7885,0.5873,0.4038,0.2878,0.2203,0.1529,0.0854,0.0171,-0.0514,-0.1033,-0.1906,-0.2607,-0.3304,-0.3478,-0.3651,-0.3999,-0.4171,-0.4344,-0.4691,-0.4393,-0.4065,-0.4065,-0.4569,-0.4558,-0.4032,-0.4531,-0.4677,-0.4654,-0.4654,-0.4984,-0.5472,-0.5778,-0.6102,-0.6099,-0.6566,-0.6721,-0.6717,-0.7387,-0.7885,-0.839,-0.9054,-0.9888,-1.0882,-1.2363,-1.4676,-1.6811,-1.7147,-1.8472,-2.013,-2.0455,-2.1427,-2.2418,-2.319,-2.4462,-2.5931,-2.788,-2.99,-3.1256,-3.0759,-3.2443,-3.4278,-3.4783,-3.5109,-3.5612,-3.6097,-3.6563,-3.7188,-3.7968,-3.8444,-3.9681,-4.2151,-4.2744,-4.3679,-4.5463,-4.6078,-4.6347,-4.6347,-4.6347,-4.6185,-4.6023,-4.5535,-4.5209,-4.4698,-4.4205,-4.3974,-4.4062,-4.4277,-4.4609,-4.5058,-4.5469,-4.5781,-4.6016,-4.6211,-4.6308,-4.6308,-4.6308,-4.6308,-4.6308,-4.6308,-4.6308,-4.6308,-4.6308,-4.6308,-4.6308,-4.6308,-4.6445,-4.666,-4.6855,-4.7461,-4.8281,1.751,1.502,1.2701,1.2038,0.9216,0.655,0.6044,0.3692,0.1678,0.1175,0.0168,-0.0672,-0.084,-0.1847,-0.3036,-0.4259,-0.4297,-0.4321,-0.4321,-0.4321,-0.4666,-0.5529,-0.5529,-0.5698,-0.6043,-0.6043,-0.5882,-0.5559,-0.5721,-0.5715,-0.5542,-0.5877,-0.6013,-0.596,-0.613,-0.6268,-0.6214,-0.7052,-0.7219,-0.7387,-0.806,-0.8562,-0.8896,-1.0221,-1.0721,-1.0887,-1.205,-1.3204,-1.4354,-1.5005,-1.6319,-1.7638,-1.8291,-1.9287,-2.0455,-2.1427,-2.2545,-2.3496,-2.3964,-2.5796,-2.8177,-2.9646,-3.1594,-3.2921,-3.2263,-3.3608,-3.4946,-3.4946,-3.5612,-3.6097,-3.6402,-3.7348,-3.8109,-3.8585,-3.9531,-4.0762,-4.2365,-4.2961,-4.3897,-4.5339,-4.6037,-4.6347,-4.6347,-4.6347,-4.6347,-4.6347,-4.5861,-4.5556,-4.5046,-4.4534,-4.4205,-4.3711,-4.4082,-4.4316,-4.4394,-4.5098,-4.5527,-4.5683,-4.6035,-4.623,-4.6308,-4.6308,-4.6308,-4.6308,-4.6308,-4.6308,-4.6308,-4.6308,-4.6308,-4.6308,-4.6308,-4.6308,-4.6348,-4.6777,-4.7422,-4.8164,1.5522,1.4361,1.2866,0.9711,0.8211,0.6205,0.3187,0.1847,0.0336,-0.235,-0.2853,-0.3358,-0.4535,-0.4873,-0.5043,-0.5222,-0.523,-0.5235,-0.5235,-0.5235,-0.5232,-0.5401,-0.5401,-0.624,-0.8252,-0.8252,-0.7318,-0.5559,-0.6194,-0.6163,-0.548,-0.745,-0.8244,-0.8236,-0.9402,-0.9731,-0.9392,-0.9559,-0.9559,-0.9726,-0.9726,-1.056,-1.1718,-1.2542,-1.2873,-1.3032,-1.4024,-1.5663,-1.7465,-1.7465,-1.8952,-2.0779,-2.0779,-2.0941,-2.1438,-2.2545,-2.3484,-2.4748,-2.6977,-2.8676,-3.061,-3.2539,-3.3741,-3.4621,-3.5271,-3.5757,-3.5935,-3.5935,-3.6097,-3.6402,-3.749,-3.7809,-3.8743,-4.0919,-4.1384,-4.1888,-4.3218,-4.3783,-4.4411,-4.5022,-4.583,-4.6347,-4.6347,-4.6347,-4.6347,-4.6347,-4.5861,-4.5556,-4.5046,-4.4534,-4.4205,-4.3711,-4.3769,-4.3984,-4.4394,-4.4512,-4.4941,-4.5683,-4.5742,-4.5957,-4.6308,-4.6308,-4.6308,-4.6308,-4.6308,-4.6308,-4.6308,-4.6308,-4.6308,-4.6308,-4.6308,-4.6308,-4.6348,-4.6777,-4.7246,-4.7715,1.4354,1.2529,1.0544,0.8044,0.6376,0.5036,0.336,0.1007,-0.1007,-0.2518,-0.4197,-0.5541,-0.6047,-0.6047,-0.6382,-0.7216,-0.7216,-0.7547,-0.8378,-0.8378,-0.8544,-0.9049,-0.9216,-0.955,-1.0549,-1.0554,-1.01,-0.9183,-0.9647,-0.9622,-0.9118,-1.0075,-1.0554,-1.0549,-1.1214,-1.1386,-1.1225,-1.1225,-1.1225,-1.122,-1.1712,-1.2376,-1.3039,-1.4683,-1.5177,-1.5506,-1.7147,-1.8309,-1.9124,-1.9622,-2.0444,-2.1276,-2.1276,-2.2061,-2.3164,-2.3644,-2.5529,-2.7407,-2.8686,-3.0587,-3.2539,-3.3503,-3.4559,-3.5612,-3.5935,-3.6097,-3.6241,-3.7028,-3.7188,-3.749,-3.8761,-3.9688,-4.0452,-4.1539,-4.235,-4.2984,-4.3462,-4.4008,-4.4567,-4.5291,-4.5954,-4.6347,-4.6347,-4.6347,-4.6347,-4.6347,-4.6185,-4.5861,-4.5372,-4.5046,-4.4534,-4.4041,-4.3876,-4.3808,-4.4004,-4.4277,-4.459,-4.4961,-4.5449,-4.5898,-4.6308,-4.6308,-4.6308,-4.6308,-4.6308,-4.6308,-4.6308,-4.6308,-4.6308,-4.6308,-4.6308,-4.6308,-4.6348,-4.6777,-4.7051,-4.7305]},{"header":{"parameterUnit":"m.s-1","parameterCategory":1,"la1":30.6,"la2":28.766,"lo1":-90.7593,"lo2":-88.6598,"dy":0.0162,"dx":0.0183,"nx":116,"ny":114,"refTime":"2023-11-10T18:00:00:Z","depth":0,"parameterNumber":3,"parameterNumberName":"V-component_of_WINDS"},"data":[0.0,0.0,0.0,0.0,0.0,0.0,0.0,0.0,0.0,0.0,0.0,0.0,0.0,0.0,0.0,0.0,0.0,0.0,0.0,0.0,0.0,0.0,0.0,0.0,0.0,0.0,0.0,0.0,0.0,0.0,0.0,0.0,0.0,0.0,0.0,0.0,0.0,0.0,0.0,0.0,0.0,0.0,0.0,0.0,0.0,0.0,0.0,0.0,0.0,0.0,0.0,0.0,0.0,0.0,0.0,0.0,0.0,0.0,0.0,0.0,0.0,0.0,0.0,0.0,0.0,0.0,0.0,0.0,0.0,0.0,0.0,0.0,0.0,0.0,0.0,0.0,0.0,0.0,0.0,0.0,0.0,0.0,0.0,0.0,0.0,0.0,0.0,0.0,0.0,0.0,0.0,0.0,0.0,0.0,0.0,0.0,0.0,0.0,0.0,0.0,0.0,0.0,0.0,0.0,0.0,0.0,0.0,0.0,0.0,0.0,0.0,0.0,0.0,0.0,0.0,0.0,0.0,0.0,0.0,0.0,0.0,0.0,0.0,0.0,0.0,0.0,0.0,0.0,0.0,0.0,0.0,0.0,0.0,0.0,0.0,0.0,0.0,0.0,0.0,0.0,0.0,0.0,0.0,0.0,0.0,0.0,0.0,0.0,0.0,0.0,0.0,0.0,0.0,0.0,0.0,0.0,0.0,0.0,0.0,0.0,0.0,0.0,0.0,0.0,0.0,0.0,0.0,0.0,0.0,0.0,0.0,0.0,0.0,0.0,0.0,0.0,0.0,0.0,0.0,0.0,0.0,0.0,0.0,0.0,0.0,0.0,0.0,0.0,0.0,0.0,0.0,0.0,0.0,0.0,0.0,0.0,0.0,0.0,0.0,0.0,0.0,0.0,0.0,0.0,0.0,0.0,0.0,0.0,0.0,0.0,0.0,0.0,0.0,0.0,0.0,0.0,0.0,0.0,0.0,0.0,0.0,0.0,0.0,0.0,0.0,0.0,0.0,0.0,0.0,0.0,0.0,0.0,0.0,0.0,0.0,0.0,0.0,0.0,0.0,0.0,0.0,0.0,0.0,0.0,0.0,0.0,0.0,0.0,0.0,0.0,0.0,0.0,0.0,0.0,0.0,0.0,0.0,0.0,0.0,0.0,0.0,0.0,0.0,0.0,0.0,0.0,0.0,0.0,0.0,0.0,0.0,0.0,0.0,0.0,0.0,0.0,0.0,0.0,0.0,0.0,0.0,0.0,0.0,0.0,0.0,0.0,0.0,0.0,0.0,0.0,0.0,0.0,0.0,0.0,0.0,0.0,0.0,0.0,0.0,0.0,0.0,0.0,0.0,0.0,0.0,0.0,0.0,0.0,0.0,0.0,0.0,0.0,0.0,0.0,0.0,0.0,0.0,0.0,0.0,0.0,0.0,0.0,0.0,0.0,0.0,0.0,0.0,0.0,0.0,0.0,0.0,0.0,0.0,0.0,0.0,0.0,0.0,0.0,0.0,0.0,0.0,0.0,0.0,0.0,0.0,0.0,0.0,0.0,0.0,0.0,0.0,0.0,0.0,0.0,0.0,0.0,0.0,0.0,0.0,0.0,0.0,0.0,0.0,0.0,0.0,0.0,0.0,0.0,0.0,0.0,0.0,0.0,0.0,0.0,0.0,0.0,0.0,0.0,0.0,0.0,0.0,0.0,0.0,0.0,0.0,0.0,0.0,0.0,0.0,0.0,0.0,0.0,0.0,0.0,0.0,0.0,0.0,0.0,0.0,0.0,0.0,0.0,0.0,0.0,0.0,0.0,0.0,0.0,0.0,0.0,0.0,0.0,0.0,0.0,0.0,0.0,0.0,0.0,0.0,0.0,0.0,0.0,0.0,0.0,0.0,0.0,0.0,0.0,0.0,0.0,0.0,0.0,0.0,0.0,0.0,0.0,0.0,0.0,0.0,0.0,0.0,0.0,0.0,0.0,0.0,0.0,0.0,0.0,0.0,0.0,0.0,0.0,0.0,0.0,0.0,0.0,0.0,0.0,0.0,0.0,0.0,0.0,0.0,0.0,0.0,0.0,0.0,0.0,0.0,0.0,0.0,0.0,0.0,0.0,0.0,0.0,0.0,0.0,0.0,0.0,0.0,0.0,0.0,0.0,0.0,0.0,0.0,0.0,0.0,0.0,0.0,0.0,0.0,0.0,0.0,0.0,0.0,0.0,0.0,0.0,0.0,0.0,0.0,0.0,0.0,0.0,0.0,0.0,0.0,0.0,0.0,0.0,0.0,0.0,0.0,0.0,0.0,0.0,0.0,0.0,0.0,0.0,0.0,0.0,0.0,0.0,0.0,0.0,0.0,0.0,0.0,0.0,0.0,0.0,0.0,0.0,0.0,0.0,0.0,0.0,0.0,0.0,0.0,0.0,0.0,0.0,0.0,0.0,0.0,0.0,0.0,0.0,0.0,0.0,0.0,0.0,0.0,0.0,0.0,0.0,0.0,0.0,0.0,0.0,0.0,0.0,0.0,0.0,0.0,0.0,0.0,0.0,0.0,0.0,0.0,0.0,0.0,0.0,0.0,0.0,0.0,0.0,0.0,0.0,0.0,0.0,0.0,0.0,0.0,0.0,0.0,0.0,0.0,0.0,0.0,0.0,0.0,0.0,0.0,0.0,0.0,0.0,0.0,0.0,0.0,0.0,0.0,0.0,0.0,0.0,0.0,0.0,0.0,0.0,0.0,0.0,0.0,0.0,0.0,0.0,0.0,0.0,0.0,0.0,0.0,0.0,0.0,0.0,0.0,0.0,0.0,0.0,0.0,0.0,0.0,0.0,0.0,0.0,0.0,0.0,0.0,0.0,0.0,0.0,0.0,0.0,0.0,0.0,0.0,0.0,0.0,0.0,0.0,0.0,0.0,0.0,0.0,0.0,0.0,0.0,0.0,0.0,0.0,0.0,0.0,0.0,0.0,0.0,0.0,0.0,0.0,0.0,0.0,0.0,0.0,0.0,0.0,0.0,0.0,0.0,0.0,0.0,0.0,0.0,0.0,0.0,0.0,0.0,0.0,0.0,0.0,0.0,0.0,0.0,0.0,0.0,0.0,0.0,0.0,0.0,0.0,0.0,0.0,0.0,0.0,0.0,0.0,0.0,0.0,0.0,0.0,0.0,0.0,0.0,0.0,0.0,0.0,0.0,0.0,0.0,0.0,0.0,0.0,0.0,0.0,0.0,0.0,0.0,0.0,0.0,0.0,0.0,0.0,0.0,0.0,0.0,0.0,0.0,0.0,0.0,0.0,0.0,0.0,0.0,0.0,0.0,0.0,0.0,0.0,0.0,0.0,0.0,0.0,0.0,0.0,0.0,0.0,0.0,0.0,0.0,0.0,0.0,0.0,0.0,0.0,0.0,0.0,0.0,0.0,0.0,0.0,0.0,0.0,0.0,0.0,0.0,0.0,0.0,0.0,0.0,0.0,0.0,0.0,0.0,0.0,0.0,0.0,0.0,0.0,0.0,0.0,0.0,0.0,0.0,0.0,0.0,0.0,0.0,0.0,0.0,0.0,0.0,0.0,0.0,0.0,0.0,0.0,0.0,0.0,0.0,0.0,0.0,0.0,0.0,0.0,0.0,0.0,0.0,0.0,0.0,0.0,0.0,0.0,0.0,0.0,0.0,0.0,0.0,0.0,0.0,0.0,0.0,0.0,0.0,0.0,0.0,0.0,0.0,0.0,0.0,0.0,0.0,0.0,0.0,0.0,0.0,0.0,0.0,0.0,0.0,0.0,0.0,0.0,0.0,0.0,0.0,0.0,0.0,0.0,0.0,0.0,0.0,0.0,0.0,0.0,0.0,0.0,0.0,0.0,0.0,0.0,0.0,0.0,0.0,0.0,0.0,0.0,0.0,0.0,0.0,0.0,0.0,0.0,0.0,0.0,0.0,0.0,0.0,0.0,0.0,0.0,0.0,0.0,0.0,0.0,0.0,0.0,0.0,0.0,0.0,0.0,0.0,0.0,0.0,0.0,0.0,0.0,0.0,0.0,0.0,0.0,0.0,0.0,0.0,0.0,0.0,0.0,0.0,0.0,0.0,0.0,0.0,0.0,0.0,0.0,0.0,0.0,0.0,0.0,0.0,0.0,0.0,0.0,0.0,0.0,0.0,0.0,0.0,0.0,0.0,0.0,0.0,0.0,0.0,0.0,0.0,0.0,0.0,0.0,0.0,0.0,0.0,0.0,0.0,0.0,0.0,0.0,0.0,0.0,0.0,0.0,0.0,0.0,0.0,0.0,0.0,0.0,0.0,0.0,0.0,0.0,0.0,0.0,0.0,0.0,0.0,0.0,0.0,0.0,0.0,0.0,0.0,0.0,0.0,0.0,0.0,0.0,0.0,0.0,0.0,0.0,0.0,0.0,0.0,0.0,0.0,0.0,0.0,0.0,0.0,0.0,0.0,0.0,0.0,0.0,0.0,0.0,0.0,0.0,0.0,0.0,0.0,0.0,0.0,0.0,0.0,0.0,0.0,0.0,0.0,0.0,0.0,0.0,0.0,0.0,0.0,0.0,0.0,0.0,0.0,0.0,0.0,0.0,0.0,0.0,0.0,0.0,0.0,0.0,0.0,0.0,0.0,0.0,0.0,0.0,0.0,0.0,0.0,0.0,0.0,0.0,0.0,0.0,0.0,0.0,0.0,0.0,0.0,0.0,0.0,0.0,0.0,0.0,0.0,0.0,0.0,0.0,0.0,0.0,0.0,0.0,0.0,0.0,0.0,0.0,0.0,0.0,0.0,0.0,0.0,0.0,0.0,0.0,0.0,0.0,0.0,0.0,0.0,0.0,0.0,0.0,0.0,0.0,0.0,0.0,0.0,0.0,0.0,0.0,0.0,0.0,0.0,0.0,0.0,0.0,0.0,0.0,0.0,0.0,0.0,0.0,0.0,0.0,0.0,0.0,0.0,0.0,0.0,0.0,0.0,0.0,0.0,0.0,0.0,0.0,0.0,0.0,0.0,0.0,0.0,0.0,0.0,0.0,0.0,0.0,0.0,0.0,0.0,0.0,0.0,0.0,0.0,0.0,0.0,0.0,0.0,0.0,0.0,0.0,0.0,0.0,0.0,0.0,0.0,0.0,0.0,0.0,0.0,0.0,0.0,0.0,0.0,0.0,0.0,0.0,0.0,0.0,0.0,0.0,0.0,0.0,0.0,0.0,0.0,0.0,0.0,0.0,0.0,0.0,0.0,0.0,0.0,0.0,0.0,0.0,0.0,0.0,0.0,0.0,0.0,0.0,0.0,0.0,0.0,0.0,0.0,0.0,0.0,0.0,0.0,0.0,0.0,0.0,0.0,0.0,0.0,0.0,0.0,0.0,0.0,0.0,0.0,0.0,0.0,0.0,0.0,0.0,0.0,0.0,0.0,0.0,0.0,0.0,0.0,0.0,0.0,0.0,0.0,0.0,0.0,0.0,0.0,0.0,0.0,0.0,0.0,0.0,0.0,0.0,0.0,0.0,0.0,0.0,0.0,0.0,0.0,0.0,0.0,0.0,0.0,0.0,0.0,0.0,0.0,0.0,0.0,0.0,0.0,0.0,0.0,0.0,0.0,0.0,0.0,0.0,0.0,0.0,0.0,0.0,0.0,0.0,0.0,0.0,0.0,0.0,0.0,0.0,0.0,0.0,0.0,0.0,0.0,0.0,0.0,0.0,0.0,0.0,0.0,0.0,0.0,0.0,0.0,0.0,0.0,0.0,0.0,0.0,0.0,0.0,0.0,0.0,0.0,0.0,0.0,0.0,0.0,0.0,0.0,0.0,0.0,0.0,0.0,0.0,0.0,0.0,0.0,0.0,0.0,0.0,0.0,0.0,0.0,0.0,0.0,0.0,0.0,0.0,0.0,0.0,0.0,0.0,0.0,0.0,0.0,0.0,0.0,0.0,0.0,0.0,0.0,0.0,0.0,0.0,0.0,0.0,0.0,0.0,0.0,0.0,0.0,0.0,0.0,0.0,0.0,0.0,0.0,0.0,0.0,0.0,0.0,0.0,0.0,0.0,0.0,0.0,0.0,0.0,0.0,0.0,0.0,0.0,0.0,0.0,0.0,0.0,0.0,0.0,0.0,0.0,0.0,8.746,8.7651,0.0,0.0,0.0,0.0,0.0,0.0,0.0,0.0,0.0,0.0,0.0,0.0,0.0,0.0,0.0,0.0,0.0,0.0,0.0,0.0,0.0,0.0,0.0,0.0,0.0,0.0,0.0,0.0,0.0,0.0,0.0,0.0,0.0,0.0,0.0,0.0,0.0,7.1872,7.1872,7.2092,7.2496,7.2092,7.2092,7.2496,0.0,0.0,0.0,0.0,0.0,0.0,0.0,0.0,0.0,0.0,0.0,0.0,0.0,0.0,0.0,0.0,0.0,0.0,0.0,0.0,0.0,0.0,0.0,0.0,0.0,0.0,0.0,0.0,0.0,0.0,0.0,0.0,0.0,0.0,0.0,0.0,0.0,0.0,0.0,0.0,0.0,0.0,0.0,0.0,0.0,0.0,0.0,0.0,0.0,0.0,0.0,0.0,0.0,0.0,0.0,0.0,0.0,0.0,0.0,0.0,0.0,0.0,0.0,0.0,0.0,0.0,0.0,0.0,0.0,0.0,8.8683,8.8683,0.0,0.0,0.0,0.0,0.0,0.0,0.0,0.0,0.0,0.0,0.0,0.0,0.0,0.0,0.0,0.0,0.0,0.0,0.0,0.0,0.0,0.0,0.0,6.7504,6.8238,6.9045,6.9119,6.9449,0.0,0.0,0.0,0.0,0.0,0.0,7.1541,7.2165,7.2496,7.2496,7.2496,7.2496,7.2496,7.2496,7.2496,7.2496,7.2496,0.0,0.0,0.0,0.0,0.0,0.0,0.0,0.0,0.0,0.0,0.0,0.0,0.0,0.0,0.0,0.0,0.0,0.0,0.0,0.0,0.0,0.0,0.0,0.0,0.0,0.0,0.0,0.0,0.0,0.0,0.0,0.0,0.0,0.0,0.0,0.0,0.0,0.0,0.0,0.0,0.0,0.0,0.0,0.0,0.0,0.0,0.0,0.0,0.0,0.0,0.0,0.0,0.0,0.0,0.0,0.0,0.0,0.0,0.0,0.0,0.0,0.0,0.0,8.8301,8.8453,8.8759,8.9447,8.9829,8.9982,8.9982,8.9867,8.9867,9.1395,0.0,0.0,0.0,0.0,0.0,0.0,0.0,0.0,0.0,0.0,0.0,0.0,0.0,0.0,0.0,0.0,0.0,0.0,0.0,6.7797,6.8531,6.8678,6.9082,6.9853,6.9926,7.0293,7.1101,0.0,0.0,0.0,0.0,7.2349,7.2349,7.2459,7.2496,7.2496,7.2496,7.2496,7.2496,7.2496,7.2496,7.2496,7.2496,7.2496,7.2496,0.0,0.0,0.0,0.0,0.0,0.0,0.0,0.0,0.0,0.0,0.0,0.0,0.0,0.0,0.0,0.0,0.0,0.0,0.0,0.0,0.0,0.0,0.0,0.0,0.0,0.0,0.0,0.0,0.0,0.0,0.0,0.0,0.0,0.0,0.0,0.0,0.0,0.0,0.0,0.0,0.0,8.1499,8.1614,0.0,0.0,0.0,0.0,0.0,0.0,0.0,0.0,0.0,0.0,0.0,0.0,0.0,8.7651,8.7766,8.788,8.8339,8.9141,8.9141,8.9905,9.1319,9.1434,9.1892,9.2618,9.2618,0.0,9.1548,9.2542,0.0,0.0,0.0,0.0,0.0,0.0,0.0,0.0,0.0,0.0,0.0,0.0,0.0,0.0,0.0,0.0,0.0,0.0,0.0,0.0,0.0,6.9302,6.9889,7.0697,7.077,7.1138,7.1945,7.1982,0.0,0.0,7.2496,7.2496,7.2496,7.2496,7.2496,7.2496,7.2496,7.2496,7.2496,7.2496,7.2496,7.2496,7.2496,7.2496,7.2496,7.2798,0.0,0.0,0.0,0.0,0.0,0.0,0.0,0.0,0.0,0.0,0.0,0.0,0.0,0.0,0.0,0.0,0.0,0.0,0.0,0.0,0.0,0.0,0.0,0.0,0.0,0.0,0.0,0.0,0.0,0.0,0.0,0.0,0.0,0.0,0.0,0.0,0.0,0.0,0.0,8.1729,8.2455,8.2455,8.2798,8.3181,0.0,0.0,0.0,0.0,0.0,0.0,0.0,0.0,0.0,8.7536,8.788,8.8301,8.8759,8.8759,8.9409,9.0708,9.0708,9.1357,9.2542,9.2542,9.2733,9.3115,9.3612,9.3612,9.3306,9.3688,9.3841,9.3917,0.0,0.0,0.0,0.0,9.5598,9.5598,0.0,0.0,0.0,0.0,0.0,0.0,0.0,0.0,0.0,0.0,0.0,0.0,6.9486,7.0036,7.0734,7.1541,7.1615,7.1872,7.2459,7.2496,7.2496,7.2496,7.2496,7.2496,7.2496,7.2496,7.2496,7.2496,7.2496,7.2496,7.2496,7.2496,7.2496,7.2496,7.2496,7.2496,7.2496,7.2963,7.3087,7.3193,0.0,0.0,0.0,0.0,0.0,0.0,0.0,0.0,0.0,0.0,0.0,0.0,0.0,0.0,0.0,0.0,0.0,0.0,0.0,0.0,0.0,0.0,0.0,0.0,0.0,0.0,0.0,0.0,0.0,0.0,0.0,0.0,0.0,0.0,0.0,0.0,0.0,8.2798,8.3333,8.3333,8.3486,8.3983,0.0,0.0,0.0,0.0,0.0,0.0,8.8071,8.8301,8.8415,8.8415,8.8797,8.9332,8.9944,9.0173,9.0899,9.2121,9.2121,9.258,9.3421,9.3421,9.3535,9.3764,9.4452,9.472,9.472,9.472,9.472,9.4802,9.5369,9.5598,9.5643,9.5598,9.5598,9.5598,0.0,0.0,0.0,0.0,0.0,0.0,0.0,0.0,0.0,0.0,0.0,7.033,7.1101,7.1248,7.1578,7.2386,7.2459,7.2459,7.2496,7.2496,7.2496,7.2496,7.2496,7.2496,7.2496,7.2496,7.2496,7.2496,7.2496,7.2496,7.2496,7.2496,7.2496,7.2496,7.2496,7.2496,7.2496,7.2496,7.2553,7.2667,7.3628,0.0,0.0,0.0,0.0,0.0,0.0,0.0,0.0,0.0,0.0,0.0,0.0,0.0,0.0,0.0,0.0,0.0,0.0,0.0,0.0,0.0,0.0,0.0,0.0,0.0,0.0,0.0,0.0,0.0,0.0,0.0,0.0,0.0,0.0,0.0,0.0,0.0,0.0,8.4212,8.49,0.0,0.0,0.0,0.0,8.7957,8.8033,8.8033,8.811,8.8835,8.9256,8.9256,9.0784,9.1625,9.1663,9.2504,9.2962,9.3038,9.3038,9.3497,9.4338,9.4338,9.4758,9.5484,9.5522,9.5522,9.5522,9.5522,9.5648,9.5734,9.5643,9.5686,9.5768,9.5643,9.5598,9.5598,0.0,0.0,0.0,0.0,0.0,0.0,0.0,0.0,6.9082,6.9596,7.0367,7.0991,7.1284,7.1762,7.2202,7.2459,7.2496,7.2496,7.2496,7.2496,7.2496,7.2496,7.2496,7.2496,7.2496,7.2496,7.2496,7.2496,7.2496,7.2496,7.2496,7.2853,7.2853,7.2496,7.2853,7.2798,7.2496,7.2496,7.2496,7.261,7.3579,7.4009,0.0,0.0,0.0,0.0,0.0,0.0,0.0,0.0,0.0,0.0,0.0,0.0,0.0,0.0,0.0,0.0,0.0,0.0,0.0,0.0,0.0,0.0,0.0,0.0,0.0,0.0,0.0,0.0,0.0,0.0,0.0,0.0,0.0,0.0,0.0,0.0,0.0,8.5932,8.6658,0.0,8.7613,8.7651,8.7995,8.8797,8.8874,8.9103,8.9676,9.0478,9.0899,9.0899,9.2045,9.2656,9.2656,9.2924,9.3382,9.3955,9.3955,9.4376,9.5178,9.5178,9.5331,9.5598,9.5598,9.5598,9.5598,9.5598,9.5686,9.581,9.5776,9.5814,9.581,9.5768,9.5686,9.5675,0.0,0.0,0.0,0.0,0.0,0.0,0.0,6.9059,6.9926,7.044,7.1211,7.1725,7.1725,7.2202,7.2496,7.2496,7.2496,7.2496,7.2496,7.2496,7.2496,7.2496,7.2496,7.2496,7.2496,7.2496,7.2496,7.2496,7.2496,7.2642,7.2899,7.3259,7.348,7.3609,7.3956,7.3972,7.3848,7.3848,7.3333,7.2553,7.3378,7.3869,7.4101,0.0,0.0,0.0,0.0,0.0,0.0,0.0,0.0,0.0,0.0,0.0,0.0,0.0,0.0,0.0,0.0,0.0,0.0,0.0,0.0,0.0,0.0,0.0,0.0,0.0,0.0,0.0,0.0,0.0,0.0,0.0,0.0,0.0,0.0,8.6352,8.7231,8.7231,8.7766,8.8224,8.8492,8.8492,8.895,9.0058,9.0135,9.0517,9.1395,9.1969,9.2236,9.2236,9.3077,9.3535,9.3535,9.3803,9.4223,9.4796,9.4796,9.5064,9.5598,9.5598,9.5598,9.5598,9.5598,9.5598,9.5598,9.5948,9.615,9.6236,9.5971,9.6009,9.6274,9.6193,9.6342,9.656,0.0,0.0,0.0,0.0,0.0,0.0,6.8769,7.0293,7.1321,7.1358,7.2018,7.2496,7.2496,7.2496,7.2496,7.2496,7.2496,7.2496,7.2496,7.2496,7.2496,7.2496,7.2496,7.2496,7.2496,7.2532,7.2532,7.2532,7.2569,7.2973,7.3765,7.3765,7.4477,7.5729,7.5729,7.6005,7.6498,7.6498,7.5007,7.2684,7.3215,7.3691,7.4177,0.0,0.0,0.0,0.0,0.0,0.0,0.0,0.0,0.0,0.0,0.0,0.0,0.0,0.0,0.0,0.0,0.0,0.0,0.0,0.0,0.0,0.0,0.0,0.0,0.0,0.0,0.0,0.0,0.0,0.0,0.0,0.0,0.0,8.6963,8.7575,8.8148,8.8148,8.8148,8.8492,8.9294,8.937,9.0058,9.1701,9.1854,9.2198,9.3038,9.3115,9.3153,9.3153,9.3917,9.4376,9.4452,9.5216,9.5598,9.5598,9.5598,9.5598,9.5598,9.5598,9.5598,9.5598,9.5637,9.5637,9.5757,9.6648,9.7116,9.7166,9.6236,9.6431,9.7242,9.7078,9.7609,9.8293,0.0,0.0,0.0,0.0,0.0,0.0,7.0271,7.1027,7.1541,7.2092,7.2349,7.2496,7.2496,7.2496,7.2496,7.2496,7.2496,7.2496,7.2496,7.2496,7.2496,7.2496,7.2496,7.2496,7.2496,7.3083,7.3377,7.3377,7.3964,7.4564,7.5162,7.5552,7.592,7.6305,7.6676,7.6722,7.6498,7.6498,7.6043,7.5471,7.5952,7.6262,7.6436,0.0,0.0,0.0,0.0,0.0,0.0,0.0,0.0,0.0,0.0,0.0,0.0,0.0,0.0,0.0,0.0,0.0,0.0,0.0,0.0,0.0,0.0,0.0,0.0,0.0,0.0,0.0,0.0,0.0,0.0,0.0,8.8415,8.8683,8.7842,8.8453,8.8988,8.8988,8.9523,9.0249,9.1013,9.109,9.1586,9.2656,9.2733,9.2847,9.3077,9.3688,9.4032,9.4032,9.4834,9.5255,9.5255,9.561,9.5768,9.5768,9.5768,9.5772,9.5818,9.5686,9.5686,9.5856,9.6385,9.6652,9.6852,9.7737,9.8082,9.8124,9.7897,9.7974,9.8124,9.8082,9.8533,9.9083,0.0,0.0,0.0,0.0,0.0,0.0,7.0967,7.1615,7.1982,7.2459,7.2496,7.2496,7.2496,7.2496,7.2496,7.2496,7.2496,7.2496,7.2496,7.2496,7.2496,7.2496,7.2496,7.2679,7.301,7.345,7.3854,7.4184,7.4916,7.5569,7.625,7.6731,7.7307,7.7832,7.8138,7.8225,7.8182,7.8182,7.8182,7.8225,7.8552,7.8093,7.7324,7.7606,7.7837,7.8022,7.8022,7.8022,7.8022,7.8022,0.0,0.0,0.0,0.0,0.0,0.0,0.0,0.0,0.0,0.0,0.0,0.0,0.0,0.0,0.0,0.0,0.0,0.0,0.0,0.0,0.0,0.0,0.0,0.0,8.9294,8.9791,8.9676,8.9752,8.9982,9.0326,9.0784,9.1434,9.2274,9.2351,9.2695,9.3573,9.365,9.3803,9.4146,9.4643,9.4911,9.4911,9.5369,9.5643,9.5686,9.5686,9.5729,9.5856,9.5729,9.5772,9.5856,9.6069,9.6222,9.6389,9.7188,9.7576,9.7695,9.8661,9.9006,9.8968,0.0,0.0,0.0,0.0,9.972,10.0008,0.0,0.0,0.0,0.0,0.0,0.0,7.1317,7.2055,7.2496,7.2496,7.2496,7.2496,7.2496,7.2496,7.2496,7.2496,7.2496,7.2496,7.2496,7.2496,7.2496,7.261,7.2684,7.3051,7.3865,7.4086,7.4527,7.5264,7.5773,7.6468,7.7229,7.7704,7.8594,7.9794,7.9794,8.004,8.0506,8.0506,8.0506,8.0506,8.0506,7.9362,7.7631,7.7631,7.7911,7.829,7.829,7.829,7.829,7.829,0.0,0.0,0.0,0.0,0.0,0.0,0.0,0.0,0.0,0.0,0.0,0.0,0.0,0.0,0.0,0.0,0.0,0.0,0.0,0.0,0.0,0.0,0.0,0.0,9.0249,9.1013,9.1816,9.1319,9.1166,9.1854,9.193,9.2274,9.3153,9.3268,9.3612,9.449,9.4529,9.4834,9.556,9.5598,0.0,0.0,0.0,9.5686,9.581,9.5686,9.5772,9.5941,9.5849,9.5882,9.6006,9.6757,9.7095,9.7178,9.8069,9.8495,9.8576,9.9505,9.9892,9.9815,9.9089,9.9322,10.009,10.0693,10.0913,10.078,0.0,0.0,0.0,0.0,0.0,0.0,7.205,7.2422,7.2496,7.2496,7.2496,7.2496,7.2496,7.2496,7.2496,7.2496,7.2496,7.2496,7.2496,7.2496,7.2686,7.3141,7.3771,7.4354,7.496,7.6231,7.698,7.7167,7.7904,7.8613,7.9177,7.9267,7.9685,8.0354,8.0354,8.0392,8.0506,8.0506,8.0506,8.0506,8.0506,8.0239,7.9858,7.9858,7.9934,8.0009,8.0009,8.0009,8.0009,8.0009,8.0009,8.0009,8.0009,8.0124,0.0,0.0,0.0,0.0,0.0,0.0,0.0,0.0,0.0,0.0,0.0,0.0,0.0,0.0,0.0,0.0,0.0,0.0,0.0,9.1204,9.1472,9.1854,9.2733,9.2695,9.2656,9.2847,9.2847,9.3191,9.407,9.4146,9.449,9.5293,9.5369,9.5446,9.5598,9.5598,9.5643,9.5768,9.5768,9.5814,9.5859,9.5979,9.6019,9.6058,9.671,0.0,9.7212,9.7897,9.8281,9.848,9.9245,9.967,9.9826,10.0595,10.0979,10.0902,10.0502,10.053,10.0601,10.0703,10.0688,10.0612,0.0,0.0,0.0,0.0,0.0,0.0,7.2365,7.2496,7.2496,7.2496,7.2496,7.2496,7.2496,7.2496,7.2496,7.2496,7.2496,7.261,7.2908,7.2667,7.2927,7.3855,7.4264,7.5133,7.645,7.7276,7.7877,7.829,7.8945,7.9449,7.9708,7.9958,8.0238,8.0506,8.0506,8.0506,8.0506,8.0506,8.0506,8.0506,8.0506,8.0506,8.0506,8.0506,8.0506,8.0506,8.0506,8.0506,8.0506,8.0506,8.0506,8.0582,8.1003,8.1156,8.1308,0.0,0.0,0.0,0.0,0.0,0.0,0.0,0.0,0.0,0.0,0.0,0.0,0.0,0.0,8.9944,8.9944,0.0,9.1319,9.1739,9.216,9.2733,9.365,9.3726,9.3726,9.3764,9.3764,9.407,9.4911,9.4987,9.5178,9.556,9.5643,9.5686,9.5686,9.5729,9.5776,9.5856,9.5856,9.5898,9.5981,9.5981,9.625,9.6789,9.7133,9.7556,9.8096,9.8782,9.9125,9.9285,10.0207,10.0593,10.071,10.1095,10.121,10.1325,10.1383,10.1307,10.0966,10.0913,10.1093,10.1437,0.0,0.0,0.0,0.0,0.0,0.0,7.2496,7.2496,7.2496,7.2496,7.2496,7.2496,7.2496,7.2496,7.2553,7.2667,7.2553,7.2742,7.3364,7.2963,7.3295,7.4723,7.496,7.5994,7.7937,7.8171,7.8586,7.918,7.9665,7.9874,7.9836,8.0315,8.0506,8.0506,8.0506,8.0506,8.0506,8.0506,8.0506,8.0506,8.0506,8.0506,8.0506,8.0506,8.0506,8.0506,8.0506,8.0506,8.0544,8.0697,8.0735,8.0888,8.1767,8.2034,8.2187,8.299,8.3257,0.0,0.0,0.0,0.0,0.0,0.0,0.0,0.0,8.8835,8.937,8.9523,9.0249,9.0822,9.0822,9.151,9.2083,9.2274,9.2886,9.365,9.4529,9.4605,9.4567,9.4643,9.4643,9.4911,9.5522,9.5643,9.5643,9.5643,9.5729,9.5814,9.5814,9.5859,9.59,9.5941,9.5941,9.6057,9.6367,9.625,9.6751,9.775,9.7788,9.817,9.8941,9.9665,9.9968,10.0125,10.0899,10.1285,10.1516,10.1516,10.1592,10.1823,10.2274,10.2205,10.1788,10.1584,10.1882,10.2375,0.0,0.0,0.0,0.0,0.0,0.0,0.0,0.0,7.2496,7.2496,7.2496,7.2496,7.2496,7.2496,7.2686,7.3141,7.2742,7.2926,7.3869,7.3466,7.3952,7.575,7.6587,7.7669,7.9095,7.982,8.024,8.0315,8.0392,8.0392,8.0392,8.0468,8.0506,8.0506,8.0506,8.0506,8.0506,8.0506,8.0506,8.0506,8.0506,8.0506,8.0506,8.0506,8.0506,8.0506,8.0506,8.0506,8.0621,8.1385,8.1652,8.1805,8.2607,8.2875,8.3028,8.3907,8.4136,8.4327,8.5167,8.5932,8.6772,8.7727,8.7957,8.8186,0.0,8.9256,8.9523,9.0287,9.109,9.1663,9.1663,9.2389,9.3191,9.3917,9.4146,9.4529,9.5331,9.5571,9.5615,9.5446,9.5484,9.5484,9.5598,9.5686,9.581,9.581,9.5856,9.59,9.59,9.59,9.5941,9.6098,9.6098,9.6482,9.7365,9.7327,9.775,9.8673,9.9442,9.9827,9.9981,10.0788,10.1096,10.1096,10.1173,10.1673,10.2404,10.2404,10.2904,10.3597,10.3672,10.3712,10.3595,10.3311,10.3301,10.3301,0.0,0.0,0.0,0.0,0.0,0.0,0.0,0.0,7.2496,7.2496,7.2496,7.2496,7.2496,7.2798,7.3193,7.3628,7.3261,7.3261,7.3963,7.3566,7.4176,7.621,7.6928,7.8134,7.9971,8.0315,8.0506,8.0506,8.0506,8.0506,8.0506,8.0506,8.0506,8.0506,8.0506,8.0506,8.0506,8.0506,8.0506,8.0506,8.0506,8.0506,8.0544,8.1041,8.127,8.127,8.127,8.127,0.0,8.2225,8.2493,8.2646,8.3486,8.3754,8.3907,8.4747,8.5358,8.5932,8.6772,8.7269,8.7766,8.8606,8.8797,8.9027,8.9867,9.0058,9.0287,9.1128,9.1586,9.193,9.2465,9.3268,9.3994,9.4299,9.4758,9.526,9.5648,9.5729,9.5772,9.5776,9.5776,9.5772,9.5729,9.5814,9.5856,9.5856,9.5979,9.6019,9.6019,9.6098,9.6136,9.6213,9.6674,9.7097,9.7519,9.8019,9.8673,9.9558,9.9904,10.0289,10.0789,10.1096,10.1289,10.1289,10.1789,10.2289,10.2597,10.3097,10.3597,10.3905,10.4405,10.4597,10.452,10.3894,10.3886,10.4308,0.0,0.0,0.0,0.0,0.0,0.0,0.0,0.0,0.0,0.0,7.2496,7.2496,7.2496,7.3017,7.3466,7.3963,7.3677,7.3725,7.4369,7.3963,7.4666,7.6828,7.7324,7.8444,8.0468,8.0506,8.0506,8.0506,8.0506,8.0506,8.0506,8.0506,8.0506,8.0506,8.0506,8.0506,8.0506,8.0506,8.0506,8.0506,8.0506,8.0621,8.0926,8.1576,8.1958,8.2149,8.2149,8.2149,8.2264,8.3066,8.3333,8.3486,8.4365,8.4632,8.4785,8.5626,8.6467,8.7345,8.8186,8.8415,8.8644,8.9447,8.9676,8.9829,9.0478,9.0784,9.109,9.1663,9.2198,9.2695,9.3344,9.4146,9.472,9.472,9.5216,9.5643,9.581,9.5853,9.5856,9.59,9.5941,9.5979,9.5856,9.5938,9.5941,9.5941,9.6098,9.6136,9.6136,9.6481,9.6634,9.6634,9.7442,9.798,9.8211,9.8827,9.9596,10.0404,10.0404,10.0712,10.1289,10.152,10.1712,10.1712,10.2597,10.3097,10.3289,10.3982,10.4405,10.4597,10.5213,10.5482,10.5405,10.4708,10.4782,10.5319,0.0,0.0,0.0,0.0,0.0,0.0,0.0,0.0,0.0,0.0,0.0,7.2496,7.2496,7.3017,7.3466,7.3963,7.4009,7.4412,7.5392,7.4942,7.5624,7.7835,7.7948,7.8787,8.0468,8.0506,8.0506,8.0506,8.0506,8.0506,8.0506,8.0506,8.0506,8.0506,8.0506,8.0506,8.0506,8.0506,8.0506,8.0506,8.0506,8.1003,8.1767,8.1805,8.2264,8.2951,8.2951,8.2951,8.3104,8.3983,8.425,8.4403,8.5206,8.5473,8.5626,8.6505,8.7384,8.8224,8.9027,8.9256,8.9485,9.0364,9.0555,9.0593,9.0593,9.1204,9.1778,9.1778,9.3153,9.4338,9.4376,9.5025,9.556,9.556,9.556,9.5643,9.581,9.5856,9.59,9.59,9.6136,9.6251,9.6098,9.6098,9.6098,9.6098,9.6213,9.6288,9.6288,9.7057,9.7442,9.7442,9.8288,9.9173,9.9981,9.9981,10.0481,10.1289,10.1289,10.1289,10.1289,10.2212,10.2597,10.2597,10.3482,10.4289,10.4982,10.5097,10.5597,10.629,10.6405,10.6405,10.6405,10.6328,10.6328,10.6287,0.0,0.0,0.0,0.0,0.0,0.0,0.0,0.0,0.0,0.0,0.0,0.0,0.0,0.0,0.0,0.0,7.446,7.4623,7.4942,7.4786,7.5317,7.6614,7.7531,7.8519,7.9665,8.0238,8.0506,8.0506,8.0506,8.0506,8.0506,8.0506,8.0506,8.0506,8.0506,8.0506,8.0506,8.0506,8.0506,8.0544,8.1117,8.1538,8.192,8.3028,8.3639,8.3945,0.0,8.4327,8.3983,8.4824,8.5091,8.5129,8.5397,8.5893,8.6658,8.8071,8.8683,8.9065,8.9944,9.0173,9.0249,9.0555,9.0593,9.0746,9.1281,9.1625,9.2121,9.3306,9.3994,9.4567,9.5102,9.5407,9.5643,9.5686,9.5729,9.5772,9.5979,9.6019,9.6058,9.6136,9.6251,9.6288,9.6251,9.6251,9.6251,9.6251,9.6251,9.6519,9.7057,9.7365,9.7788,9.8327,9.9211,9.9788,10.0096,10.0596,10.1019,10.1289,10.1289,10.1289,10.1289,10.2212,10.2597,10.2712,10.4016,10.4785,10.5097,10.5592,10.6092,10.6405,10.6405,10.6405,10.6405,10.6405,10.6405,10.6405,0.0,0.0,0.0,0.0,0.0,0.0,0.0,0.0,0.0,0.0,0.0,0.0,0.0,0.0,0.0,0.0,0.0,7.498,7.498,7.498,7.5513,7.6653,7.7531,7.8519,7.9738,8.0276,8.0543,8.0616,8.0543,8.0543,8.0505,8.0543,8.0506,8.0506,8.0506,8.0506,8.0506,8.0506,8.0506,8.0582,8.1461,8.1958,8.2378,8.3754,8.448,0.0,8.536,8.5207,8.4824,8.532,8.5511,8.555,8.5893,8.6772,8.7918,8.8988,8.9523,8.9905,9.044,9.0593,9.0593,9.0593,9.0822,9.1166,9.1663,9.2274,9.3038,9.4185,9.4687,9.5031,9.5566,9.5686,9.5772,9.5814,9.5814,9.5898,9.6058,9.6098,9.6136,9.6288,9.6288,9.6288,9.6288,9.6288,9.6288,9.6288,9.6557,9.6942,9.748,9.8096,9.8673,9.925,10.0096,10.0481,10.0481,10.1019,10.1289,10.1289,10.1289,10.152,10.1789,10.2712,10.3212,10.3597,10.49,10.5477,10.5597,10.6092,10.6284,10.6405,10.6405,10.6405,10.6405,10.6405,10.6405,10.6405,0.0,0.0,0.0,0.0,0.0,0.0,0.0,0.0,0.0,0.0,0.0,0.0,0.0,0.0,0.0,0.0,0.0,0.0,7.5501,7.5501,7.6188,7.7793,7.7946,7.8785,8.0461,8.0503,8.0616,8.0792,8.0616,8.0542,8.0614,8.058,8.0506,8.0506,8.0506,8.0506,8.0506,8.0506,8.0506,8.0582,8.1499,8.2302,8.3142,8.406,8.4824,8.5551,8.5667,8.559,8.5511,8.5511,8.5511,8.5664,8.6581,8.7957,8.9256,8.9332,8.9944,9.0593,9.0593,9.0593,9.0593,9.0593,9.1204,9.1816,9.1854,9.3191,9.4414,9.4452,9.5189,9.581,9.581,9.5856,9.59,9.59,9.59,9.5941,9.6098,9.6098,9.6136,9.6288,9.6288,9.6288,9.6288,9.6288,9.6326,9.6365,9.7057,9.7557,9.7634,9.9211,10.0096,10.0173,10.0904,10.1289,10.1289,10.1289,10.1289,10.1289,10.1289,10.1789,10.2597,10.3482,10.4405,10.5097,10.602,10.6405,10.6405,10.6405,10.6405,10.6405,10.6405,10.6405,10.6405,10.6405,10.6405,10.6405,0.0,0.0,0.0,0.0,0.0,0.0,0.0,0.0,0.0,0.0,0.0,0.0,0.0,0.0,0.0,0.0,0.0,0.0,7.5501,7.5501,7.5692,7.6112,7.7367,7.8282,7.8738,8.0037,8.0758,8.0792,8.0758,8.0723,8.0758,8.0723,8.0723,8.0723,8.0723,8.0723,8.0723,8.0723,8.0723,8.0838,8.2332,8.306,8.3367,8.4861,8.555,8.5742,8.5743,8.5705,8.5628,8.5628,8.559,8.5779,8.7307,8.8071,8.8644,8.9905,9.044,9.0593,9.0593,9.0593,9.0593,9.0593,9.1204,9.1969,9.2618,9.3612,9.4567,9.5308,9.5615,9.5853,9.5898,9.59,9.5941,9.6058,9.6058,9.6098,9.6251,9.6251,9.6251,9.6288,9.6288,9.6288,9.6288,9.6288,9.6557,9.7134,9.7365,9.8057,9.9365,9.9865,10.0404,10.1019,10.1212,10.1289,10.1289,10.1289,10.1289,10.1289,10.202,10.2404,10.2597,10.4097,10.4905,10.5097,10.5899,10.6284,10.6405,10.6322,10.6284,10.6405,10.6405,10.6405,10.6405,10.6405,10.6405,10.6405,0.0,0.0,0.0,0.0,0.0,0.0,0.0,0.0,0.0,0.0,0.0,0.0,0.0,0.0,0.0,0.0,0.0,0.0,0.0,7.5501,7.5653,7.5997,7.695,7.7861,7.8693,7.9689,8.0409,8.0965,8.0826,8.0826,8.086,8.0826,8.0792,8.0792,8.0792,8.0792,8.0792,8.0792,8.0792,0.0,0.0,8.3285,8.3476,8.5164,8.5815,8.5815,8.5815,8.5779,8.5742,8.5743,8.5858,8.6314,8.7651,8.8339,8.8874,9.0211,9.0593,9.0593,9.0593,9.0593,9.0669,9.1052,9.1739,9.2618,9.3459,9.4381,9.5151,9.5696,9.5895,9.5938,9.5981,9.6058,9.6098,9.6213,9.6213,9.6213,9.6288,9.6288,9.6288,9.6288,9.6288,9.6288,9.6288,9.6634,9.7173,9.8019,9.8057,9.8673,9.9981,10.0404,10.0789,10.1289,10.1402,10.1504,10.1594,10.171,10.171,10.171,10.2483,10.3112,10.3285,10.4712,10.5371,10.5713,10.6092,10.6284,10.6405,10.6284,10.6284,10.6405,10.6405,10.6405,10.6405,10.6405,10.6405,10.6405,0.0,0.0,0.0,0.0,0.0,0.0,0.0,0.0,0.0,0.0,0.0,0.0,0.0,0.0,0.0,0.0,0.0,0.0,0.0,0.0,7.5806,7.6494,7.6647,7.7479,7.9144,7.9344,7.991,8.0939,8.0855,8.086,8.0926,8.086,8.0826,8.0826,8.0826,8.0826,8.0826,8.0826,8.0826,8.098,8.2668,8.332,8.3512,0.0,8.5852,8.5852,8.5961,8.5887,8.5779,8.5704,8.6163,8.6963,8.7842,8.8644,8.9485,9.0364,9.0593,9.0593,9.0593,9.0593,9.0784,9.1586,9.2465,9.3344,9.4185,9.5113,9.581,9.5853,9.5979,9.6098,9.6098,9.6213,9.6288,9.6288,9.6288,9.6288,9.6288,9.6288,9.6288,9.6288,9.6288,9.6288,9.6288,9.7019,9.7865,9.8711,9.8904,9.9327,10.0212,10.0904,10.1289,10.1404,10.1567,10.1902,10.2094,10.2094,10.2094,10.2094,10.3104,10.3794,10.4312,10.5209,10.6014,10.6486,10.6367,10.6405,10.6405,10.6405,10.6405,10.6405,10.6405,10.6405,10.6405,10.6405,10.6405,10.6405,0.0,0.0,0.0,0.0,0.0,0.0,0.0,0.0,0.0,0.0,7.2496,0.0,0.0,0.0,0.0,0.0,0.0,0.0,0.0,0.0,0.0,7.5692,7.645,7.7016,7.7356,7.8765,7.9599,7.9921,8.0581,8.0959,8.1061,8.1061,8.1061,8.1061,8.1061,8.1061,8.1061,8.1061,8.1061,8.1215,8.2869,8.3561,8.3753,8.5406,8.606,0.0,8.6031,8.589,8.5743,8.5705,8.6163,8.6963,8.7842,8.8644,8.9485,9.0364,9.0593,9.0593,9.0593,9.0593,9.0784,9.1586,9.2465,9.3349,9.4275,9.5198,9.5853,9.6019,9.6058,9.6136,9.6251,9.6288,9.6288,9.6288,9.6288,9.6288,9.6288,9.6288,9.6288,9.6288,9.6288,9.6288,9.6288,9.7019,9.7865,9.8711,9.9481,10.0212,10.1019,10.1212,10.1402,10.16,10.1891,10.2085,10.2094,10.2094,10.2094,10.2094,10.3686,10.44,10.4622,10.5883,10.6614,10.6701,10.6526,10.6405,10.6405,10.6405,10.6405,10.6405,10.6405,10.6405,10.6405,10.6405,10.6405,10.6405,0.0,0.0,0.0,0.0,0.0,0.0,0.0,0.0,0.0,7.2438,7.2496,7.261,0.0,0.0,0.0,0.0,0.0,0.0,0.0,0.0,0.0,7.5501,7.5918,7.6407,7.6863,7.7768,7.8481,7.9006,0.0,8.0369,8.0439,8.09,8.1093,8.1093,8.1093,8.1093,8.1093,8.1093,8.1093,8.1246,8.2939,8.3593,8.3785,8.5478,8.6094,0.0,8.606,8.5996,8.5854,8.5779,8.6547,8.7617,8.7997,8.8644,8.9485,9.0364,9.0593,9.0593,9.0593,9.0593,9.0899,9.216,9.2809,9.3464,9.4849,9.5508,9.5898,9.6058,9.6136,9.6213,9.6288,9.6288,9.6288,9.6288,9.6288,9.6288,9.6288,9.6288,9.6288,9.6288,9.6288,9.6288,9.6288,9.7546,9.8571,9.8995,10.0318,10.1207,10.1504,10.1632,10.1797,10.2094,10.2225,10.24,10.2499,10.2499,10.2499,10.2499,10.3707,10.4516,10.4795,10.601,10.6599,10.6802,10.6709,10.6488,10.6405,10.6405,10.6405,10.6405,10.6405,10.6405,10.6405,10.6405,10.6405,10.6405,0.0,0.0,0.0,0.0,0.0,0.0,0.0,7.0937,7.1671,7.2438,7.2496,7.2496,7.2496,7.2908,7.3364,0.0,0.0,0.0,0.0,0.0,0.0,0.0,0.0,0.0,7.6561,0.0,0.0,7.8091,7.9038,0.0,0.0,0.0,0.0,0.0,8.1093,8.1093,8.1093,8.1093,8.1093,0.0,0.0,8.3439,8.3785,0.0,0.0,0.0,0.0,8.6065,8.5996,8.5887,8.689,8.8231,8.8152,8.8838,8.9714,9.0402,9.0593,9.0593,9.0593,9.0593,9.1013,9.2695,9.3115,9.3578,9.5389,9.5859,9.5941,9.6098,9.6251,9.6288,9.6288,9.6288,9.6288,9.6288,9.6288,9.6288,9.6288,9.6288,9.6288,9.6288,9.6288,9.6325,9.6358,9.8058,9.9211,9.926,10.1114,10.2109,10.1817,10.2007,10.2285,10.2523,10.2514,10.2581,10.2789,10.2789,10.2789,10.2789,10.3687,10.4392,10.5102,10.589,10.6483,10.6898,10.6796,10.6596,10.6405,10.6405,10.6405,10.6405,10.6405,10.6405,10.6405,10.6405,10.6405,10.6405,0.0,0.0,0.0,0.0,0.0,0.0,0.0,7.0937,7.1671,7.2438,7.2496,7.2496,7.2496,7.2553,7.298,0.0,0.0,0.0,0.0,0.0,0.0,0.0,0.0,0.0,0.0,0.0,0.0,7.7144,7.8026,0.0,0.0,0.0,0.0,0.0,0.0,8.1093,8.1093,8.1093,0.0,0.0,0.0,0.0,0.0,0.0,0.0,0.0,0.0,8.6065,8.5996,8.5996,8.6966,8.8231,8.8309,8.9341,9.0517,9.0593,9.0593,9.0593,9.0593,9.0593,9.1013,9.2695,9.3115,9.3578,9.5476,9.59,9.5981,9.6251,9.6288,9.6288,9.6288,9.6288,9.6288,9.6288,9.6288,9.6288,9.6288,9.6288,9.6288,9.6288,9.6288,9.6394,9.6537,9.8176,9.926,9.9483,10.1293,10.2303,10.2109,10.2324,10.2507,10.2484,10.2683,10.282,10.2789,10.2789,10.2789,10.2789,10.3687,10.4506,10.5387,10.6013,10.6605,10.7094,10.689,10.6596,10.6405,10.6405,10.6405,10.6405,10.6405,10.6405,10.6405,10.6405,10.6405,10.6405,0.0,0.0,0.0,0.0,0.0,0.0,0.0,7.057,7.1131,7.238,7.2496,7.2496,7.2496,7.2496,7.2798,0.0,0.0,0.0,0.0,0.0,0.0,0.0,0.0,0.0,0.0,0.0,7.6063,7.6164,7.7105,0.0,0.0,0.0,0.0,0.0,0.0,8.1093,8.1093,8.1093,0.0,0.0,0.0,0.0,0.0,0.0,0.0,0.0,0.0,0.0,8.6026,8.5923,8.6964,8.8346,8.827,8.9419,9.0758,9.0679,9.0635,9.0593,9.0593,9.0593,9.1013,9.2695,9.3158,9.3663,9.5476,9.5941,9.6098,9.6251,9.6288,9.6288,9.6288,9.6288,9.6288,9.6288,9.6288,9.6288,9.6288,9.6288,9.6288,9.6288,9.6425,9.6513,9.656,9.8425,10.0086,10.1398,10.2191,10.2593,10.2504,10.2581,10.2694,10.2694,10.2811,10.2789,10.2789,10.2789,10.2789,10.2789,10.3218,10.3804,10.4584,10.5397,10.6091,10.6722,10.69,10.6898,10.6599,10.6526,10.6405,10.6405,10.6405,10.6405,10.6405,10.6405,10.6405,10.6405,0.0,0.0,0.0,0.0,0.0,0.0,7.0094,7.03,7.0836,7.2285,7.2496,7.2496,7.2496,7.2496,7.2667,7.3034,0.0,0.0,0.0,0.0,0.0,0.0,0.0,0.0,0.0,0.0,7.5566,7.5599,7.6306,7.6792,0.0,0.0,7.9523,7.9862,0.0,0.0,0.0,0.0,0.0,0.0,0.0,0.0,0.0,0.0,0.0,0.0,0.0,0.0,0.0,0.0,0.0,8.8111,8.8232,8.9305,9.0532,9.0683,9.0638,9.0635,9.0593,9.0593,9.1013,9.2695,9.32,9.3785,9.5517,9.5981,9.6136,9.6251,9.6288,9.6288,9.6288,9.6288,9.6288,9.6288,9.6288,9.6288,9.6288,9.6288,9.6288,9.6288,9.6459,9.6568,9.6704,9.8724,10.0799,10.2703,10.2789,10.2789,10.2789,10.2789,10.2789,10.2789,10.2789,10.2789,10.2789,10.2789,10.2789,10.2789,10.2789,10.3296,10.4116,10.4702,10.5308,10.5897,10.6577,10.6716,10.6382,10.6372,10.6405,10.6405,10.6405,10.6405,10.6405,10.6405,10.6405,10.6405,0.0,0.0,0.0,0.0,0.0,0.0,0.0,7.03,7.0836,7.2285,7.2496,7.2496,7.2496,7.2496,7.2496,7.2496,0.0,0.0,0.0,0.0,0.0,0.0,0.0,0.0,0.0,0.0,7.5497,7.5599,7.5599,7.612,7.7124,7.8007,7.8915,7.9862,0.0,0.0,0.0,0.0,0.0,0.0,0.0,0.0,8.3785,0.0,0.0,0.0,0.0,0.0,0.0,0.0,0.0,0.0,0.0,8.896,8.9727,9.0491,9.0719,9.0679,9.0593,9.0593,9.1013,9.2695,9.32,9.3785,9.5517,9.5981,9.6136,9.6251,9.6288,9.6288,9.6288,9.6288,9.6288,9.6288,9.6288,9.6288,9.6288,9.6288,9.6288,9.6288,9.6288,9.6492,9.6959,9.8981,10.0993,10.2711,10.2789,10.2789,10.2789,10.2789,10.2789,10.2789,10.2789,10.2789,10.2789,10.2789,10.2789,10.2789,10.2789,10.3296,10.4116,10.4116,10.4411,10.5,10.5683,10.5796,10.5575,10.618,10.6405,10.6405,10.6405,10.6405,10.6405,10.6405,10.6405,10.6405,0.0,0.0,0.0,0.0,0.0,0.0,0.0,7.03,7.0836,7.2285,7.2496,7.2496,7.2496,7.2496,7.2496,7.2496,0.0,0.0,0.0,0.0,0.0,0.0,0.0,0.0,0.0,0.0,7.5535,7.5497,7.5566,7.5786,7.612,7.7061,7.7969,7.8884,7.9792,8.0554,0.0,0.0,0.0,0.0,0.0,8.3593,8.3785,0.0,0.0,0.0,0.0,0.0,0.0,0.0,0.0,0.0,0.0,0.0,0.0,9.0531,9.0759,9.0799,9.0679,9.0758,9.1028,9.2138,9.2986,9.3793,9.4907,9.5714,9.6251,9.6288,9.6288,9.6288,9.6288,9.6288,9.6288,9.6288,9.6288,9.6288,9.6288,9.6425,9.6513,9.6513,9.6812,9.7324,9.8293,9.9553,10.0681,10.1813,10.2515,10.2789,10.2789,10.2789,10.2789,10.2789,10.2789,10.2789,10.2789,10.2789,10.2789,10.2789,10.2789,10.2906,10.3218,10.3804,10.4216,10.4411,10.5,10.5488,10.5824,10.5802,10.5986,10.6405,10.6405,10.6405,10.6405,10.6405,10.6405,10.6405,0.0,0.0,0.0,0.0,0.0,0.0,0.0,7.03,7.0836,7.2285,7.2496,7.2496,7.2496,7.2496,7.2496,7.2496,0.0,0.0,0.0,0.0,0.0,0.0,0.0,0.0,0.0,7.5501,7.5501,7.5501,7.5532,7.5566,7.5638,7.658,7.7521,7.843,7.9338,8.0254,0.0,0.0,0.0,0.0,8.2939,8.3593,8.3785,0.0,0.0,0.0,0.0,0.0,0.0,0.0,0.0,0.0,0.0,0.0,0.0,0.0,9.0799,9.0915,9.0759,9.0759,9.103,9.1912,9.2603,9.3409,9.4561,9.5329,9.5903,9.6249,9.6288,9.6288,9.6288,9.6288,9.6288,9.6288,9.6288,9.6325,9.639,9.6545,9.6619,9.6732,9.7071,9.7734,9.8743,9.9415,10.029,10.1383,10.2008,10.2515,10.2789,10.2789,10.2789,10.2789,10.2789,10.2789,10.2789,10.2789,10.2789,10.2789,10.2789,10.2789,10.2789,10.3413,10.3608,10.36,10.418,10.4715,0.0,10.5013,10.5396,10.6102,10.5869,10.6097,10.6405,10.6405,10.6405,10.6405,0.0,0.0,0.0,0.0,0.0,0.0,0.0,0.0,0.0,0.0,7.2496,7.2496,7.2496,7.2496,7.2496,0.0,0.0,0.0,0.0,0.0,0.0,0.0,0.0,0.0,0.0,7.5501,7.5501,7.5501,7.5501,7.5497,7.5638,7.6442,7.7385,7.843,7.9236,8.0184,0.0,0.0,0.0,0.0,8.2862,8.3516,0.0,0.0,0.0,0.0,0.0,0.0,0.0,0.0,0.0,0.0,0.0,0.0,0.0,0.0,0.0,0.0,0.0,9.0719,9.0913,9.1836,9.2143,9.2718,9.4331,9.4867,0.0,9.6134,9.6288,9.6288,9.6288,9.6288,9.6288,9.6325,9.6325,9.639,9.6628,9.6648,9.6759,9.7027,9.7221,9.7628,9.846,9.8831,9.9666,10.1188,10.1383,10.1891,10.2711,10.2789,10.2789,10.2789,10.2789,10.2789,10.2789,10.2789,10.2789,10.2789,10.2789,10.2789,10.2789,10.2789,10.2789,10.2781,10.3414,10.3692,10.3698,10.4,10.4706,10.5377,10.5215,10.5601,10.6292,10.6407,10.6407,10.6407,0.0,0.0,0.0,0.0,0.0,0.0,0.0,0.0,0.0,0.0,7.2496,7.2496,7.2496,7.2496,7.2496,0.0,0.0,0.0,0.0,0.0,0.0,0.0,0.0,0.0,0.0,7.5501,7.5501,7.5501,7.5501,7.5535,7.5535,7.5795,7.6743,7.8194,7.8519,7.9607,0.0,0.0,0.0,0.0,8.2208,8.2978,0.0,0.0,0.0,0.0,8.6094,8.6094,0.0,0.0,0.0,0.0,0.0,0.0,0.0,0.0,9.0799,9.0915,9.0953,0.0,9.1141,9.137,9.1944,9.2713,0.0,9.4518,9.5249,9.6134,9.6288,9.6288,9.6288,9.6288,9.6358,9.6513,9.6545,9.6628,9.6888,9.703,9.7238,9.7511,9.7593,9.768,9.7875,9.8557,9.9158,9.9548,10.0798,10.1618,10.1813,10.2398,10.2789,10.2789,10.2789,10.2789,10.2789,10.2789,10.2789,10.2789,10.2789,10.2789,10.2789,10.2789,10.2789,10.2789,10.288,10.3283,10.3715,10.3783,10.4183,10.4881,10.5486,10.5697,10.5817,10.6512,10.6601,10.6488,0.0,0.0,0.0,0.0,0.0,0.0,0.0,0.0,0.0,0.0,0.0,0.0,0.0,0.0,0.0,0.0,0.0,0.0,0.0,0.0,0.0,0.0,0.0,0.0,7.5501,7.5501,7.5501,7.5501,7.5501,7.5501,7.5501,7.557,7.6484,7.8126,7.9067,0.0,0.0,0.0,0.0,8.1068,8.1977,0.0,0.0,0.0,0.0,0.0,8.6099,8.6026,0.0,8.5923,8.589,8.6084,0.0,0.0,0.0,0.0,9.0453,9.0838,9.0915,9.1028,9.11,9.121,9.1556,9.221,9.3441,9.4057,9.4749,9.6057,9.6288,9.6288,9.6288,9.6394,9.6448,9.6598,9.6704,9.6888,9.7091,9.7355,9.7544,9.7667,9.7714,9.7714,9.7714,9.8143,9.8572,9.8963,9.9822,10.0485,10.0915,10.1383,10.1696,10.1696,10.2008,10.2398,10.2789,10.2789,10.2789,10.2789,10.2789,10.2789,10.2789,10.2789,10.2789,10.2789,10.2789,10.2997,10.3322,10.3216,10.3586,10.4287,10.5016,10.5489,10.5817,10.6727,10.6873,10.6812,0.0,0.0,0.0,0.0,0.0,0.0,0.0,0.0,0.0,0.0,0.0,0.0,0.0,0.0,0.0,0.0,0.0,0.0,0.0,0.0,0.0,0.0,0.0,7.4903,7.5392,7.5427,7.5501,7.5501,7.5501,7.5501,7.5501,7.5501,7.645,7.8164,7.9957,0.0,0.0,0.0,8.0855,8.0965,8.176,0.0,0.0,0.0,0.0,0.0,0.0,0.0,0.0,8.5852,8.5742,8.582,8.6662,0.0,0.0,0.0,0.0,0.0,9.0838,9.0953,9.1028,9.1136,9.1175,9.1598,9.3326,9.371,9.4172,9.5942,9.6288,9.6288,9.6322,9.6481,9.6619,9.6704,9.692,9.7168,9.7355,9.7544,9.7714,9.7714,9.7714,9.7714,9.7714,9.7714,9.8026,9.8768,9.8924,9.9314,10.0095,10.0212,10.029,10.029,10.0993,10.1696,10.2398,10.2711,10.2789,10.2789,10.2789,10.2789,10.2789,10.2789,10.2789,10.2789,10.2789,10.2789,10.2781,10.2608,10.2904,10.3591,10.4289,10.4983,10.5894,10.6699,10.7088,10.7282,0.0,0.0,0.0,0.0,0.0,0.0,0.0,0.0,0.0,0.0,0.0,0.0,0.0,0.0,0.0,0.0,0.0,0.0,0.0,0.0,0.0,0.0,7.4243,7.4745,7.4825,7.5281,7.5501,7.5501,7.5501,7.5501,7.5501,7.5501,7.645,7.8164,7.9848,8.0685,8.0826,0.0,8.0826,8.0826,8.1042,0.0,0.0,0.0,0.0,0.0,0.0,0.0,0.0,8.5852,8.5742,8.582,8.6662,0.0,0.0,0.0,0.0,0.0,9.0838,9.0953,9.0989,9.1028,9.1028,9.1487,9.3287,9.371,9.4172,9.5942,9.6288,9.6358,9.6545,9.6598,9.672,9.7129,9.7435,9.7602,9.7611,9.7667,9.7714,9.7714,9.7714,9.7714,9.7714,9.7714,9.7753,9.7909,9.8572,9.908,9.9197,9.99,10.029,10.029,10.0407,10.0485,10.0681,10.2086,10.2789,10.2789,10.2789,10.2789,10.2789,10.2789,10.2789,10.2789,10.2789,10.2789,10.2789,10.2811,10.2802,10.2997,10.3885,10.461,10.5188,10.6085,10.6793,10.742,0.0,0.0,0.0,0.0,0.0,0.0,0.0,0.0,0.0,0.0,0.0,0.0,0.0,0.0,0.0,0.0,0.0,0.0,0.0,0.0,0.0,7.2853,7.3529,7.4064,7.4287,7.454,7.4824,7.5095,7.5095,7.5245,7.5501,7.6418,7.7294,7.8164,7.9777,8.0578,8.0685,8.0685,8.0685,8.0685,0.0,0.0,0.0,0.0,0.0,0.0,0.0,0.0,0.0,0.0,8.5628,8.5666,8.6049,0.0,0.0,0.0,0.0,0.0,9.0717,9.0758,9.0799,9.0915,9.1028,9.1562,9.3326,9.371,9.4172,9.5942,9.6288,9.6325,9.6425,9.6545,9.6747,9.7216,9.7533,9.7714,9.7714,9.7714,9.7714,9.7714,9.7714,9.7714,9.7714,9.7714,9.7714,9.7714,9.8065,9.8299,9.8299,9.869,9.8885,9.8885,9.9353,9.9588,9.9588,10.0798,10.1383,10.15,10.1891,10.2086,10.2086,10.2593,10.2789,10.2789,10.2789,10.2789,10.2789,10.2789,10.2796,10.2881,10.3779,10.4319,10.4693,10.599,10.7005,10.7708,0.0,0.0,0.0,0.0,0.0,0.0,0.0,0.0,0.0,0.0,0.0,0.0,0.0,0.0,0.0,0.0,0.0,0.0,0.0,0.0,7.2496,7.2496,7.2908,7.3313,7.3821,7.3963,7.4192,7.454,7.4664,7.498,7.5539,7.722,7.802,7.8168,7.9779,8.0505,8.0578,8.0578,8.0578,8.0578,0.0,0.0,0.0,0.0,0.0,0.0,0.0,0.0,0.0,0.0,0.0,0.0,0.0,0.0,0.0,8.811,8.9294,9.0593,9.0593,9.0593,9.0676,9.0799,9.0992,9.1562,9.3326,9.371,9.4172,9.5942,9.6288,9.6325,9.6358,9.6545,9.6824,9.7216,9.7472,9.7611,9.7675,9.7714,9.7714,9.7714,9.7714,9.7714,9.7714,9.7714,9.7714,9.7714,9.7714,9.7714,9.7714,9.7714,9.7714,9.7714,9.8338,9.869,9.869,9.9353,9.99,10.029,10.0915,10.1188,10.1188,10.2086,10.2515,10.2515,10.2711,10.2789,10.2796,10.2796,10.2803,10.29,10.3603,10.412,10.4597,10.6089,10.7303,10.8008,0.0,0.0,0.0,0.0,0.0,0.0,0.0,0.0,0.0,0.0,0.0,0.0,0.0,0.0,0.0,0.0,0.0,0.0,0.0,0.0,7.2496,7.2496,7.2553,7.2798,7.335,7.3774,7.4009,7.4056,7.446,7.498,7.5539,7.722,7.7984,7.8061,7.9742,8.0506,8.0506,8.0506,8.0506,8.0543,8.0578,0.0,0.0,0.0,0.0,0.0,0.0,0.0,0.0,0.0,0.0,0.0,0.0,0.0,8.811,8.811,8.9294,9.0593,9.0593,9.0676,9.0719,9.0719,9.0799,9.1414,9.329,9.371,9.4172,9.5942,9.6288,9.6358,9.6537,9.6812,9.703,9.7271,9.7316,9.7409,9.7667,9.7714,9.7714,9.7714,9.7714,9.7714,9.7714,9.7714,9.7714,9.7714,9.7714,9.7714,9.7714,9.7714,9.7714,9.7714,9.7753,9.7792,9.7792,9.787,9.869,10.029,10.0407,10.0407,10.0407,10.1188,10.1618,10.1618,10.2398,10.2796,10.2816,10.2816,10.2783,10.2914,10.2992,10.3894,10.5386,10.6406,10.7304,10.8008,0.0,0.0,0.0,0.0,0.0,0.0,0.0,0.0,0.0,0.0,0.0,0.0,0.0,0.0,0.0,0.0,0.0,0.0,0.0,7.2496,7.2496,7.2496,7.2496,7.261,7.2798,7.298,7.3209,7.3566,7.4331,7.5051,7.5817,7.7302,7.829,7.8863,7.9971,8.0506,8.0506,8.0506,8.0506,8.0506,8.0578,8.1573,0.0,0.0,0.0,0.0,0.0,0.0,0.0,0.0,8.5511,8.5511,8.5511,8.6314,8.7384,8.7918,8.8912,8.9905,9.044,9.0676,9.0719,9.0719,9.1222,9.2104,9.3331,9.3637,9.4137,9.5942,9.6288,9.6325,9.639,9.6598,9.6786,9.6849,9.7009,9.7204,9.7409,9.746,9.7533,9.7667,9.7714,9.7714,9.7714,9.7714,9.7714,9.7714,9.7714,9.7714,9.7714,9.7714,9.7714,9.7714,9.7714,9.7714,9.7714,9.7714,9.8026,9.869,9.9236,9.9509,9.9509,10.0407,10.0805,10.0819,10.1717,10.2113,10.2085,10.2593,10.2914,10.2884,10.2886,10.3905,10.5507,10.5781,10.6797,10.8008,0.0,0.0,0.0,0.0,0.0,0.0,0.0,0.0,0.0,0.0,0.0,0.0,0.0,0.0,0.0,0.0,0.0,0.0,7.2496,7.2496,7.2496,7.2496,7.2496,7.2496,7.2496,7.2496,7.2723,7.3034,7.4018,7.4998,7.5994,7.7379,7.8481,7.9321,8.0124,8.0506,8.0506,8.0506,8.0506,8.0506,8.0542,8.1574,0.0,0.0,0.0,0.0,0.0,0.0,0.0,0.0,8.5511,8.5511,8.5511,8.6123,8.6963,8.7842,8.8683,8.9485,9.0364,9.0676,9.0719,9.0719,9.126,9.2104,9.2987,9.3639,9.4406,9.5634,9.6095,9.6288,9.6288,9.6425,9.6545,9.6598,9.6759,9.6943,9.7147,9.7271,9.7383,9.7544,9.7659,9.7714,9.7714,9.7714,9.7714,9.7714,9.7714,9.7714,9.7714,9.7714,9.7714,9.7714,9.7714,9.7714,9.7714,9.7714,9.7714,9.7721,9.8306,9.858,9.8619,9.9478,9.9881,9.9932,10.0791,10.1308,10.1589,10.2214,10.2689,10.2888,10.289,10.3789,10.5117,10.539,10.6406,10.7617,0.0,0.0,0.0,0.0,0.0,0.0,0.0,0.0,0.0,0.0,0.0,0.0,0.0,0.0,0.0,0.0,0.0,0.0,7.2496,7.2496,7.2496,7.2496,7.2496,7.2496,7.2496,7.2496,7.2496,7.2496,7.3529,7.4695,7.6032,7.7379,7.8481,7.9321,8.0124,8.0506,8.0506,8.0506,8.0506,8.0506,8.0506,8.1499,8.299,0.0,0.0,0.0,0.0,0.0,0.0,0.0,8.5511,8.5511,8.5511,8.6084,8.6963,8.7842,8.8644,8.9485,9.0364,9.0676,9.0719,9.0719,9.0799,9.1184,9.2066,9.3676,9.498,9.5018,9.5711,9.6288,9.6288,9.6288,9.6358,9.6568,9.659,9.6676,9.6959,9.7186,9.7301,9.7301,9.7544,9.7714,9.7714,9.7714,9.7714,9.7714,9.7714,9.7714,9.7714,9.7714,9.7714,9.7714,9.7714,9.7714,9.7714,9.7714,9.7682,9.7701,9.7701,9.7701,9.774,9.8599,9.8995,9.9047,9.9906,10.0808,10.1597,10.1597,10.2108,10.289,10.289,10.3398,10.4297,10.5195,10.6014,10.6793,0.0,0.0,0.0,0.0,0.0,0.0,0.0,0.0,0.0,0.0,0.0,0.0,0.0,0.0,0.0,0.0,0.0,0.0,7.2496,7.2496,7.2496,7.2496,7.2496,7.2496,7.2496,7.2496,7.2496,7.2496,7.4126,7.5417,7.6391,7.8102,7.936,8.0162,8.0391,8.0506,8.0506,8.0506,8.0506,8.0506,8.0506,8.1499,8.299,0.0,0.0,0.0,0.0,0.0,0.0,0.0,0.0,0.0,8.5511,8.5702,8.6199,8.7651,8.8262,8.8759,9.0211,9.0717,9.0799,9.0719,9.1376,9.191,9.1489,9.2755,9.4368,9.5672,9.6134,9.6288,9.6288,9.6288,9.6325,9.6394,9.639,9.6454,9.6676,9.692,9.7168,9.7286,9.7544,9.7714,9.7714,9.7714,9.7714,9.7714,9.7714,9.7714,9.7714,9.7714,9.7714,9.7714,9.7714,9.7682,9.7695,9.7695,9.7701,9.7715,9.7715,9.7715,9.7715,9.7989,9.8071,9.8119,9.9017,9.9527,9.9882,10.1093,10.2109,10.289,10.2889,10.3396,10.4294,10.5111,10.579,10.6519,0.0,0.0,0.0,0.0,0.0,0.0,0.0,0.0,0.0,0.0,7.2321,7.2496,0.0,0.0,0.0,0.0,0.0,0.0,0.0,7.2496,7.2496,7.2496,7.2496,7.2642,7.2973,7.2973,7.312,7.345,7.4465,7.5558,7.668,7.8268,7.9437,8.0199,8.0392,8.0506,8.0506,8.0506,8.0506,8.0506,8.0506,8.1499,8.299,0.0,0.0,0.0,0.0,0.0,0.0,0.0,0.0,0.0,8.5511,8.5511,8.5779,8.7154,8.7615,8.7999,8.9679,9.03,9.0532,9.0762,9.1412,9.1941,9.1677,9.2676,9.406,9.548,9.6057,9.6288,9.6288,9.6288,9.6288,9.6288,9.6288,9.6322,9.6487,9.6759,9.7048,9.7186,9.7472,9.7714,9.7714,9.7714,9.7714,9.7714,9.7714,9.7714,9.7714,9.7682,9.7689,9.7689,9.7695,9.7701,9.7706,9.7706,9.7715,9.7687,9.7687,9.7687,9.7689,9.7687,9.7689,9.7732,9.863,9.9218,9.9609,10.1015,10.2105,10.2718,10.2705,10.2999,10.3514,10.4705,10.5312,10.5796,0.0,0.0,0.0,0.0,0.0,0.0,0.0,0.0,0.0,0.0,7.1951,7.2438,0.0,0.0,0.0,0.0,0.0,0.0,0.0,0.0,7.2496,7.2496,7.2569,7.2973,7.378,7.3817,7.4184,7.5028,7.4848,7.5453,7.6902,7.8041,7.8945,7.9708,8.0199,8.043,8.0506,8.0506,8.0506,8.0506,8.0506,8.1461,8.2875,8.2951,0.0,0.0,0.0,0.0,0.0,0.0,0.0,0.0,8.5511,8.5511,8.5664,8.6543,8.6852,8.7274,8.9035,8.965,8.9991,9.0797,9.11,9.1402,9.221,9.3018,9.3826,9.4711,9.5557,9.6172,9.6172,9.6249,9.6288,9.6288,9.6288,9.6288,9.6288,9.6687,9.6982,9.7005,9.7369,9.7667,9.7714,9.7714,9.7714,9.7714,9.7714,9.7721,9.7721,9.7695,9.7701,9.7701,9.7715,9.768,9.768,9.768,9.7687,9.7691,9.7691,9.7694,9.7695,9.7694,9.7694,9.7733,9.8514,9.9335,10.0191,10.1085,10.1795,10.2382,10.2386,10.2289,10.2304,10.4113,10.4616,10.4782,0.0,0.0,0.0,0.0,0.0,0.0,0.0,0.0,0.0,0.0,0.0,0.0,0.0,0.0,0.0,0.0,0.0,0.0,0.0,0.0,7.2496,7.2496,7.3083,7.3817,7.4625,7.4661,7.5028,7.5836,7.6217,7.6567,7.6902,7.8179,7.9123,7.9708,7.9794,8.0119,8.0506,8.0506,8.0506,8.0506,8.0506,8.1117,8.2111,8.276,8.3639,0.0,0.0,0.0,0.0,0.0,0.0,0.0,8.5511,8.5511,8.5664,8.6543,8.6852,8.7274,8.9035,8.965,8.9991,9.0797,9.11,9.1248,9.1441,9.2133,9.2979,9.3787,9.4672,9.5288,9.5288,9.5826,9.6288,9.6288,9.6288,9.6288,9.6288,9.6513,9.6786,9.6982,9.7238,9.7472,9.7667,9.7714,9.7682,9.7695,9.7695,9.7701,9.7711,9.7715,9.7715,9.7715,9.7719,9.7684,9.7689,9.7689,9.7691,9.7695,9.7695,9.7652,9.7544,9.7654,9.7611,9.7487,9.7682,9.8139,9.8797,9.9678,10.052,10.121,10.1914,10.2207,10.2321,10.4005,10.4519,10.4489,0.0,0.0,0.0,0.0,0.0,0.0,0.0,0.0,0.0,0.0,0.0,0.0,0.0,0.0,0.0,0.0,0.0,0.0,0.0,0.0,7.3266,7.3634,7.4037,7.4661,7.5469,7.5469,7.5873,7.668,7.6943,7.7082,7.7082,7.8069,7.8791,7.9358,7.9621,7.9999,8.0506,8.0506,8.0506,8.0506,8.0506,8.1003,8.1843,8.2264,8.3219,8.4327,8.4785,0.0,0.0,0.0,0.0,0.0,0.0,0.0,8.5588,8.6046,8.624,8.6624,8.8002,8.846,8.8838,9.0142,9.0829,9.121,9.121,9.1556,9.2018,9.2402,9.348,9.4364,9.4364,9.5095,9.5557,9.5134,9.5749,9.6134,9.5749,9.6217,9.6704,9.6982,9.7186,9.7409,9.7682,9.7337,9.707,9.7086,9.6696,9.6461,9.6469,9.6473,9.6515,9.6515,9.6908,9.7145,9.7147,9.7499,9.7656,9.7602,9.7602,9.7493,9.7316,9.7368,9.7358,9.724,9.7227,9.7637,9.8374,9.9211,9.9985,10.0687,10.1608,10.1786,10.1903,10.3197,10.3803,10.4209,0.0,0.0,0.0,0.0,0.0,0.0,0.0,0.0,0.0,0.0,0.0,0.0,0.0,0.0,0.0,0.0,0.0,0.0,0.0,0.0,0.0,7.5065,7.5139,7.5506,7.6276,7.6313,7.6644,7.7304,7.7304,7.7304,7.7304,7.7768,7.8255,7.8791,7.9311,7.9836,8.0354,8.0468,8.0506,8.0506,8.0506,8.0926,8.1576,0.0,0.0,8.3907,8.4021,8.4594,8.5282,8.5282,0.0,0.0,0.0,0.0,8.5511,8.5511,8.559,8.5896,8.6852,8.7269,8.7837,8.9483,9.0441,9.1018,9.1171,9.121,9.121,9.121,9.2402,9.348,9.348,9.421,9.4518,9.3826,9.4903,9.5632,9.4972,9.5625,9.6267,9.6582,9.6771,9.6953,9.7226,9.6607,9.6188,9.6196,9.5536,9.5106,9.5106,9.515,9.5191,9.5191,9.5898,9.625,9.6209,9.7029,9.7368,9.7221,9.7358,9.7279,9.7069,9.7013,9.6974,9.7012,9.6974,9.7302,9.7998,9.8807,9.9591,10.0303,10.1091,10.1392,10.1404,10.2289,10.3212,10.3982,0.0,0.0,0.0,0.0,0.0,0.0,0.0,0.0,0.0,0.0,6.9954,0.0,0.0,0.0,0.0,0.0,0.0,0.0,7.4698,0.0,0.0,7.5909,7.5946,7.6313,7.7157,7.7157,7.7194,7.7304,7.7304,7.7304,7.7304,7.7365,7.771,7.8255,7.8741,7.9311,7.9836,8.0315,8.0506,8.0506,8.0506,8.0582,0.0,0.0,0.0,0.0,8.2913,8.3715,8.4441,8.4441,8.4938,0.0,0.0,0.0,8.5511,8.5511,8.559,8.5896,8.6852,8.7801,8.8748,8.9671,8.9979,9.0287,9.1018,9.121,9.121,9.121,9.1979,9.2672,9.2672,9.3326,9.3826,9.371,9.3903,9.4086,9.4188,9.4336,9.4574,9.505,9.5135,9.5212,9.5446,9.5333,9.5298,9.5346,9.5268,9.5191,9.5195,9.5195,9.5195,9.5195,9.5312,9.5309,9.5118,9.5971,9.6323,9.62,9.6721,9.6943,9.6824,9.6598,9.656,9.6669,9.6669,9.6628,9.6621,9.7431,9.8243,9.9131,9.998,10.0673,10.1404,10.2289,10.3212,10.3982,0.0,0.0,0.0,0.0,0.0,0.0,0.0,0.0,0.0,0.0,0.0,7.075,0.0,0.0,0.0,7.4294,7.4368,7.4698,7.5542,7.6019,7.6423,7.679,7.679,7.6937,7.7304,7.7304,7.7304,7.7304,7.7304,7.7304,7.7304,7.7304,7.757,0.0,0.0,0.0,0.0,8.0238,8.0506,8.0506,8.0506,8.0506,0.0,0.0,0.0,0.0,0.0,0.0,8.3563,8.3563,8.4136,8.4824,8.4824,0.0,0.0,0.0,8.559,8.5819,8.6312,8.7183,8.8055,8.8402,8.8863,8.9325,8.971,8.9787,8.994,9.0402,9.0787,9.121,9.1672,9.2476,9.2896,9.2434,9.3235,9.3753,9.3463,9.3865,9.4319,9.4732,9.482,9.487,9.5145,9.4718,9.4447,9.4452,9.4022,9.375,9.375,9.375,9.375,9.375,9.4132,9.4309,9.4239,9.4978,9.5484,9.5788,9.5868,9.6143,9.6576,9.639,9.639,9.6474,9.6448,9.6352,9.6365,9.7173,9.8019,9.8904,9.975,10.0596,10.1289,10.1712,10.2712,10.3982,0.0,0.0,0.0,0.0,0.0,0.0,0.0,0.0,0.0,0.0,0.0,0.0,0.0,0.0,0.0,0.0,7.5212,7.5542,7.635,7.6974,7.7304,7.7304,7.7304,7.7304,7.7304,7.7304,7.7304,7.7304,7.7304,7.7304,7.7304,7.7304,7.751,0.0,7.8469,7.8989,0.0,0.0,0.0,0.0,0.0,0.0,0.0,0.0,0.0,0.0,0.0,0.0,0.0,8.2684,8.3257,8.3983,8.3983,8.4518,0.0,0.0,0.0,8.578,8.5961,8.6526,8.7132,8.7325,8.7902,8.844,8.8632,8.8709,8.8863,8.9513,8.9628,8.9821,9.0509,9.1506,9.204,9.1418,9.2512,9.3263,9.2751,9.3231,9.3803,9.4188,9.4255,9.4331,9.4527,9.3943,9.3554,9.3554,9.2969,9.2617,9.2617,9.2617,9.2577,9.2494,9.3009,9.327,9.317,9.385,9.4617,9.548,9.5245,9.5546,9.6358,9.6325,9.6325,9.6358,9.6325,9.6288,9.6365,9.6942,9.7711,9.8557,9.9442,10.0289,10.1019,10.1211,10.2211,10.3518,0.0,0.0,0.0,0.0,0.0,0.0,0.0,0.0,0.0,0.0,0.0,0.0,0.0,7.3344,7.4424,7.5922,7.6056,7.6387,7.7194,7.7304,7.7304,7.7304,7.7304,0.0,7.7304,7.7304,7.7304,7.7304,7.7304,7.7304,7.7304,7.7304,7.7304,7.7365,7.7903,7.8469,7.8989,0.0,0.0,0.0,0.0,0.0,0.0,0.0,0.0,0.0,0.0,0.0,0.0,0.0,8.2378,8.3066,8.3066,8.3639,8.4365,0.0,0.0,0.0,8.5961,8.6065,8.6363,8.7171,8.744,8.7671,8.8517,8.8709,8.8743,8.8848,8.8881,8.8881,8.9015,9.0301,9.138,9.1368,9.1638,9.1882,9.2015,9.2185,9.2389,9.2687,9.2693,9.2734,9.2734,9.2695,9.2656,9.2656,9.2617,9.2617,9.2617,9.2617,9.2492,9.2233,9.2264,9.2132,9.182,9.2461,9.356,9.5118,9.5084,9.555,9.6288,9.6288,9.6288,9.6288,9.6288,9.6288,9.6288,9.6365,9.6826,9.7634,9.8519,9.9404,10.0212,10.0901,10.1705,10.2589,0.0,0.0,0.0,0.0,0.0,0.0,0.0,0.0,0.0,0.0,0.0,0.0,0.0,7.4573,7.5739,7.6766,7.69,7.7011,7.7304,7.7304,7.7304,7.7304,7.7304,7.7304,7.7304,7.7304,7.7304,7.7304,7.7304,7.7304,7.7304,7.7304,7.7304,7.7304,7.7846,7.8416,7.894,7.9449,0.0,0.0,0.0,0.0,0.0,0.0,0.0,0.0,0.0,0.0,0.0,0.0,0.0,0.0,0.0,8.2798,8.3601,8.4289,8.5164,8.5923,8.6026,8.606,8.617,8.6478,8.6555,8.6632,8.6978,8.705,8.7269,8.7879,8.7988,8.8205,8.8837,8.9454,9.0003,9.0574,9.0882,9.1276,9.1981,9.2206,9.2384,9.2576,9.2617,9.2617,9.2617,9.2616,9.2615,9.2615,9.2613,9.2525,9.2333,9.2333,9.2247,9.2002,9.1914,9.1734,9.1504,9.1708,9.2382,9.3504,9.3974,9.4631,9.548,9.6057,9.6288,9.6288,9.6213,9.6136,9.6136,9.6136,9.6597,9.7402,9.8285,9.913,9.9936,10.0816,10.1622,10.2385,0.0,0.0,0.0,0.0,0.0,0.0,0.0,0.0,0.0,0.0,0.0,0.0,0.0,0.0,7.5785,7.6856,7.7181,7.7304,7.7304,7.7304,7.7304,7.7304,7.7304,7.7304,7.7304,7.7047,7.7047,7.7304,7.7047,7.7047,7.7304,7.7304,7.7304,7.7304,7.7846,7.8416,0.0,0.0,0.0,8.0506,0.0,0.0,8.0506,0.0,0.0,0.0,0.0,0.0,0.0,0.0,0.0,0.0,0.0,0.0,8.2836,8.3898,8.4656,8.5224,8.5599,8.5709,8.5747,8.6017,8.6126,8.6126,8.6126,8.6191,8.6439,8.7017,8.7194,8.7408,8.8074,8.819,8.8566,8.9797,9.0181,9.0569,9.1236,9.146,9.163,9.1719,9.1718,9.1717,9.1717,9.1715,9.1713,9.1713,9.1658,9.1546,9.1369,9.1559,9.17,9.1762,9.1605,9.1445,9.1303,9.1275,9.1698,9.2584,9.3361,9.4172,9.5018,9.5903,9.6251,9.6251,9.6136,9.6098,9.6098,9.6058,9.6326,9.6859,9.8047,9.8814,9.9428,10.0497,10.1302,10.1795,0.0,0.0,0.0,0.0,0.0,0.0,0.0,0.0,0.0,0.0,0.0,0.0,0.0,0.0,0.0,7.6068,7.6893,7.7304,7.7304,7.7304,7.7304,7.7304,7.7304,7.7304,7.7304,7.6533,7.6533,7.7304,7.6533,7.6533,7.7304,7.7304,7.7304,7.7365,7.7846,7.8416,7.894,0.0,7.9538,8.0506,0.0,8.0506,8.0506,0.0,0.0,0.0,8.0506,8.0506,0.0,8.0506,0.0,0.0,0.0,0.0,0.0,0.0,0.0,8.3615,0.0,0.0,0.0,8.5863,8.612,8.6184,8.6184,8.6285,8.6414,8.65,8.65,8.6528,8.6583,8.661,8.7191,8.9038,8.9441,8.9637,8.9774,8.9918,8.9996,8.9996,8.9992,8.9986,8.9986,8.9986,8.9986,8.9986,8.9813,8.9681,8.9671,9.0244,9.0848,9.1437,9.1291,9.121,9.121,9.121,9.1633,9.2479,9.3287,9.4134,9.498,9.5903,9.6213,9.6098,9.6098,9.6098,9.6098,9.5941,9.59,9.6054,9.7779,9.8469,9.8699,10.0218,10.0825,10.0895,0.0,0.0,0.0,0.0,0.0,0.0,0.0,0.0,0.0,0.0,0.0,0.0,0.0,0.0,0.0,7.6135,7.6893,7.7304,7.7304,7.7304,7.7304,7.7304,7.7304,7.7304,7.7304,7.7084,7.7084,7.7304,7.7084,7.7084,7.7304,7.7304,7.751,7.7903,7.8072,7.8588,7.9449,7.9449,7.9836,8.0506,8.0506,8.0506,0.0,0.0,0.0,0.0,0.0,8.0506,8.0506,0.0,8.0506,8.0506,0.0,0.0,0.0,0.0,0.0,0.0,8.3901,0.0,0.0,0.0,0.0,0.0,8.6069,8.6345,8.6472,8.65,8.6556,8.6583,8.661,8.661,8.6824,8.7565,8.8235,8.893,8.9678,8.9921,8.9989,8.9989,8.9989,8.9986,8.9986,8.9982,8.9958,8.9788,8.9727,8.9567,8.9188,8.977,9.0157,9.0339,9.0894,9.121,9.121,9.121,9.1325,9.1595,9.3018,9.3826,9.4095,9.5521,9.6136,9.6098,9.5938,9.5856,9.5856,9.5814,9.5772,9.5763,9.691,9.7675,9.8325,9.9389,9.9879,10.0113,0.0,0.0,0.0,0.0,0.0,0.0,0.0,0.0,0.0,0.0,0.0,0.0,0.0,0.0,0.0,0.0,7.6893,7.7451,7.7818,7.7524,7.7635,7.8332,7.8038,7.7855,7.7855,7.7524,7.7304,7.7304,7.6974,7.6974,7.7304,7.7304,7.7813,7.8611,7.8512,7.9116,8.0201,8.011,8.0199,8.0506,8.0506,8.0506,8.0506,8.0506,8.0506,8.0506,0.0,0.0,8.0506,8.0506,8.0543,0.0,0.0,0.0,0.0,0.0,0.0,0.0,0.0,0.0,0.0,8.4132,0.0,0.0,8.5552,8.5902,8.6092,8.6478,8.6583,8.6597,8.6684,8.6669,8.6787,8.7058,8.7503,8.8078,8.8703,8.8864,8.8928,8.8928,8.8924,8.8919,8.8919,8.8845,8.8755,8.8611,8.8429,8.8335,8.8325,8.9002,8.9556,8.9902,9.0748,9.121,9.121,9.121,9.121,9.121,9.2903,9.3674,9.3714,9.5368,9.6058,9.5938,9.5853,9.5768,9.5686,9.5686,9.5643,9.5675,9.6554,9.7218,9.779,9.8666,9.9122,9.9329,0.0,0.0,0.0,0.0,0.0,0.0,0.0,0.0,0.0,0.0,0.0,0.0,0.0,0.0,0.0,0.0,7.702,7.7767,7.8699,7.8002,0.0,0.0,0.0,0.0,7.8736,7.7965,7.7598,7.7598,7.6864,7.69,7.7598,7.7598,7.8293,7.9632,7.9327,0.0,8.1203,8.0811,8.0621,8.0621,8.0544,8.0506,8.0506,8.0506,8.0506,8.0506,8.0506,8.0506,8.0506,8.0506,8.0542,0.0,0.0,0.0,0.0,0.0,8.1093,0.0,0.0,0.0,0.0,0.0,8.3586,0.0,8.4783,8.5113,8.5448,8.6197,8.6378,8.6398,8.6515,8.6514,8.6622,8.6867,8.6982,8.7148,8.7372,8.7397,8.7387,8.7387,8.7414,8.7407,8.7407,8.7203,8.7078,8.7064,8.6622,8.6636,8.7242,8.8171,8.9017,8.9748,9.071,9.121,9.1175,9.1175,9.1175,9.1175,9.2867,9.3637,9.3601,9.5291,9.5979,9.581,9.581,9.5686,9.5598,9.5554,9.5554,9.5675,9.6439,9.6838,9.7105,9.7939,9.8328,9.8442,0.0,0.0,0.0,0.0,0.0,0.0,0.0,0.0,0.0,0.0,0.0,0.0,0.0,0.0,0.0,0.0,0.0,7.8668,0.0,0.0,0.0,0.0,0.0,0.0,7.9543,7.9396,7.9286,7.9286,7.914,7.914,7.9286,7.9286,7.9956,8.099,8.0905,8.1528,8.2567,8.1843,8.1538,8.1499,8.0773,8.0506,8.0506,8.0506,8.0506,8.0506,8.0506,8.0506,8.0506,8.0506,8.0542,8.065,0.0,0.0,0.0,8.1061,0.0,0.0,0.0,0.0,0.0,0.0,8.2907,0.0,8.4111,8.4456,8.4643,8.4728,8.4782,8.4816,8.4858,8.4883,8.4922,8.5065,8.5698,8.6445,8.7284,8.7381,8.7414,8.7414,8.7407,8.7407,8.7407,8.7203,8.7035,8.6864,8.6428,8.6236,8.6363,8.7863,8.8748,8.894,9.0402,9.1175,9.1064,9.1064,9.1028,9.0954,9.2642,9.3447,9.3484,9.509,9.5853,9.581,9.5686,9.5643,9.5554,9.5105,9.5153,9.5598,9.5789,9.5962,9.6233,9.7067,9.7191,9.6981,0.0,0.0,0.0,0.0,0.0,0.0,0.0,0.0,0.0,0.0,0.0,0.0,0.0,0.0,0.0,0.0,0.0,0.0,0.0,0.0,0.0,0.0,0.0,0.0,0.0,8.0388,8.0204,7.98,7.98,7.98,7.98,7.98,8.0607,8.2072,8.1608,8.2263,8.3601,8.234,8.1805,8.1729,8.085,8.0506,8.0506,8.0506,8.0506,8.0506,8.0506,8.0505,8.0542,8.0652,8.0685,8.0754,8.0893,8.0959,8.1023,0.0,8.1253,8.128,0.0,0.0,0.0,8.2044,8.2223,0.0,0.0,8.3735,8.3948,8.428,8.4377,8.4423,8.449,8.4512,8.4546,8.4686,8.5424,8.6002,8.6098,8.6867,8.7407,8.7407,8.7407,8.7354,8.7263,8.7064,8.6807,8.6455,8.6114,8.5958,8.5958,8.7609,8.8531,8.8531,9.0183,9.1029,9.0953,9.0953,9.0915,9.0915,9.2603,9.3368,9.3366,9.5048,9.5768,9.5686,9.5643,9.5598,9.5554,9.492,9.487,9.5153,9.4782,9.4761,9.4999,9.5413,9.5763,9.6029,0.0,0.0,0.0,0.0,0.0,0.0,0.0,0.0,0.0,0.0,0.0,0.0,0.0,0.0,0.0,0.0,0.0,0.0,0.0,0.0,0.0,0.0,0.0,8.1232,0.0,8.1232,8.0901,8.0241,8.0241,8.0241,8.0241,8.0241,8.1259,8.295,8.226,8.2914,8.4519,8.276,8.2072,8.1996,8.0964,8.0543,8.0506,8.0506,8.0506,8.0506,8.0543,8.0578,8.065,8.0758,8.0855,8.0984,8.1116,8.1146,8.1205,8.1387,0.0,0.0,0.0,8.1696,8.1692,8.1742,8.1803,8.2013,0.0,0.0,0.0,8.3849,8.3986,8.4029,8.4131,8.4179,8.414,8.4077,8.4915,8.5299,8.4427,8.5793,8.6886,8.6831,8.7104,8.7146,8.6777,8.671,8.6494,8.5992,8.5852,8.5815,8.5815,8.7464,8.8385,8.8385,9.0033,9.0915,9.0838,9.0838,9.0877,9.0837,9.2523,9.3287,9.3242,9.4964,9.5686,9.5598,9.5598,9.5516,9.5379,9.4731,9.447,9.427,9.3839,9.3713,9.3805,9.3954,9.4549,9.529,7.2533,7.2602,0.0,0.0,0.0,0.0,0.0,0.0,0.0,0.0,0.0,0.0,0.0,0.0,0.0,0.0,0.0,0.0,8.1974,0.0,0.0,0.0,0.0,0.0,8.2039,8.2039,8.2003,8.1929,8.1929,8.1929,8.1929,8.1929,8.2608,8.3787,8.374,8.4315,8.5244,8.3715,8.3064,8.2911,8.1265,8.0542,8.0506,8.0506,8.0506,8.0506,8.0578,8.065,8.0792,8.0792,8.0939,8.1154,8.1181,8.1246,8.1387,8.16,8.1536,8.1461,8.164,8.1696,8.1742,8.1906,8.1958,8.2023,8.2195,0.0,8.2376,8.2354,0.0,8.2534,8.2562,0.0,0.0,8.1558,8.2762,8.349,8.2639,8.3956,8.4951,8.4754,8.6065,8.6561,8.5522,8.5939,8.6138,8.5852,8.5815,8.5815,8.5815,8.7464,8.8385,8.8385,9.0033,9.0838,9.0719,9.0719,9.0679,9.0673,9.2355,9.3158,9.3153,9.4834,9.5598,9.5598,9.5598,9.5295,9.4731,9.4067,9.3485,9.3024,9.3545,9.3376,9.3025,9.3768,9.4179,9.452,0.0,0.0,0.0,0.0,0.0,0.0,0.0,0.0,0.0,0.0,0.0,0.0,0.0,0.0,0.0,0.0,0.0,8.1299,0.0,0.0,0.0,0.0,0.0,0.0,0.0,0.0,8.2186,8.2186,8.2186,8.2186,8.2186,8.2497,8.3111,8.4003,8.4314,8.4676,8.4901,8.4212,8.3332,8.2375,8.1647,8.1037,8.0578,8.0652,8.0688,8.0688,8.0723,8.0792,8.086,8.086,8.1069,8.1272,8.1186,8.1337,8.1579,8.1679,8.1717,8.1787,8.1987,8.1999,8.1972,8.2124,8.2137,8.2098,8.2175,8.2264,8.2265,8.2226,0.0,0.0,0.0,0.0,0.0,0.0,8.2702,8.3155,8.2309,8.3615,8.4596,8.4507,8.5035,8.5292,8.5049,8.5568,8.5884,8.5742,8.5667,8.5628,8.5628,8.7274,8.823,8.823,8.9837,9.0717,9.0635,9.0635,9.0635,9.0631,9.2312,9.3115,9.3153,9.4834,9.5425,9.5105,9.5105,9.4731,9.4067,9.3424,9.3024,9.2802,9.2633,9.2468,9.2266,9.2635,9.3122,9.3712,0.0,0.0,0.0,0.0,0.0,0.0,0.0,0.0,0.0,0.0,0.0,0.0,7.7475,7.8336,0.0,0.0,8.0768,8.1542,0.0,0.0,8.2186,0.0,0.0,0.0,0.0,0.0,8.2186,8.2186,8.2186,8.2186,8.2186,8.2769,8.3359,8.3965,8.4551,8.4736,8.4552,8.4211,8.3254,8.1949,8.1719,8.1294,8.072,8.0792,8.0792,8.0826,8.0826,8.0893,8.0959,8.0959,8.1157,8.1362,8.1269,8.1461,8.1717,8.182,8.1948,8.2034,8.2241,8.2209,8.217,8.2289,8.225,8.2168,8.2265,8.2304,8.2304,8.2295,8.2292,0.0,0.0,0.0,8.2215,0.0,0.0,8.2767,8.1938,8.2961,8.3774,8.3704,8.3814,8.4237,8.4997,8.543,8.5667,8.5667,8.5551,8.5511,8.5511,8.7154,8.811,8.811,8.9714,9.0593,9.0593,9.0593,9.0593,9.0631,9.2144,9.2817,9.2893,9.4439,9.4832,9.4432,9.4432,9.4048,9.3424,9.2997,9.267,9.2505,9.1983,9.1803,9.1803,9.1803,9.2354,9.3198,0.0,7.374,0.0,0.0,0.0,0.0,0.0,7.6051,7.6361,7.7085,0.0,0.0,0.0,0.0,0.0,0.0,0.0,8.2186,8.2186,0.0,8.2186,0.0,0.0,8.2186,0.0,0.0,8.2186,8.2186,8.2186,8.2186,8.2186,8.2769,8.334,8.3937,8.4542,8.4656,8.4365,8.3633,8.2898,8.2122,8.1272,8.0997,8.1061,8.086,8.086,8.0888,8.0888,8.0991,8.1093,8.1093,8.1224,8.1437,8.162,8.1679,8.177,8.2162,8.2171,8.2055,8.226,8.2289,8.2301,8.2301,8.2304,8.2304,8.2304,8.2304,8.2304,8.2295,8.2292,8.2285,8.2299,0.0,0.0,0.0,0.0,0.0,0.0,8.1359,8.1618,8.1437,8.2336,8.3678,8.5321,8.5473,8.5511,8.5511,8.5511,8.5511,8.5511,8.7154,8.811,8.811,8.9714,9.0593,9.0593,9.0593,9.0593,9.0631,9.1701,9.2216,9.2292,9.3257,9.3781,9.3723,9.3723,9.3363,9.2802,9.2802,9.2436,9.1876,9.1803,9.1803,9.1803,9.1803,9.2354,9.3088,0.0,0.0,0.0,0.0,0.0,7.5982,7.674,7.6844,7.7091,7.7996,7.8031,7.842,0.0,7.9992,8.0587,0.0,0.0,8.2186,8.2186,8.2186,0.0,0.0,0.0,8.2186,0.0,0.0,0.0,8.2186,8.2186,8.2186,8.2186,8.3148,8.3726,8.3937,8.498,8.4787,8.3709,8.4016,8.3051,8.131,8.1003,8.0991,8.1093,8.1029,8.1029,8.1023,8.1023,8.1061,8.1124,8.1253,8.1437,8.16,8.1679,8.1866,8.2084,8.2084,8.2171,8.2209,8.2271,8.2232,8.2193,8.2297,8.2217,8.2171,8.2265,8.2304,8.2304,8.2295,8.2292,8.2285,8.2299,0.0,0.0,0.0,0.0,0.0,0.0,8.1485,8.1671,8.2571,8.3039,8.3635,8.4633,8.5206,8.5511,8.5511,8.5511,8.5741,8.6352,8.746,8.8339,8.8874,9.002,9.0593,9.0593,9.0593,9.0383,9.0029,9.1469,9.2012,9.1638,9.303,9.3485,9.3088,9.3088,9.2736,9.2126,9.2126,9.1983,9.1803,9.1803,9.1803,9.1803,9.1803,9.1987,9.2317,7.4499,0.0,0.0,0.0,7.5982,7.6671,7.7154,7.7456,7.7858,7.842,7.8718,7.9089,7.9643,8.044,8.0911,0.0,8.1715,8.2186,8.2186,8.2186,0.0,8.2186,8.2251,0.0,0.0,0.0,0.0,8.2251,8.2407,8.2497,8.2585,8.3672,8.4193,8.4254,8.5273,8.4822,8.3323,8.3934,8.2928,8.0959,8.0959,8.0991,8.1093,8.1093,8.1093,8.1093,8.1093,8.1093,8.1154,8.135,8.1507,8.162,8.1753,8.1974,8.2171,8.2104,8.2195,8.2281,8.2281,8.2237,8.2203,8.2262,8.2258,8.2171,8.2265,8.2304,8.2303,8.2295,8.2289,8.2281,8.2299,0.0,0.0,0.0,0.0,0.0,0.0,8.1324,8.1624,8.309,8.3285,8.3635,8.4633,8.5206,8.5511,8.5511,8.5511,8.5893,8.6772,8.7613,8.8453,8.9256,8.9926,9.0257,9.0257,9.0037,8.9763,8.9414,9.0825,9.1339,9.1006,9.2368,9.283,9.2436,9.2436,9.2159,9.1803,9.1803,9.1803,9.1803,9.1803,9.173,9.173,9.1803,9.1803,9.1913,7.5809,7.6154,7.6154,7.6154,7.674,7.7223,7.7223,7.7945,7.8504,7.8587,7.9249,7.9798,7.9798,8.055,8.0982,8.0982,8.1715,8.2186,8.2186,8.2186,0.0,0.0,8.2279,8.2407,8.2407,0.0,0.0,0.0,8.2793,8.3053,8.3189,8.4205,8.4765,8.4816,8.5395,8.4822,8.3285,8.3389,8.2496,8.1093,8.1093,8.1093,8.1093,8.1093,8.1093,8.1124,8.1124,8.1124,8.1146,8.1375,8.1437,8.1507,8.1866,8.1999,8.2062,8.2234,8.2315,8.2292,8.2292,8.2301,8.2304,8.2304,8.2304,8.2304,8.2304,8.2304,8.23,8.2295,8.2285,8.231,8.2293,8.2293,0.0,0.0,0.0,0.0,0.0,8.0849,8.1402,8.2837,8.3028,8.3715,8.5358,8.5511,8.5511,8.5511,8.555,8.5932,8.681,8.7689,8.853,8.9291,8.9573,8.9714,8.9665,8.9076,8.8804,8.8786,8.9845,9.0249,9.0258,9.1281,9.1803,9.1803,9.1803,9.1803,9.1803,9.1803,9.1803,9.1803,9.1803,9.1657,9.1508,9.173,9.1803,9.1913,7.6051,7.6568,7.6947,7.6947,7.7085,7.7223,7.7223,7.7945,7.8718,7.9329,8.0068,8.084,8.1474,8.1715,8.1885,8.1885,8.2055,0.0,0.0,0.0,0.0,8.2186,8.2251,8.2316,8.2407,8.2279,0.0,8.2407,8.2793,8.2994,8.3053,8.4216,8.4772,8.4816,8.5474,8.4857,8.3389,8.3389,8.2496,8.1093,8.1093,8.1093,8.1093,8.1093,8.1205,8.1323,8.1323,8.1323,8.1362,8.1735,8.1836,8.1866,8.2153,8.2226,8.2234,8.226,8.2281,8.2295,8.23,8.2303,8.2304,8.2304,8.2304,8.2303,8.2303,8.23,8.2292,8.2281,8.2315,8.231,8.2293,8.2293,8.2226,0.0,0.0,0.0,0.0,8.1387,8.2092,8.2913,8.3563,8.4365,8.5397,8.5511,8.5511,8.5511,8.6123,8.6849,8.7727,8.8568,8.9163,8.9564,8.9649,8.9478,8.9023,8.8859,8.8578,8.8144,8.9596,9.0025,8.9451,9.1033,9.173,9.1583,9.173,9.173,9.1583,9.1583,9.1583,9.1583,9.1433,9.1358,9.1282,9.1508,9.1657,9.184,7.6533,7.6947,7.7223,7.7223,7.7544,7.7772,7.7772,7.8469,7.9329,8.0143,8.0911,8.1647,8.2121,8.2186,8.2186,8.2186,8.2186,8.2186,8.2186,0.0,0.0,8.2186,8.2316,8.2444,8.2571,8.2745,0.0,8.289,8.347,8.381,8.3914,8.4772,8.5235,8.5357,8.5704,8.5193,8.3922,8.3226,8.2253,8.1093,8.1093,8.1146,0.0,8.1224,8.1375,8.1536,8.162,8.16,8.1579,8.1881,8.1987,8.205,8.2234,8.2299,8.2305,8.231,8.2289,8.2297,8.2301,8.2304,8.2304,8.2304,8.2304,8.2301,8.2301,8.2295,8.2285,8.2315,8.231,8.2299,8.2273,8.2171,8.1921,0.0,0.0,0.0,0.0,8.1448,8.2183,8.2796,8.3635,8.4434,8.511,8.5391,8.5471,8.5391,8.615,8.6989,8.7909,8.8454,8.907,8.9676,8.922,8.8748,8.8405,8.8144,8.7773,8.7394,8.8981,8.9518,8.902,9.0777,9.1508,9.1358,9.1508,9.1508,9.1358,9.1358,9.1358,9.1358,9.113,9.113,9.1206,9.1206,9.1433,9.1657,7.7085,7.7223,7.7223,7.7223,7.7945,7.8504,7.867,7.9329,8.0068,8.084,8.1647,8.2186,8.2186,8.2186,8.2186,8.2186,8.2186,8.2186,8.2186,8.2186,8.2251,8.2251,8.2508,8.2758,8.2782,8.3415,8.3655,0.0,8.4448,8.4861,8.4991,8.5513,8.5854,8.5996,8.6031,8.5493,8.4455,8.283,8.1747,8.1093,8.1154,8.1253,8.1387,8.1437,8.1558,8.1753,8.1948,8.1905,8.177,8.1974,8.205,8.2073,8.2234,8.2305,8.2315,8.232,8.2292,8.2301,8.2303,8.2304,8.2304,8.2304,8.2304,8.2301,8.2301,8.2289,8.231,8.231,8.2299,8.2273,8.2201,8.1948,8.1543,0.0,8.0799,8.0754,8.0621,8.1385,8.2147,8.2745,8.354,0.0,8.4803,8.5186,8.5346,8.5247,8.5963,8.6761,8.7551,8.7915,8.8518,8.9389,8.8405,8.7773,8.7709,8.7163,8.6856,8.6715,8.8325,8.8947,8.8798,9.0477,9.1206,9.1206,9.1206,9.1206,9.1206,9.1206,9.113,9.113,9.0975,9.0975,9.113,9.0897,9.113,9.1433,7.7189,7.7223,7.7223,7.7223,7.7945,7.8718,7.9408,8.0143,8.0768,8.0911,8.1647,8.2186,8.2186,8.2186,8.2186,8.2186,8.2186,8.2186,8.2186,8.2279,8.2343,8.2343,8.2571,8.2964,8.349,8.3508,8.3688,8.4142,8.4681,8.4904,8.4861,8.559,8.5961,8.5996,8.6065,8.5214,8.3676,8.2016,8.1246,8.1124,8.1269,8.1362,8.1412,8.1579,8.177,8.1961,8.1987,8.1974,8.1974,8.2171,8.2234,8.2241,8.2305,8.231,8.232,8.2295,8.23,8.2303,8.2304,8.2304,8.2304,8.2304,8.2301,8.2295,8.2295,8.232,8.2299,8.2299,8.2273,8.2201,8.2192,8.1748,8.1257,8.0964,8.0707,8.0697,8.1189,8.1987,8.2825,8.3582,8.4247,8.4772,8.5094,8.4968,8.5052,8.5223,8.6052,8.6703,8.7281,8.7998,8.8239,8.8009,8.7799,8.7321,8.6642,8.6536,8.6501,8.6501,8.8107,8.8725,8.8647,9.0401,9.113,9.0975,9.113,9.113,9.0975,9.0975,9.0819,9.074,9.0819,9.0819,9.0661,9.0697,9.0819,9.1053,7.7223,7.7223,7.7367,7.7772,7.8552,7.9408,8.0218,8.1018,8.1542,8.1542,8.1952,8.2186,8.2186,8.2186,8.2186,8.2186,8.2251,8.2279,8.2279,8.2444,8.2571,8.2571,8.2987,8.3358,8.3709,8.4167,8.4551,8.4765,8.5276,8.5513,8.5436,8.5852,8.6031,8.6026,8.5637,8.4786,8.3516,8.2247,8.1477,8.1124,8.1323,8.1461,8.1579,8.177,8.1974,8.2153,8.2153,8.2153,8.2162,8.228,8.2299,8.2305,8.231,8.2285,8.2295,8.23,8.2303,8.2304,8.2304,8.2304,8.2304,8.2304,8.23,8.2292,8.2285,8.231,8.2293,8.2293,8.2265,8.2112,8.1804,8.1344,8.0953,8.074,8.0503,8.0581,8.1299,8.201,8.276,8.346,8.4155,8.4465,8.4268,8.4116,8.4215,8.4628,8.5432,8.6087,8.6555,8.7278,8.7635,8.7609,8.7188,8.6746,8.6392,8.6429,8.632,8.6283,8.7885,8.8498,8.8418,9.0093,9.0819,9.074,9.0819,9.0819,9.074,9.074,9.0661,9.0581,9.0661,9.0661,9.0581,9.0581,9.0661,9.074,7.7223,7.7402,7.7685,7.8336,7.9329,8.0143,8.084,8.1647,8.2186,8.2186,8.2186,8.2186,8.2186,8.2251,8.2251,8.2251,8.238,8.2471,8.2471,8.2633,8.2758,8.2758,8.3415,8.3817,8.3885,8.4861,8.5397,8.5357,8.5813,8.5915,8.5727,8.5954,8.595,8.5824,8.4978,8.4132,8.3247,8.2455,8.1724,8.1205,8.1437,8.162,8.1787,8.1974,8.2162,8.2293,8.2293,8.2293,8.2293,8.2299,8.231,8.2315,8.2281,8.2295,8.2301,8.2303,8.2304,8.2304,8.2304,8.2304,8.2304,8.2303,8.2297,8.2289,8.2315,8.2305,8.2287,8.2226,8.2084,8.1836,8.1271,8.0992,8.0711,8.0505,8.0354,8.0538,8.1444,8.1869,8.2435,8.3349,8.3828,8.3907,8.3415,8.3127,8.326,8.3789,8.4689,8.5473,8.5966,8.6524,8.6953,8.7284,8.6712,8.632,8.6283,8.6283,8.621,8.6062,8.766,8.8382,8.8263,8.9857,9.0581,9.0581,9.0581,9.0581,9.0581,9.0581,9.0581,9.0581,9.0581,9.0581,9.0581,9.0581,9.0581,9.0581,7.7223,7.7858,7.842,7.8504,7.9798,8.084,8.0911,8.1647,8.2186,8.2186,8.2186,8.2186,8.2186,8.2316,8.2407,8.2407,8.2571,8.2633,8.2633,8.2782,8.2904,8.2904,8.349,8.4092,8.4618,8.5114,8.559,8.5923,8.6026,8.5642,8.4844,8.5681,8.5709,8.4978,8.4093,8.3247,8.2394,8.1733,8.144,8.1412,8.1787,8.1961,8.1987,8.221,8.2287,8.2293,8.231,8.2305,8.2299,8.2285,8.2285,8.232,8.2297,8.2301,8.2303,8.2304,8.2304,8.2304,8.2304,8.2304,8.2301,8.2301,8.2292,8.2315,8.2315,8.2305,8.2187,8.1921,8.1582,8.1246,8.09,8.0844,8.0711,8.0505,8.0354,8.0646,8.2027,8.1829,8.2272,8.4054,8.3545,8.3186,8.36,8.2634,8.2304,8.3272,8.4117,8.5023,8.6064,8.632,8.6392,8.6211,8.6174,8.6062,8.5948,8.5985,8.5948,8.5909,8.7467,8.8227,8.8263,8.9857,9.0581,9.0581,9.0581,9.0581,9.0581,9.0581,9.0581,9.0581,9.0581,9.0581,9.0581,9.0581,9.0581,9.0581,7.7858,7.8252,7.88,7.9762,8.044,8.1053,8.161,8.2047,8.2279,8.2279,8.2279,8.2279,8.2279,8.2508,8.2571,8.2571,8.2721,8.2782,8.2782,8.3244,8.349,8.349,8.4352,8.4899,8.5114,8.559,8.5884,8.6026,8.606,8.5906,8.5527,8.5406,8.4939,8.4093,8.3208,8.2717,8.2428,8.1685,8.1484,8.16,8.1905,8.1987,8.1999,8.2226,8.2299,8.2305,8.231,8.2315,8.2281,8.2295,8.2295,8.2289,8.23,8.2303,8.2304,8.2304,8.2304,8.2304,8.2304,8.2304,8.2301,8.2297,8.2289,8.231,8.2305,8.2226,8.2084,8.1844,8.1402,8.1003,8.0805,8.0716,8.0614,8.0543,8.0197,8.0477,8.2096,8.1621,8.1788,8.3559,8.3127,8.2708,8.2573,8.2104,8.2226,8.3368,8.3698,8.4354,8.5482,8.5882,8.6062,8.61,8.5987,8.5948,8.5909,8.5909,8.5909,8.5909,8.7467,8.8227,8.8263,8.9857,9.0581,9.0581,9.0581,9.0581,9.0581,9.0581,9.0581,9.0581,9.0581,9.0581,9.0581,9.0581,9.0581,9.0581,7.7986,7.8577,7.9249,8.0695,8.1123,8.1542,8.215,8.2343,8.2407,8.2471,8.2534,8.2534,8.2471,8.2633,8.2758,8.2758,8.2904,8.2964,8.2964,8.3545,8.3922,8.3922,8.4861,8.5397,8.5397,8.5884,8.6094,8.6094,8.5863,8.5632,8.5363,8.4516,8.3824,8.317,8.2648,8.2361,8.22,8.1785,8.166,8.1804,8.1987,8.2084,8.2104,8.2241,8.231,8.2281,8.2285,8.2289,8.2295,8.2301,8.2301,8.2297,8.2301,8.2304,8.2304,8.2304,8.2304,8.2304,8.2304,8.2303,8.2297,8.2292,8.232,8.226,8.2226,8.2084,8.1856,8.1579,8.1143,8.0767,8.0711,8.0614,8.0506,8.0431,8.0075,8.0302,8.1745,8.1259,8.1343,8.2883,8.2585,8.2141,8.1812,8.1678,8.2133,8.3447,8.3483,8.4064,8.5301,8.5771,8.5987,8.6062,8.5948,8.5909,8.5909,8.5909,8.5909,8.5909,8.7249,8.7974,8.8263,8.9857,9.0581,9.0581,9.0581,9.0581,9.0581,9.0581,9.0581,9.0581,9.0581,9.0581,9.0581,9.0581,9.0581,9.0581,7.718,7.8638,7.9916,8.0768,8.161,8.2251,8.2343,8.2407,8.2471,8.2633,8.2782,8.2843,8.2696,8.2782,8.2904,8.2904,8.3121,8.318,8.318,8.3638,8.3922,8.3922,8.4861,8.5397,8.5397,8.5884,8.6094,8.6094,8.5286,8.4478,8.3593,8.2747,8.2324,8.2317,8.2532,8.2161,8.1437,8.182,8.1987,8.1999,8.2218,8.2299,8.2315,8.2315,8.2285,8.2292,8.23,8.2297,8.2295,8.2304,8.2304,8.2303,8.2304,8.2304,8.2304,8.2304,8.2304,8.2304,8.2303,8.2297,8.2292,8.232,8.2305,8.2234,8.2062,8.1883,8.1631,8.1038,8.0707,8.0506,8.0506,8.0506,8.0431,8.0235,7.9992,8.0129,8.1065,8.073,8.0955,8.2462,8.1915,8.1478,8.1745,8.1408,8.178,8.3374,8.3483,8.4207,8.5801,8.6062,8.6062,8.5909,8.5909,8.5909,8.5909,8.5909,8.5909,8.5909,8.667,8.7467,8.8263,8.9857,9.0581,9.0581,9.0581,9.0581,9.0581,9.0581,9.0581,9.0581,9.0581,9.0581,9.0581,9.0581,9.0581,9.0581,7.7873,7.8962,7.9972,8.0844,8.1717,8.2343,8.2407,8.2597,8.2782,8.2843,8.2964,8.3121,8.3061,8.3061,8.3121,8.3121,8.318,8.3318,8.3638,8.418,8.458,8.4942,8.5514,8.5884,8.5884,8.6026,8.5824,8.5286,8.5016,8.417,8.2708,8.2439,8.2062,8.1683,8.1749,8.179,8.1812,8.1948,8.2075,8.2221,8.2276,8.2285,8.2289,8.2289,8.2292,8.23,8.2301,8.2303,8.2304,8.2304,8.2304,8.2304,8.2304,8.2304,8.2304,8.2304,8.2304,8.2304,8.2303,8.2297,8.2289,8.2315,8.2187,8.2073,8.1999,8.1639,8.1208,8.0805,8.0576,8.0506,8.0506,8.0392,8.0275,8.0195,8.0061,8.0205,8.1087,8.083,8.0865,8.1929,8.1547,8.1234,8.1339,8.1163,8.178,8.3374,8.3483,8.4207,8.5801,8.5948,8.5948,8.5909,8.5909,8.5909,8.5909,8.5909,8.5909,8.5909,8.667,8.772,8.9024,8.9531,9.0074,9.0581,9.0581,9.0581,9.0581,9.0581,9.0581,9.0581,9.0581,9.0581,9.0581,9.0581,9.0581,9.0581,7.7416,7.8492,7.9526,8.0434,8.1129,8.166,8.208,8.2301,8.2594,8.2987,8.3121,8.318,8.318,8.318,8.3297,8.3452,8.3452,8.3692,8.4142,8.4673,8.5071,8.5397,8.5849,8.5978,8.567,8.567,8.5247,8.4401,8.4093,8.3208,8.1862,8.1893,8.1687,8.1398,8.1514,8.1731,8.2016,8.2093,8.2182,8.2292,8.2292,8.2295,8.2297,8.2297,8.23,8.2304,8.2304,8.2304,8.2304,8.2304,8.2304,8.2304,8.2304,8.2304,8.2304,8.2304,8.2304,8.2304,8.2301,8.2295,8.2289,8.231,8.2162,8.1961,8.1714,8.1296,8.0907,8.065,8.0505,8.0468,8.0392,8.0275,8.0154,7.9988,7.9962,8.0196,8.0749,8.069,8.0868,8.1469,8.1269,8.1128,8.1128,8.1128,8.1635,8.2939,8.3301,8.4062,8.5366,8.5728,8.5909,8.5909,8.5909,8.5909,8.5909,8.5909,8.5909,8.5909,8.667,8.7684,8.8951,8.9241,8.9821,9.0581,9.0581,9.0581,9.0581,9.0581,9.0581,9.0581,9.0581,9.0581,9.0581,9.0581,9.0581,9.0581,7.6081,7.745,7.8826,7.9717,7.9977,8.0395,8.1437,8.1608,8.1963,8.292,8.3032,8.3032,8.3032,8.309,8.3246,8.3735,8.3847,8.4142,8.4673,8.5117,8.536,8.536,8.5731,8.5593,8.4824,8.4824,8.4401,8.3516,8.2631,8.1823,8.1124,8.1214,8.1296,8.1453,8.1714,8.1896,8.2015,8.2237,8.2295,8.2295,8.2295,8.2297,8.2301,8.2301,8.2304,8.2304,8.2304,8.2304,8.2304,8.2304,8.2304,8.2304,8.2304,8.2304,8.2304,8.2304,8.2304,8.2304,8.2295,8.2292,8.2285,8.2293,8.2094,8.1781,8.1195,8.0907,8.0723,8.0543,8.0506,8.0431,8.0235,8.0154,7.9988,7.9546,7.9754,8.0003,8.0036,8.0424,8.074,8.1091,8.1128,8.1128,8.1128,8.1128,8.1418,8.2215,8.3048,8.3845,8.4642,8.5475,8.5909,8.5909,8.5909,8.5909,8.5909,8.5909,8.5909,8.5909,8.6597,8.7358,8.8155,8.8951,8.9748,9.0509,9.0581,9.0581,9.0581,9.0581,9.0581,9.0581,9.0581,9.0581,9.0581,9.0581,9.0581,9.0581,7.6789,7.7934,7.8772,7.9032,7.9792,8.0452,8.0756,8.0873,8.1005,8.1248,8.1285,8.1285,8.1285,8.1605,8.2007,8.2548,8.3376,8.4292,8.5155,8.4746,8.4595,8.4998,8.4484,8.4093,8.3901,8.3901,8.351,8.2686,8.1878,8.1407,8.1273,8.1362,8.1519,8.1731,8.1896,8.2062,8.2214,8.2297,8.2301,8.2304,8.2304,8.2304,8.2304,8.2304,8.2304,8.2304,8.2304,8.2304,8.2304,8.2304,8.2304,8.2304,8.2304,8.2303,8.2303,8.2303,8.2303,8.2301,8.2285,8.232,8.2266,8.2104,8.1731,8.1271,8.0805,8.0681,8.0614,8.0543,8.0392,8.0275,8.0195,7.9903,7.9509,7.9004,7.9576,7.9986,7.9653,8.0344,8.1017,8.1092,8.1128,8.1128,8.1128,8.1128,8.1418,8.2215,8.3048,8.3845,8.4642,8.5475,8.5909,8.5909,8.5909,8.5909,8.5909,8.5909,8.5909,8.5909,8.609,8.6561,8.7322,8.8118,8.8915,8.9712,9.0328,9.0581,9.0581,9.0581,9.0581,9.0581,9.0581,9.0581,9.0581,9.0581,9.0581,9.0581,7.6664,7.7635,7.8307,7.8389,7.8935,7.9496,7.9925,8.0077,8.0282,8.0654,8.0879,8.1007,8.1007,8.1407,8.1952,8.2517,8.3095,8.3758,8.4516,8.4131,8.4007,8.4286,8.3856,8.3464,8.3079,8.311,8.2717,8.189,8.1466,8.128,8.1362,8.1514,8.1657,8.1882,8.1997,8.2149,8.2304,8.2304,8.2304,8.2304,8.2304,8.2304,8.2304,8.2304,8.2304,8.2304,8.2304,8.2304,8.2304,8.2304,8.2304,8.2304,8.2303,8.23,8.2297,8.2295,8.2295,8.2295,8.2281,8.2215,8.2075,8.1709,8.1391,8.1041,8.0681,8.0614,8.0578,8.0392,8.0275,8.0034,7.9652,7.9378,7.8991,7.84,7.9135,7.9653,7.9434,8.039,8.1128,8.1128,8.1128,8.1128,8.1128,8.1128,8.1273,8.1708,8.2831,8.3664,8.4135,8.5257,8.5909,8.5909,8.5909,8.5909,8.5909,8.5909,8.5909,8.5909,8.5909,8.6308,8.7032,8.7467,8.83,8.9422,8.9857,9.0255,9.0581,9.0581,9.0581,9.0581,9.0581,9.0581,9.0581,9.0581,9.0581,9.0581,7.6432,7.7144,7.7703,7.7957,7.8014,7.8293,7.9205,7.9335,7.9707,8.0377,8.0863,8.1182,8.1144,8.1574,8.2057,8.2606,8.2644,8.2943,8.3587,8.351,8.3433,8.3433,8.338,8.3017,8.2246,8.2343,8.2063,8.1291,8.1347,8.1426,8.1519,8.164,8.1803,8.2039,8.2104,8.2171,8.2304,8.2304,8.2304,8.2304,8.2304,8.2304,8.2304,8.2304,8.2304,8.2304,8.2304,8.2304,8.2304,8.2304,8.2304,8.23,8.23,8.2295,8.2289,8.2315,8.2281,8.2285,8.2266,8.2075,8.1758,8.1296,8.1098,8.0962,8.0646,8.0578,8.0468,8.0275,8.0113,7.974,7.8954,7.8752,7.84,7.771,7.8626,7.9369,7.9304,8.0357,8.1128,8.1128,8.1128,8.1128,8.1128,8.1128,8.1128,8.1128,8.2577,8.3483,8.3483,8.504,8.5909,8.5909,8.5909,8.5909,8.5909,8.5909,8.5909,8.5909,8.5909,8.6235,8.6851,8.6959,8.7756,8.906,8.9277,8.9785,9.0436,9.0545,9.0581,9.0581,9.0581,9.0581,9.0581,9.0581,9.0501,9.0421,7.7243,7.7643,7.782,7.7957,7.8127,7.8313,7.8462,7.882,7.9129,7.9353,7.9743,8.0098,8.0144,8.0583,8.0879,8.095,8.133,8.2169,8.3693,8.3153,8.2767,8.2767,8.2073,8.161,8.1456,8.1484,8.1473,8.1374,8.1484,8.16,8.1679,8.1933,8.2031,8.2098,8.2217,8.2265,8.2304,8.2304,8.2304,8.2304,8.2304,8.2304,8.2304,8.2304,8.2304,8.2304,8.2304,8.2304,8.2303,8.2303,8.23,8.2292,8.2285,8.232,8.2315,8.2299,8.2299,8.2248,8.2094,8.1675,8.1271,8.0993,8.0799,8.0646,8.0542,8.0354,8.0275,8.0195,7.9607,7.9004,7.8854,7.8292,7.771,7.7169,7.8373,7.9238,7.8872,8.0148,8.1128,8.1128,8.1128,8.1128,8.1128,8.1128,8.1128,8.1128,8.2577,8.3483,8.3483,8.504,8.5909,8.5909,8.5909,8.5909,8.5909,8.5909,8.5909,8.5909,8.5909,8.5945,8.609,8.6742,8.7141,8.7467,8.8807,8.9459,8.964,9.0328,9.0581,9.0581,9.0581,9.0581,9.0581,9.0581,9.0022,8.9314,7.751,7.7842,7.7957,7.8127,7.8221,7.8276,7.8276,7.8618,7.8904,7.9075,7.9632,8.0085,8.0277,8.0707,8.097,8.1,8.1224,8.1721,8.2521,8.213,8.1908,8.1908,8.1551,8.1374,8.14,8.14,8.1427,8.1453,8.1596,8.1696,8.1812,8.2006,8.2154,8.2217,8.2265,8.2304,8.2304,8.2304,8.2304,8.2304,8.2304,8.2304,8.2304,8.2304,8.2304,8.2304,8.2301,8.23,8.2297,8.2297,8.2292,8.2285,8.2315,8.1998,8.168,8.2176,8.2179,8.1984,8.1797,8.1398,8.1003,8.0767,8.0608,8.0505,8.0392,8.0275,8.0113,7.9903,7.9284,7.87,7.8292,7.7731,7.7169,7.67,7.7953,7.894,7.8702,8.0114,8.1128,8.1128,8.1128,8.1128,8.1128,8.1128,8.1128,8.1128,8.2179,8.3012,8.3483,8.4605,8.5438,8.5873,8.5909,8.5909,8.5909,8.5909,8.5909,8.5909,8.5909,8.5909,8.5909,8.6271,8.6634,8.7068,8.7793,8.8589,8.9422,8.9785,9.0219,9.0581,9.0581,9.0581,9.0581,9.0581,8.994,8.9106,7.771,7.8014,7.8071,7.8276,7.8276,7.8332,7.8458,7.8738,7.9064,7.9418,8.0046,8.057,8.0805,8.1128,8.1374,8.1427,8.1427,8.1453,8.1504,8.14,8.1347,8.1347,8.14,8.1453,8.1504,8.1514,8.1538,8.1538,8.1717,8.1856,8.1956,8.2092,8.2214,8.2304,8.2304,8.2304,8.2304,8.2304,8.2304,8.2304,8.2304,8.2304,8.2304,8.2301,8.23,8.23,8.2295,8.2175,8.2015,8.2015,8.1851,8.1686,8.1686,8.1245,8.0797,8.146,8.1516,8.1381,8.1444,8.1156,8.0799,8.0611,8.0505,8.0392,8.0235,8.0034,7.974,7.9416,7.8803,7.8183,7.7651,7.7169,7.67,7.6342,7.7402,7.8345,7.8526,7.9684,8.0587,8.0767,8.0803,8.0803,8.0803,8.0876,8.0876,8.0803,8.1744,8.265,8.3298,8.4169,8.4965,8.5495,8.5797,8.5797,8.5531,8.5797,8.5797,8.5531,8.5797,8.5909,8.5909,8.5909,8.6199,8.6778,8.6959,8.772,8.8879,8.9241,8.9748,9.0328,9.0545,9.0581,9.0581,9.0581,8.9857,8.8721,7.7957,7.8014,7.8071,7.8276,7.8276,7.8458,7.8978,7.9411,7.9926,8.049,8.103,8.1335,8.1414,8.1478,8.1478,8.1478,8.1478,8.1504,8.1504,8.1478,8.1478,8.1478,8.1478,8.1504,8.1504,8.1618,8.1679,8.1679,8.1945,8.2085,8.2092,8.2219,8.2304,8.2304,8.2304,8.2304,8.2301,8.2301,8.23,8.2295,8.2295,8.2295,8.2295,8.2295,8.2292,8.2292,8.2292,8.1781,8.1105,8.1105,8.0553,7.9873,7.9873,7.9814,7.9704,7.9782,7.9937,8.0314,8.1103,8.0953,8.0576,8.0543,8.0354,8.0235,8.0195,7.9562,7.8904,7.8854,7.796,7.7107,7.7045,7.6636,7.6342,7.6275,7.6725,7.7307,7.7991,7.8559,7.9119,7.9798,7.987,7.987,7.987,8.0322,8.0322,7.9947,8.1415,8.2467,8.2886,8.4094,8.4588,8.4477,8.5417,8.5417,8.4513,8.5417,8.5417,8.4513,8.5417,8.5909,8.5909,8.5909,8.5909,8.6018,8.6706,8.7104,8.7322,8.8807,8.9422,8.9567,9.0292,9.0581,9.0581,9.0581,8.9364,8.769,7.796,7.8221,7.8276,7.8495,7.8549,7.8723,7.9265,7.9627,8.0085,8.063,8.1,8.128,8.1478,8.1577,8.1624,8.1624,8.1652,8.1695,8.1695,8.1669,8.1577,8.1504,8.1504,8.1538,8.1618,8.166,8.1753,8.1827,8.2023,8.2115,8.2115,8.2226,8.23,8.23,8.23,8.23,8.2297,8.2297,8.2295,8.2292,8.2292,8.2292,8.2292,8.2285,8.1972,8.15,8.1495,8.0944,8.0197,8.0197,7.9957,7.9672,7.965,7.9244,7.874,7.8518,7.9132,7.9836,7.9969,8.0256,8.0468,8.0354,8.0275,8.0113,7.986,7.9284,7.8752,7.8596,7.7731,7.7019,7.7019,7.6607,7.6208,7.6003,7.6444,7.7092,7.7625,7.8262,7.8972,7.9721,7.9792,7.9601,7.917,7.9444,7.9285,7.8529,7.9302,8.011,8.0565,8.2052,8.3116,8.3521,8.3897,8.3897,8.3521,8.4513,8.4792,8.4396,8.4792,8.5339,8.5909,8.5909,8.5909,8.5909,8.6199,8.6253,8.6253,8.7414,8.8129,8.8588,8.9553,9.0147,9.0581,9.0581,8.9278,8.7597,7.7347,7.7659,7.7787,7.8312,7.8466,7.8849,7.9632,7.9964,8.0352,8.0923,8.1175,8.1388,8.1562,8.1691,8.1755,8.1755,8.1776,8.1794,8.1809,8.1792,8.1679,8.1577,8.1569,8.162,8.1731,8.1788,8.187,8.1958,8.2081,8.2141,8.2143,8.2262,8.2292,8.2292,8.2292,8.2292,8.2289,8.2289,8.2285,8.2285,8.2012,8.1894,8.1851,8.1569,8.11,8.0592,8.0582,8.0023,7.9268,7.9268,7.9065,7.8815,7.8789,7.828,7.765,7.7271,7.7923,7.873,7.8703,7.9285,7.9932,8.0037,8.003,7.986,7.9416,7.8854,7.8346,7.8053,7.7353,7.6765,7.6636,7.6306,7.6003,7.5549,7.5872,7.6443,7.7215,7.7666,7.8221,7.8973,7.9079,7.8764,7.8062,7.8231,7.8112,7.7336,7.7856,7.8631,7.9317,8.0684,8.1678,8.2202,8.2447,8.2405,8.213,8.3348,8.3812,8.3521,8.3812,8.4349,8.4988,8.4988,8.4988,8.4988,8.4988,8.4916,8.4882,8.5749,8.6418,8.6873,8.8004,8.8994,8.978,9.0032,8.9106,8.7597,7.6154,7.6205,7.6568,7.7641,7.8058,7.8689,8.0087,8.0528,8.0953,8.1608,8.1691,8.1734,8.1796,8.1815,8.1815,8.1815,8.1815,8.1809,8.1817,8.1878,8.1858,8.1713,8.1748,8.1778,8.1778,8.2014,8.2097,8.2097,8.2225,8.2292,8.2292,8.2292,8.2292,8.2292,8.2292,8.2285,8.2315,8.2276,8.2305,8.2215,8.1356,8.1005,8.0888,8.0029,7.9717,7.9678,7.9678,7.9104,7.8291,7.8291,7.7667,7.6882,7.6921,7.6723,7.6418,7.5918,7.6229,7.6832,7.7456,7.8093,7.8761,7.9594,7.9645,7.9369,7.8904,7.8238,7.7533,7.7107,7.6636,7.614,7.576,7.569,7.5549,7.519,7.4784,7.516,7.6682,7.6534,7.6607,7.7389,7.7475,7.7209,7.6485,7.6747,7.6837,7.6358,7.7336,7.8462,7.9522,8.0185,8.05,8.05,8.1224,8.116,8.0209,8.2037,8.2461,8.1603,8.2551,8.2998,8.2998,8.2998,8.2998,8.2998,8.2998,8.2998,8.3068,8.384,8.4156,8.4332,8.5842,8.7108,8.8121,8.8821,8.8454,8.7597,7.6331,7.6492,7.6665,7.7128,7.7452,7.791,7.876,7.9122,7.9662,8.0707,8.0864,8.1116,8.1737,8.1869,8.1959,8.1959,8.1961,8.1967,8.1937,8.2059,8.2053,8.1917,8.1878,8.1919,8.202,8.2086,8.2145,8.2225,8.2292,8.2281,8.2281,8.231,8.2305,8.2305,8.2305,8.2305,8.226,8.1636,8.1402,8.1317,8.0459,8.0107,8.0068,7.9795,7.9275,7.8698,7.8698,7.8126,7.7334,7.7334,7.7128,7.6858,7.6692,7.625,7.5793,7.5616,7.5924,7.6424,7.7008,7.7754,7.8542,7.9366,7.9284,7.8904,7.8596,7.7883,7.7107,7.6692,7.6203,7.576,7.5335,7.5263,7.5118,7.4819,7.4669,7.4893,7.5602,7.5561,7.5777,7.6644,7.6759,7.6485,7.5737,7.5926,7.5737,7.4902,7.5546,7.642,7.7613,7.7904,7.8462,7.9518,7.9756,7.9933,8.0209,8.1448,8.1886,8.1603,8.1851,8.2405,8.2998,8.2998,8.2998,8.2998,8.2998,8.2641,8.2072,8.3011,8.3306,8.3345,8.4411,8.5707,8.6964,8.7176,8.6954,8.6581,7.5643,7.5856,7.6111,7.671,7.7113,7.7653,7.8344,7.8722,7.9188,7.9986,8.0081,8.0293,8.0831,8.0999,8.1208,8.1519,8.1922,8.2129,8.2097,8.2187,8.2187,8.2107,8.2063,8.2061,8.2146,8.2187,8.2221,8.2281,8.231,8.2305,8.2305,8.2299,8.2137,8.1786,8.1786,8.1591,8.1239,8.068,8.0438,8.036,7.9487,7.9127,7.9088,7.8737,7.8252,7.7755,7.7755,7.7362,7.6846,7.6846,7.6791,7.6643,7.6316,7.587,7.5451,7.5279,7.536,7.5599,7.63,7.6994,7.773,7.8414,7.8578,7.8544,7.822,7.7436,7.6628,7.6233,7.5793,7.5335,7.5006,7.4933,7.4784,7.4441,7.4364,7.4581,7.51,7.5223,7.543,7.5909,7.5926,7.5642,7.4902,7.5033,7.4935,7.4372,7.4771,7.5366,7.6193,7.6627,7.7299,7.8213,7.8822,7.9329,7.9769,8.0569,8.1097,8.1097,8.1097,8.1352,8.1851,8.1851,8.1851,8.1851,8.1851,8.1603,8.1063,8.1698,8.1879,8.188,8.2699,8.3831,8.5077,8.5705,8.5846,8.5708,7.4476,7.474,7.5247,7.6235,7.6847,7.755,7.8374,7.8783,7.907,7.9282,7.9282,7.9364,7.9505,7.9539,7.9931,8.0712,8.1518,8.1989,8.1987,8.2042,8.2059,8.2059,8.2059,8.2037,8.1985,8.2193,8.2293,8.2293,8.2209,8.217,8.2176,8.2092,8.1623,8.0882,8.0882,8.0413,7.9665,7.9518,7.9461,7.9374,7.8464,7.809,7.8012,7.7194,7.6921,7.687,7.687,7.6871,7.6801,7.6747,7.6536,7.6234,7.5841,7.5577,7.5351,7.4901,7.4611,7.4627,7.5412,7.6056,7.6642,7.7005,7.768,7.8109,7.771,7.6946,7.6167,7.569,7.5335,7.4933,7.4593,7.4517,7.4364,7.3975,7.3896,7.4147,7.4825,7.4982,7.5043,7.5118,7.5161,7.4902,7.4272,7.4171,7.4272,7.4606,7.487,7.5067,7.5325,7.6193,7.6826,7.6893,7.8213,7.8991,7.9126,7.9769,8.0141,8.0209,8.0209,8.0209,8.0209,8.0209,8.0209,8.0209,8.0209,8.0209,8.0209,8.0209,8.0209,8.0276,8.0919,8.1762,8.2818,8.4196,8.4781,8.5023,7.4771,7.4897,7.5133,7.5574,7.5964,7.6405,7.688,7.7153,7.7623,7.8428,7.8555,7.8815,7.9488,7.9582,7.9664,7.986,8.0116,8.0227,8.0241,8.0269,8.0263,8.0263,8.0263,8.0218,8.0165,8.1584,8.2293,8.2293,8.1563,8.1212,8.1278,8.0548,8.0064,7.9908,7.9908,7.9773,7.95,7.8787,7.8503,7.8425,7.7556,7.7194,7.7155,7.696,7.6885,7.6805,7.6805,7.6786,7.6687,7.6376,7.5848,7.537,7.5268,7.5019,7.4695,7.4568,7.4432,7.4347,7.4847,7.5482,7.6058,7.6138,7.6533,7.6783,7.672,7.6032,7.5263,7.4933,7.4744,7.4593,7.4209,7.4167,7.3896,7.3264,7.3101,7.2996,7.2666,7.3129,7.3467,7.3607,7.4107,7.4372,7.4171,7.4171,7.4272,7.4606,7.487,7.5067,7.5325,7.5687,7.6251,7.6893,7.7198,7.7942,7.9092,7.9261,7.9634,8.0209,8.0209,8.0209,8.0209,8.0209,8.0209,8.0209,8.0209,8.0209,8.0209,8.0209,8.0209,8.0209,8.0378,8.0953,8.1698,8.2004,8.2888,8.3872,7.4897,7.5207,7.548,7.5634,7.6019,7.6379,7.6626,7.6768,7.7043,7.7564,7.7664,7.7836,7.8315,7.8359,7.8514,7.8938,7.9391,7.9645,7.9658,7.965,7.9643,7.9626,7.9578,7.9569,7.9549,8.0466,8.0952,8.0952,8.0456,8.0261,8.0289,7.9793,7.9315,7.8925,7.8925,7.867,7.8246,7.7754,7.7534,7.7495,7.6986,7.6816,7.6777,7.6715,7.6626,7.6612,7.6497,7.6394,7.6219,7.5914,7.5501,7.5054,7.5018,7.4783,7.4476,7.4387,7.4113,7.3901,7.4113,7.4731,7.5309,7.5068,7.5422,7.5927,7.613,7.5513,7.4784,7.4593,7.4441,7.4245,7.401,7.3737,7.338,7.2936,7.2686,7.233,7.1917,7.2565,7.3055,7.3111,7.374,7.4171,7.4171,7.4171,7.4272,7.4372,7.4672,7.487,7.5131,7.5422,7.5783,7.6318,7.669,7.7266,7.8044,7.8754,7.9295,7.9701,8.004,8.0209,8.0209,8.0209,8.0209,8.0209,8.0209,8.0209,8.0209,8.0209,8.0209,8.0209,8.0209,8.0445,8.0818,8.1156,8.2205,8.3625,7.5095,7.5513,7.5898,7.6006,7.6438,7.6791,7.6794,7.6864,7.6896,7.6905,7.6953,7.6989,7.6987,7.697,7.7284,7.8009,7.8711,7.914,7.914,7.914,7.912,7.9065,7.9065,7.9013,7.8988,7.8988,7.9157,7.9493,7.9325,7.9247,7.9259,7.9079,7.8598,7.7897,7.7884,7.7481,7.6819,7.6747,7.6731,7.6715,7.6687,7.6632,7.6594,7.635,7.6281,7.6258,7.6083,7.5851,7.5602,7.5436,7.5163,7.4904,7.4748,7.4577,7.4387,7.4113,7.374,7.3401,7.3209,7.3867,7.4372,7.3841,7.4431,7.5263,7.5548,7.5044,7.4517,7.4517,7.4245,7.401,7.3817,7.3299,7.2818,7.2567,7.2056,7.1681,7.1564,7.221,7.2696,7.2912,7.3674,7.4171,7.4171,7.4171,7.4171,7.4171,7.4473,7.4705,7.4968,7.5228,7.5422,7.5709,7.6352,7.6758,7.6893,7.8111,7.8855,7.9126,7.9735,8.0073,8.0209,8.0209,8.0209,8.0209,8.0209,8.0209,8.0209,8.0209,8.0209,8.0209,8.0209,8.0209,8.0276,8.1021,8.2137,8.3422,7.5451,7.5641,7.587,7.6338,7.6514,7.6702,7.6848,7.6931,7.6952,7.6917,7.69,7.6919,7.6897,7.6916,7.6944,7.7089,7.7206,7.7284,7.7284,7.7284,7.7245,7.7233,7.7233,7.7131,7.6902,7.6902,7.7781,7.9493,7.8702,7.8312,7.8363,7.7376,7.6824,7.6747,7.6573,7.6493,7.6496,7.6475,7.6475,7.6454,7.6454,7.6343,7.6135,7.5964,7.5908,7.5841,7.5664,7.5302,7.4905,7.4905,7.4623,7.4297,7.4297,7.4252,7.4151,7.374,7.3364,7.2906,7.2153,7.2798,7.3447,7.2656,7.3612,7.4669,7.4364,7.4132,7.4088,7.4088,7.401,7.3817,7.3183,7.3018,7.2483,7.1232,7.0963,7.0757,7.0182,7.0752,7.1419,7.2051,7.3343,7.4171,7.4171,7.4171,7.4171,7.4171,7.4473,7.4705,7.4968,7.5228,7.5422,7.5709,7.5811,7.6183,7.6893,7.7096,7.7841,7.9126,7.9228,7.96,8.0209,8.0209,8.0209,8.0209,8.0209,8.0209,8.0209,8.0209,8.0209,8.0209,8.0209,8.0209,8.0276,8.1021,8.1832,8.2644,7.5602,7.5887,7.6227,7.6531,7.6728,7.6827,7.6958,7.6946,7.6946,7.6912,7.6878,7.6832,7.6833,7.6833,7.6805,7.6692,7.6692,7.6621,7.6496,7.6496,7.6477,7.6458,7.6438,7.6397,7.6266,7.6305,7.6721,7.7583,7.7173,7.6979,7.704,7.6527,7.6305,7.6266,7.6171,7.6185,7.6248,7.6248,7.6248,7.621,7.6096,7.5991,7.588,7.5539,7.5441,7.5374,7.5018,7.4824,7.4619,7.453,7.435,7.4197,7.4197,7.3886,7.3466,7.3313,7.2595,7.1865,7.1448,7.2058,7.2656,7.2259,7.3275,7.4245,7.4088,7.401,7.3896,7.3461,7.338,7.3183,7.2517,7.1969,7.1498,7.0872,7.0482,7.0143,6.9893,7.0428,7.1322,7.2481,7.3541,7.4171,7.4171,7.4171,7.4171,7.4171,7.4272,7.4473,7.4771,7.4968,7.5228,7.5518,7.5614,7.5879,7.6217,7.669,7.7232,7.7874,7.872,7.9498,8.0209,8.0209,8.0209,8.0209,8.0209,8.0209,8.0209,8.0209,8.0209,8.0209,8.0209,8.0209,8.0276,8.1021,8.1494,8.1934]}]]